ftp/pub/palmer/observations_modified/2019/July/AR190725_BASE.txt

Download

Sample DateTime	Unit Id	WS Avg 2min	WD Avg 2min	WGS 10min	WGD 10min	Air Temp	Rel Humidity	Dew Point	Pyranometer	Quantum	Air Pressure	Snow Level	Rainfall	PW Current	Visibility	CBase 1	CBase 2	CBase 3	Vert Vis
2019/07/25  00:00:00  BASE  4.86864  79   6.53268  90   -8.6  59    -15.3 0     0     1002.8   NA       0.0000   9999     0     0     0    
2019/07/25  00:01:00  BASE  5.03328  78   6.13872  76   -8.6  58    -15.3 0     0     1002.8   NA       0.0000   9999     0     0     0    
2019/07/25  00:02:00  BASE  4.54524  77   6.13872  76   -8.6  58    -15.4 0     0     1002.8   NA       0.0000   9999     0     0     0    
2019/07/25  00:03:00  BASE  4.01016  75   6.13872  76   -8.6  57    -15.5 0     0     1002.8   NA       0.0000   9999     0     0     0    
2019/07/25  00:04:00  BASE  3.92196  77   6.13872  76   -8.7  57    -15.6 0     0     1002.8   NA       0.0000   9999     0     0     0    
2019/07/25  00:05:00  BASE  4.2336   77   5.59776  72   -8.7  57    -15.7 0     0     1002.8   NA       0.0000   9999     0     0     0    
2019/07/25  00:06:00  BASE  4.41588  74   5.59776  72   -8.8  57    -15.8 0     0     1002.8   NA       0.0000   9999     0     0     0    
2019/07/25  00:07:00  BASE  4.03956  73   5.59776  72   -8.9  57    -15.9 0     0     1002.8   NA       0.0000   9999     0     0     0    
2019/07/25  00:08:00  BASE  3.71616  73   5.35668  75   -8.9  57    -15.8 0     0     1002.8   NA       0.0000   9999     0     0     0    
2019/07/25  00:09:00  BASE  3.59856  73   5.35668  75   -8.9  57    -15.8 0     0     1002.8   NA       0.0000   9999     0     0     0    
2019/07/25  00:10:00  BASE  3.15168  75   5.2626   80   -8.8  57    -15.7 0     0     1002.8   NA       0.0000   9999     0     0     0    
2019/07/25  00:11:00  BASE  2.62248  77   4.89804  65   -8.6  57    -15.6 0     0     1002.8   NA       0.0000   9999     0     0     0    
2019/07/25  00:12:00  BASE  2.34612  76   4.80984  70   -8.3  56    -15.5 0     0     1002.8   NA       0.0000   9999     0     0     0    
2019/07/25  00:13:00  BASE  2.49312  67   4.80984  70   -8.2  56    -15.4 0     0     1002.8   NA       0.0000   9999     0     0     0    
2019/07/25  00:14:00  BASE  2.64012  56   4.80984  70   -8.0  55    -15.4 0     0     1002.8   NA       0.0000   9999     0     0     0    
2019/07/25  00:15:00  BASE  2.51076  45   4.65696  71   -7.9  55    -15.4 0     0     1002.8   NA       0.0000   9999     0     0     0    
2019/07/25  00:16:00  BASE  2.29908  36   4.263    68   -7.9  54    -15.5 0     0     1002.8   NA       0.0000   9999     0     0     0    
2019/07/25  00:17:00  BASE  1.72872  20   4.08072  70   -8.1  55    -15.6 0     0     1002.8   NA       0.0000   9999     0     0     0    
2019/07/25  00:18:00  BASE  1.52292  353  3.93372  73   -8.2  55    -15.6 0     0     1002.8   NA       0.0000   9999     0     0     0    
2019/07/25  00:19:00  BASE  1.72284  331  3.087    75   -8.3  56    -15.6 0     0     1002.8   NA       0.0000   9999     0     0     0    
2019/07/25  00:20:00  BASE  2.35788  331  4.41588  328  -8.5  57    -15.5 0     0     1002.8   NA       0.0000   9999     0     0     0    
2019/07/25  00:21:00  BASE  3.16344  346  4.41588  328  -8.6  58    -15.5 0     0     1002.8   NA       0.0000   9999     0     0     0    
2019/07/25  00:22:00  BASE  3.15168  350  4.41588  328  -8.7  59    -15.4 0     0     1002.8   NA       0.0000   9999     0     0     0    
2019/07/25  00:23:00  BASE  2.5578   340  4.41588  328  -8.8  59    -15.3 0     0     1002.8   NA       0.0000   9999     0     0     0    
2019/07/25  00:24:00  BASE  2.01096  324  4.41588  328  -8.8  60    -15.1 0     0     1002.8   NA       0.0000   9999     0     0     0    
2019/07/25  00:25:00  BASE  1.92864  332  4.41588  328  -8.8  61    -15.0 0     0     1002.8   NA       0.0000   9999     0     0     0    
2019/07/25  00:26:00  BASE  1.91688  353  4.41588  328  -8.7  61    -14.8 0     0     1002.8   NA       0.0000   9999     0     0     0    
2019/07/25  00:27:00  BASE  1.53468  354  4.41588  328  -8.6  62    -14.7 0     0     1002.8   NA       0.0000   9999     0     0     0    
2019/07/25  00:28:00  BASE  0.78204  357  4.41588  328  -8.6  62    -14.6 0     0     1002.7   NA       0.0000   9999     0     0     0    
2019/07/25  00:29:00  BASE  0.22344  4    4.41588  328  -8.6  62    -14.6 0     0     1002.7   NA       0.0000   9999     0     0     0    
2019/07/25  00:30:00  BASE  0.44688  354  3.81024  335  -8.5  62    -14.6 0     0     1002.7   NA       0.0000   9999     0     0     0    
2019/07/25  00:31:00  BASE  0.86436  346  3.26928  344  -8.5  61    -14.6 0     0     1002.7   NA       0.0000   9999     0     0     0    
2019/07/25  00:32:00  BASE  1.21716  342  2.75184  292  -8.4  61    -14.5 0     0     1002.6   NA       0.0000   9999     0     0     0    
2019/07/25  00:33:00  BASE  1.53468  333  2.75184  292  -8.4  61    -14.5 0     0     1002.7   NA       0.0000   9999     0     0     0    
2019/07/25  00:34:00  BASE  1.33476  333  2.48136  8    -8.4  62    -14.5 0     0     1002.7   NA       0.0000   9999     0     0     0    
2019/07/25  00:35:00  BASE  1.31124  333  2.35788  4    -8.4  62    -14.4 0     0     1002.7   NA       0.0000   9999     0     0     0    
2019/07/25  00:36:00  BASE  1.52292  338  2.0286   348  -8.4  62    -14.4 0     0     1002.7   NA       0.0000   9999     0     0     0    
2019/07/25  00:37:00  BASE  1.48764  350  2.0286   348  -8.4  62    -14.4 0     0     1002.8   NA       0.0000   9999     0     0     0    
2019/07/25  00:38:00  BASE  1.4994   4    2.0286   348  -8.4  62    -14.5 0     0     1002.7   NA       0.0000   9999     0     0     0    
2019/07/25  00:39:00  BASE  1.37004  20   2.0286   348  -8.5  62    -14.4 0     0     1002.7   NA       0.0000   9999     0     0     0    
2019/07/25  00:40:00  BASE  1.1172   29   2.0286   348  -8.5  63    -14.4 0     0     1002.7   NA       0.0000   9999     0     0     0    
2019/07/25  00:41:00  BASE  1.029    20   2.0286   348  -8.6  63    -14.3 0     0     1002.7   NA       0.0000   9999     0     0     0    
2019/07/25  00:42:00  BASE  1.01136  10   2.0286   348  -8.5  64    -14.2 0     0     1002.7   NA       0.0000   9999     0     0     0    
2019/07/25  00:43:00  BASE  0.86436  11   2.0286   348  -8.5  64    -14.2 0     0     1002.7   NA       0.0000   9999     0     0     0    
2019/07/25  00:44:00  BASE  0.735    9    2.0286   348  -8.4  63    -14.2 0     0     1002.6   NA       0.0000   9999     0     0     0    
2019/07/25  00:45:00  BASE  0.41748  7    2.0286   348  -8.4  62    -14.3 0     0     1002.6   NA       0.0000   9999     0     0     0    
2019/07/25  00:46:00  BASE  0.07644  29   1.96392  351  -8.3  61    -14.5 0     0     1002.6   NA       0.0000   9999     0     0     0    
2019/07/25  00:47:00  BASE  0.11172  65   1.63464  6    -8.4  61    -14.7 0     0     1002.6   NA       0.0000   9999     0     0     0    
2019/07/25  00:48:00  BASE  0.34692  85   1.54056  15   -8.4  60    -14.8 0     0     1002.6   NA       0.0000   9999     0     0     0    
2019/07/25  00:49:00  BASE  0.2646   89   1.42296  24   -8.4  60    -14.8 0     0     1002.6   NA       0.0000   9999     0     0     0    
2019/07/25  00:50:00  BASE  0.02352  81   1.42296  24   -8.5  60    -14.8 0     0     1002.6   NA       0.0000   9999     0     0     0    
2019/07/25  00:51:00  BASE  0        44   1.39356  346  -8.4  60    -14.9 0     0     1002.7   NA       0.0000   9999     0     0     0    
2019/07/25  00:52:00  BASE  0        25   1.0878   1    -8.4  60    -14.8 0     0     1002.7   NA       0.0000   9999     0     0     0    
2019/07/25  00:53:00  BASE  0        41   0.90552  360  -8.3  59    -14.8 0     0     1002.7   NA       0.0000   9999     0     0     0    
2019/07/25  00:54:00  BASE  0        56   0.78792  83   -8.3  59    -14.9 0     0     1002.7   NA       0.0000   9999     0     0     0    
2019/07/25  00:55:00  BASE  0        64   0.78792  83   -8.3  59    -14.9 0     0     1002.7   NA       0.0000   9999     0     0     0    
2019/07/25  00:56:00  BASE  0        69   0.78792  83   -8.3  58    -15.0 0     0     1002.6   NA       0.0000   9999     0     0     0    
2019/07/25  00:57:00  BASE  0.22344  61   0.84672  45   -8.3  58    -15.0 0     0     1002.6   NA       0.0000   9999     0     0     0    
2019/07/25  00:58:00  BASE  0.68796  48   1.029    39   -8.3  58    -15.1 0     0     1002.7   NA       0.0000   9999     0     0     0    
2019/07/25  00:59:01  BASE  0.98784  39   1.27008  27   -8.3  58    -15.1 0     0     1002.7   NA       0.0000   9999     0     0     0    
2019/07/25  01:00:00  BASE  1.2054   31   1.63464  28   -8.3  58    -15.2 0     0     1002.7   NA       0.0000   9999     0     0     0    
2019/07/25  01:01:00  BASE  1.48764  28   1.66404  26   -8.3  58    -15.2 0     0     1002.8   NA       0.0000   9999     0     0     0    
2019/07/25  01:02:00  BASE  1.84044  29   2.81064  39   -8.4  58    -15.3 0     0     1002.8   NA       0.0000   9999     0     0     0    
2019/07/25  01:03:00  BASE  2.27556  35   2.81064  39   -8.5  58    -15.3 0     0     1002.7   NA       0.0000   9999     0     0     0    
2019/07/25  01:04:00  BASE  2.2638   42   2.81064  39   -8.7  59    -15.2 0     0     1002.7   NA       0.0000   9999     0     0     0    
2019/07/25  01:05:00  BASE  2.07564  39   2.81064  39   -8.8  61    -15.1 0     0     1002.7   NA       0.0000   9999     0     0     0    
2019/07/25  01:06:00  BASE  2.06976  37   2.81064  39   -8.9  62    -15.0 0     0     1002.7   NA       0.0000   9999     0     0     0    
2019/07/25  01:07:00  BASE  2.01096  41   2.81064  39   -9.0  62    -14.9 0     0     1002.6   NA       0.0000   9999     0     0     0    
2019/07/25  01:08:00  BASE  1.94628  39   2.81064  39   -9.0  63    -14.8 0     0     1002.6   NA       0.0000   9999     0     0     0    
2019/07/25  01:09:00  BASE  1.9404   33   2.81064  39   -9.0  63    -14.8 0     0     1002.6   NA       0.0000   9999     0     0     0    
2019/07/25  01:10:00  BASE  2.04036  28   2.81064  39   -9.0  63    -14.8 0     0     1002.6   NA       0.0000   9999     0     0     0    
2019/07/25  01:11:00  BASE  2.25204  26   2.81064  39   -8.9  62    -14.8 0     0     1002.6   NA       0.0000   9999     0     0     0    
2019/07/25  01:12:00  BASE  2.44608  26   2.72244  34   -8.9  62    -14.8 0     0     1002.6   NA       0.0000   9999     0     0     0    
2019/07/25  01:13:00  BASE  2.47548  27   2.75184  35   -8.9  62    -14.9 0     0     1002.6   NA       0.0000   9999     0     0     0    
2019/07/25  01:14:00  BASE  2.35788  30   2.75184  35   -8.9  61    -15.0 0     0     1002.5   NA       0.0000   9999     0     0     0    
2019/07/25  01:15:00  BASE  2.49312  35   3.0576   36   -8.9  61    -15.1 0     0     1002.5   NA       0.0000   9999     0     0     0    
2019/07/25  01:16:00  BASE  2.5872   39   3.0576   36   -8.9  61    -15.1 0     0     1002.5   NA       0.0000   9999     0     0     0    
2019/07/25  01:17:00  BASE  2.31084  42   3.0576   36   -8.9  61    -15.1 0     0     1002.5   NA       0.0000   9999     0     0     0    
2019/07/25  01:18:00  BASE  2.01096  42   3.0576   36   -8.9  61    -15.1 0     0     1002.4   NA       0.0000   9999     0     0     0    
2019/07/25  01:19:00  BASE  1.74048  42   3.0576   36   -8.9  61    -15.1 0     0     1002.4   NA       0.0000   9999     0     0     0    
2019/07/25  01:20:00  BASE  1.54056  42   3.0576   36   -8.9  61    -15.1 0     0     1002.4   NA       0.0000   9999     0     0     0    
2019/07/25  01:21:00  BASE  1.40532  43   3.0576   36   -8.8  61    -15.0 0     0     1002.3   NA       0.0000   9999     0     0     0    
2019/07/25  01:22:00  BASE  1.42296  43   3.0576   36   -8.8  60    -15.1 0     0     1002.3   NA       0.0000   9999     0     0     0    
2019/07/25  01:23:00  BASE  1.54056  45   3.0576   36   -8.7  60    -15.1 0     0     1002.3   NA       0.0000   9999     0     0     0    
2019/07/25  01:24:00  BASE  1.55232  48   3.0576   36   -8.6  59    -15.2 0     0     1002.3   NA       0.0000   9999     0     0     0    
2019/07/25  01:25:00  BASE  1.5288   52   2.69304  37   -8.6  58    -15.3 0     0     1002.3   NA       0.0000   9999     0     0     0    
2019/07/25  01:26:00  BASE  1.4112   53   2.54016  40   -8.6  58    -15.4 0     0     1002.3   NA       0.0000   9999     0     0     0    
2019/07/25  01:27:00  BASE  1.029    47   2.058    42   -8.5  57    -15.5 0     0     1002.2   NA       0.0000   9999     0     0     0    
2019/07/25  01:28:00  BASE  0.4704   42   1.90512  51   -8.5  57    -15.5 0     0     1002.2   NA       0.0000   9999     0     0     0    
2019/07/25  01:29:00  BASE  0.25284  22   1.90512  51   -8.4  56    -15.5 0     0     1002.2   NA       0.0000   9999     0     0     0    
2019/07/25  01:30:00  BASE  0.4998   351  1.90512  51   -8.3  56    -15.5 0     0     1002.2   NA       0.0000   9999     0     0     0    
2019/07/25  01:31:00  BASE  0.72324  336  1.90512  51   -8.1  55    -15.5 0     0     1002.2   NA       0.0000   9999     0     0     0    
2019/07/25  01:32:00  BASE  0.87024  331  1.90512  51   -8.0  55    -15.6 0     0     1002.2   NA       0.0000   9999     0     0     0    
2019/07/25  01:33:00  BASE  1.029    327  1.90512  51   -7.9  54    -15.6 0     0     1002.2   NA       0.0000   9999     0     0     0    
2019/07/25  01:34:00  BASE  1.03488  326  1.90512  51   -7.9  53    -15.7 0     0     1002.1   NA       0.0000   9999     0     0     0    
2019/07/25  01:35:00  BASE  0.96432  341  1.54056  51   -7.9  53    -15.8 0     0     1002.1   NA       0.0000   9999     0     0     0    
2019/07/25  01:36:00  BASE  1.15248  7    1.48176  30   -7.9  52    -16.0 0     0     1002.1   NA       0.0000   9999     0     0     0    
2019/07/25  01:37:00  BASE  1.42296  28   1.60524  35   -8.0  52    -16.0 0     0     1002.1   NA       0.0000   9999     0     0     0    
2019/07/25  01:38:00  BASE  1.5288   39   1.63464  42   -8.2  53    -16.1 0     0     1002.1   NA       0.0000   9999     0     0     0    
2019/07/25  01:39:00  BASE  1.39356  42   1.63464  42   -8.3  53    -16.1 0     0     1002.1   NA       0.0000   9999     0     0     0    
2019/07/25  01:40:00  BASE  0.93492  42   1.63464  42   -8.4  54    -16.0 0     0     1002.1   NA       0.0000   9999     0     0     0    
2019/07/25  01:41:00  BASE  0.31164  20   1.63464  42   -8.5  55    -15.8 0     0     1002.0   NA       0.0000   9999     0     0     0    
2019/07/25  01:42:00  BASE  0.02352  312  1.63464  42   -8.4  56    -15.6 0     0     1002.0   NA       0.0000   9999     0     0     0    
2019/07/25  01:43:00  BASE  0.08232  294  1.63464  42   -8.4  57    -15.5 0     0     1002.0   NA       0.0000   9999     0     0     0    
2019/07/25  01:44:00  BASE  0.3234   285  1.63464  42   -8.3  57    -15.4 0     0     1002.0   NA       0.0000   9999     0     0     0    
2019/07/25  01:45:00  BASE  0.29988  286  1.63464  42   -8.2  56    -15.4 0     0     1002.0   NA       0.0000   9999     0     0     0    
2019/07/25  01:46:00  BASE  0.03528  308  1.63464  42   -8.1  56    -15.3 0     0     1002.0   NA       0.0000   9999     0     0     0    
2019/07/25  01:47:00  BASE  0        318  1.63464  42   -8.0  56    -15.3 0     0     1002.0   NA       0.0000   9999     0     0     0    
2019/07/25  01:48:00  BASE  0        278  1.54056  39   -8.0  56    -15.3 0     0     1002.0   NA       0.0000   9999     0     0     0    
2019/07/25  01:49:00  BASE  0        202  1.0584   41   -7.9  55    -15.3 0     0     1001.9   NA       0.0000   9999     0     0     0    
2019/07/25  01:50:00  BASE  0        186  1.029    264  -7.9  55    -15.3 0     0     1001.8   NA       0.0000   9999     0     0     0    
2019/07/25  01:51:00  BASE  0        193  1.029    264  -8.0  55    -15.4 0     0     1001.8   NA       0.0000   9999     0     0     0    
2019/07/25  01:52:00  BASE  0        195  1.029    264  -8.0  55    -15.4 0     0     1001.8   NA       0.0000   9999     0     0     0    
2019/07/25  01:53:00  BASE  0.25872  199  1.029    264  -8.0  55    -15.4 0     0     1001.8   NA       0.0000   9999     0     0     0    
2019/07/25  01:54:00  BASE  0.79968  211  1.1466   205  -8.0  56    -15.3 0     0     1001.8   NA       0.0000   9999     0     0     0    
2019/07/25  01:55:00  BASE  0.98196  209  1.21128  206  -8.0  56    -15.3 0     0     1001.7   NA       0.0000   9999     0     0     0    
2019/07/25  01:56:00  BASE  0.74676  198  1.29948  208  -8.1  56    -15.3 0     0     1001.7   NA       0.0000   9999     0     0     0    
2019/07/25  01:57:00  BASE  0.68796  197  1.29948  208  -8.1  56    -15.3 0     0     1001.6   NA       0.0000   9999     0     0     0    
2019/07/25  01:58:00  BASE  0.95844  201  1.51116  205  -8.1  57    -15.2 0     0     1001.6   NA       0.0000   9999     0     0     0    
2019/07/25  01:59:00  BASE  0.89376  205  1.51116  205  -8.1  57    -15.2 0     0     1001.6   NA       0.0000   9999     0     0     0    
2019/07/25  02:00:00  BASE  0.87024  212  1.51116  205  -8.2  57    -15.1 0     0     1001.6   NA       0.0000   9999     0     0     0    
2019/07/25  02:01:00  BASE  1.30536  224  1.69344  249  -8.2  58    -15.1 0     0     1001.6   NA       0.0000   9999     0     0     0    
2019/07/25  02:02:00  BASE  1.43472  234  1.69344  249  -8.1  58    -15.0 0     0     1001.6   NA       0.0000   9999     0     0     0    
2019/07/25  02:03:00  BASE  1.30536  234  1.69344  249  -8.1  58    -14.9 0     0     1001.6   NA       0.0000   9999     0     0     0    
2019/07/25  02:04:00  BASE  1.25244  237  1.69344  249  -8.0  59    -14.7 0     0     1001.7   NA       0.0000   9999     0     0     0    
2019/07/25  02:05:00  BASE  1.21716  244  1.69344  249  -7.9  59    -14.4 0     0     1001.7   NA       0.0000   9999     0     0     0    
2019/07/25  02:06:00  BASE  1.1466   243  1.69344  249  -7.7  60    -14.2 0     0     1001.7   NA       0.0000   9999     0     0     0    
2019/07/25  02:07:00  BASE  1.12308  232  1.69344  249  -7.7  60    -14.0 0     0     1001.7   NA       0.0000   9999     0     0     0    
2019/07/25  02:08:00  BASE  1.14072  221  1.69344  249  -7.7  61    -13.9 0     0     1001.7   NA       0.0000   9999     0     0     0    
2019/07/25  02:09:00  BASE  1.1172   215  1.69344  249  -7.7  61    -14.0 0     0     1001.6   NA       0.0000   9999     0     0     0    
2019/07/25  02:10:00  BASE  0.9702   208  1.69344  249  -7.8  61    -14.1 0     0     1001.6   NA       0.0000   9999     0     0     0    
2019/07/25  02:11:00  BASE  0.92316  199  1.57584  248  -7.9  61    -14.1 0     0     1001.6   NA       0.0000   9999     0     0     0    
2019/07/25  02:12:00  BASE  0.96432  197  1.42296  231  -8.0  62    -14.1 0     0     1001.6   NA       0.0000   9999     0     0     0    
2019/07/25  02:13:00  BASE  1.12896  200  1.96392  210  -8.1  62    -14.1 0     0     1001.6   NA       0.0000   9999     0     0     0    
2019/07/25  02:14:00  BASE  1.42296  202  1.96392  210  -8.2  62    -14.2 0     0     1001.6   NA       0.0000   9999     0     0     0    
2019/07/25  02:15:00  BASE  1.28772  204  1.96392  210  -8.1  62    -14.1 0     0     1001.6   NA       0.0000   9999     0     0     0    
2019/07/25  02:16:00  BASE  1.24068  202  1.96392  210  -8.1  62    -14.0 0     0     1001.6   NA       0.0000   9999     0     0     0    
2019/07/25  02:17:00  BASE  1.27596  214  1.96392  210  -8.0  62    -14.0 0     0     1001.6   NA       0.0000   9999     0     0     0    
2019/07/25  02:18:00  BASE  1.3524   222  2.1168   224  -7.8  62    -13.8 0     0     1001.6   NA       0.0000   9999     0     0     0    
2019/07/25  02:19:00  BASE  1.54056  205  2.1168   224  -7.6  62    -13.7 0     0     1001.5   NA       0.0000   9999     0     0     0    
2019/07/25  02:20:00  BASE  1.71108  182  2.69304  171  -7.5  62    -13.6 0     0     1001.4   NA       0.0000   9999     0     0     0    
2019/07/25  02:21:00  BASE  2.12268  171  2.81064  180  -7.5  62    -13.5 0     0     1001.4   NA       0.0000   9999     0     0     0    
2019/07/25  02:22:00  BASE  2.19324  172  2.81064  180  -7.6  62    -13.6 0     0     1001.4   NA       0.0000   9999     0     0     0    
2019/07/25  02:23:00  BASE  1.85808  186  2.81064  180  -7.7  62    -13.7 0     0     1001.4   NA       0.0000   9999     0     0     0    
2019/07/25  02:24:00  BASE  1.39944  211  2.81064  180  -7.8  62    -13.8 0     0     1001.5   NA       0.0000   9999     0     0     0    
2019/07/25  02:25:00  BASE  0.89376  226  2.81064  180  -7.9  62    -13.9 0     0     1001.5   NA       0.0000   9999     0     0     0    
2019/07/25  02:26:00  BASE  0.58212  195  2.81064  180  -7.9  62    -13.9 0     0     1001.4   NA       0.0000   9999     0     0     0    
2019/07/25  02:27:00  BASE  0.29988  151  2.81064  180  -7.9  62    -13.9 0     0     1001.4   NA       0.0000   9999     0     0     0    
2019/07/25  02:28:00  BASE  0.05292  99   2.81064  180  -7.9  62    -13.9 0     0     1001.4   NA       0.0000   9999     0     0     0    
2019/07/25  02:29:00  BASE  0.72912  56   2.81064  180  -8.0  62    -14.0 0     0     1001.4   NA       0.0000   9999     0     0     0    
2019/07/25  02:30:00  BASE  1.75224  43   2.81064  180  -8.1  62    -14.0 0     0     1001.4   NA       0.0000   9999     0     0     0    
2019/07/25  02:31:00  BASE  2.32848  44   2.96352  44   -8.2  63    -14.1 0     0     1001.4   NA       0.0000   9999     0     0     0    
2019/07/25  02:32:00  BASE  2.49312  45   2.96352  44   -8.3  63    -14.1 0     0     1001.4   NA       0.0000   9999     0     0     0    
2019/07/25  02:33:00  BASE  2.65776  38   3.26928  33   -8.5  64    -14.1 0     0     1001.4   NA       0.0000   9999     0     0     0    
2019/07/25  02:34:00  BASE  3.01056  33   3.96312  32   -8.6  65    -14.0 0     0     1001.4   NA       0.0000   9999     0     0     0    
2019/07/25  02:35:00  BASE  3.43392  33   3.96312  32   -8.8  66    -14.0 0     0     1001.3   NA       0.0000   9999     0     0     0    
2019/07/25  02:36:00  BASE  3.73968  38   3.96312  32   -8.9  67    -14.0 0     0     1001.3   NA       0.0000   9999     0     0     0    
2019/07/25  02:37:00  BASE  3.62796  40   3.96312  32   -9.1  67    -14.0 0     0     1001.3   NA       0.0000   9999     0     0     0    
2019/07/25  02:38:00  BASE  3.51036  41   3.96312  32   -9.2  68    -14.1 0     0     1001.2   NA       0.0000   9999     0     0     0    
2019/07/25  02:39:00  BASE  3.52212  46   3.96312  32   -9.3  68    -14.1 0     0     1001.1   NA       0.0000   9999     0     0     0    
2019/07/25  02:40:00  BASE  3.75732  43   4.35708  40   -9.5  68    -14.2 0     0     1001.1   NA       0.0000   9999     0     0     0    
2019/07/25  02:41:00  BASE  3.83376  38   4.35708  40   -9.6  69    -14.3 0     0     1001.1   NA       0.0000   9999     0     0     0    
2019/07/25  02:42:00  BASE  3.58092  35   4.35708  40   -9.6  69    -14.3 0     0     1001.0   NA       0.0000   9999     0     0     0    
2019/07/25  02:43:00  BASE  3.51036  39   4.35708  40   -9.6  69    -14.2 0     0     1001.1   NA       0.0000   9999     0     0     0    
2019/07/25  02:44:00  BASE  3.69264  43   4.35708  40   -9.6  69    -14.3 0     0     1001.1   NA       0.0000   9999     0     0     0    
2019/07/25  02:45:00  BASE  3.65736  39   4.35708  40   -9.5  68    -14.3 0     0     1001.1   NA       0.0000   9999     0     0     0    
2019/07/25  02:46:00  BASE  3.55152  28   4.35708  40   -9.5  68    -14.2 0     0     1001.0   NA       0.0000   9999     0     0     0    
2019/07/25  02:47:00  BASE  3.81612  22   4.35708  40   -9.4  68    -14.2 0     0     1001.1   NA       0.0000   9999     0     0     0    
2019/07/25  02:48:00  BASE  4.1454   20   4.83924  16   -9.3  68    -14.2 0     0     1001.0   NA       0.0000   9999     0     0     0    
2019/07/25  02:49:00  BASE  4.25712  16   4.83924  16   -9.1  67    -14.1 0     0     1001.0   NA       0.0000   9999     0     0     0    
2019/07/25  02:50:00  BASE  4.19244  17   4.83924  16   -8.9  67    -14.0 0     0     1001.1   NA       0.0000   9999     0     0     0    
2019/07/25  02:51:00  BASE  4.45704  21   4.93332  18   -8.7  66    -13.9 0     0     1001.1   NA       0.0000   9999     0     0     0    
2019/07/25  02:52:00  BASE  4.60404  21   4.93332  18   -8.7  65    -14.0 0     0     1001.1   NA       0.0000   9999     0     0     0    
2019/07/25  02:53:00  BASE  4.87452  19   5.80944  20   -8.6  64    -14.1 0     0     1001.1   NA       0.0000   9999     0     0     0    
2019/07/25  02:54:00  BASE  4.9686   17   5.80944  20   -8.6  64    -14.2 0     0     1001.1   NA       0.0000   9999     0     0     0    
2019/07/25  02:55:00  BASE  4.83336  15   5.80944  20   -8.6  63    -14.3 0     0     1001.1   NA       0.0000   9999     0     0     0    
2019/07/25  02:56:00  BASE  5.0862   14   5.80944  20   -8.6  63    -14.3 0     0     1001.1   NA       0.0000   9999     0     0     0    
2019/07/25  02:57:00  BASE  4.76868  14   5.80944  20   -8.6  63    -14.4 0     0     1001.1   NA       0.0000   9999     0     0     0    
2019/07/25  02:58:00  BASE  4.5864   9    5.80944  20   -8.5  63    -14.3 0     0     1001.2   NA       0.0000   9999     0     0     0    
2019/07/25  02:59:00  BASE  4.72164  9    5.80944  20   -8.5  63    -14.3 0     0     1001.2   NA       0.0000   9999     0     0     0    
2019/07/25  03:00:00  BASE  4.36296  14   5.80944  20   -8.5  63    -14.3 0     0     1001.2   NA       0.0000   9999     0     0     0    
2019/07/25  03:01:00  BASE  3.86904  10   5.80944  20   -8.5  63    -14.4 0     0     1001.2   NA       0.0000   9999     0     0     0    
2019/07/25  03:02:00  BASE  3.96312  2    5.80944  20   -8.5  63    -14.4 0     0     1001.1   NA       0.0000   9999     0     0     0    
2019/07/25  03:03:00  BASE  4.22184  359  5.68596  10   -8.6  63    -14.4 0     0     1001.1   NA       0.0000   9999     0     0     0    
2019/07/25  03:04:00  BASE  4.02192  356  5.56836  17   -8.6  63    -14.4 0     0     1001.1   NA       0.0000   9999     0     0     0    
2019/07/25  03:05:00  BASE  3.8808   353  5.56836  17   -8.6  63    -14.3 0     0     1001.1   NA       0.0000   9999     0     0     0    
2019/07/25  03:06:00  BASE  3.81612  353  5.3214   2    -8.6  64    -14.3 0     0     1001.1   NA       0.0000   9999     0     0     0    
2019/07/25  03:07:00  BASE  3.42804  350  5.3214   2    -8.6  63    -14.3 0     0     1001.1   NA       0.0000   9999     0     0     0    
2019/07/25  03:08:00  BASE  3.01644  352  5.02152  13   -8.6  63    -14.3 0     0     1001.1   NA       0.0000   9999     0     0     0    
2019/07/25  03:09:00  BASE  2.74008  359  4.65696  360  -8.6  63    -14.3 0     0     1001.1   NA       0.0000   9999     0     0     0    
2019/07/25  03:10:00  BASE  2.43432  358  4.65696  360  -8.6  64    -14.2 0     0     1001.1   NA       0.0000   9999     0     0     0    
2019/07/25  03:11:00  BASE  2.09328  350  4.65696  360  -8.6  64    -14.1 0     0     1001.0   NA       0.0000   9999     0     0     0    
2019/07/25  03:12:00  BASE  1.62876  349  4.65696  360  -8.5  64    -14.0 0     0     1001.1   NA       0.0000   9999     0     0     0    
2019/07/25  03:13:00  BASE  1.30536  342  4.1454   360  -8.5  64    -14.0 0     0     1001.1   NA       0.0000   9999     0     0     0    
2019/07/25  03:14:00  BASE  0.94668  337  4.1454   360  -8.5  64    -14.0 0     0     1001.2   NA       0.0000   9999     0     0     0    
2019/07/25  03:15:00  BASE  0.32928  345  4.116    354  -8.5  64    -14.0 0     0     1001.3   NA       0.0000   9999     0     0     0    
2019/07/25  03:16:00  BASE  0        18   3.38688  2    -8.5  64    -14.1 0     0     1001.3   NA       0.0000   9999     0     0     0    
2019/07/25  03:17:00  BASE  0.21168  76   3.2046   335  -8.7  64    -14.3 0     0     1001.3   NA       0.0000   9999     0     0     0    
2019/07/25  03:18:00  BASE  0.21168  72   2.66364  5    -8.8  64    -14.4 0     0     1001.3   NA       0.0000   9999     0     0     0    
2019/07/25  03:19:00  BASE  0        15   2.59896  353  -8.8  63    -14.5 0     0     1001.4   NA       0.0000   9999     0     0     0    
2019/07/25  03:20:00  BASE  0.02352  311  2.1168   346  -8.8  63    -14.6 0     0     1001.3   NA       0.0000   9999     0     0     0    
2019/07/25  03:21:00  BASE  0.02352  255  1.75224  349  -8.7  62    -14.6 0     0     1001.3   NA       0.0000   9999     0     0     0    
2019/07/25  03:22:00  BASE  0        245  1.42296  339  -8.6  62    -14.6 0     0     1001.2   NA       0.0000   9999     0     0     0    
2019/07/25  03:23:00  BASE  0        241  1.1466   340  -8.4  61    -14.6 0     0     1001.1   NA       0.0000   9999     0     0     0    
2019/07/25  03:24:00  BASE  0        227  1.0584   88   -8.3  61    -14.5 0     0     1001.2   NA       0.0000   9999     0     0     0    
2019/07/25  03:25:00  BASE  0.41748  242  1.1466   262  -8.3  61    -14.5 0     0     1001.3   NA       0.0000   9999     0     0     0    
2019/07/25  03:26:00  BASE  0.51156  251  1.1466   262  -8.3  61    -14.5 0     0     1001.3   NA       0.0000   9999     0     0     0    
2019/07/25  03:27:00  BASE  0.49392  248  1.1466   262  -8.2  61    -14.4 0     0     1001.3   NA       0.0000   9999     0     0     0    
2019/07/25  03:28:00  BASE  0.80556  256  1.42296  267  -8.2  61    -14.3 0     0     1001.3   NA       0.0000   9999     0     0     0    
2019/07/25  03:29:00  BASE  0.9702   259  1.42296  267  -8.2  61    -14.3 0     0     1001.3   NA       0.0000   9999     0     0     0    
2019/07/25  03:30:00  BASE  1.10544  253  1.42296  267  -8.1  62    -14.2 0     0     1001.3   NA       0.0000   9999     0     0     0    
2019/07/25  03:31:00  BASE  0.81144  243  1.42296  267  -8.2  62    -14.1 0     0     1001.3   NA       0.0000   9999     0     0     0    
2019/07/25  03:32:00  BASE  0.39396  232  1.42296  267  -8.2  63    -14.0 0     0     1001.3   NA       0.0000   9999     0     0     0    
2019/07/25  03:33:00  BASE  0.12936  222  1.42296  267  -8.2  63    -14.0 0     0     1001.3   NA       0.0000   9999     0     0     0    
2019/07/25  03:34:00  BASE  0        195  1.42296  267  -8.2  64    -13.9 0     0     1001.2   NA       0.0000   9999     0     0     0    
2019/07/25  03:35:00  BASE  0        138  1.42296  267  -8.2  64    -13.9 0     0     1001.1   NA       0.0000   9999     0     0     0    
2019/07/25  03:36:00  BASE  0        81   1.42296  267  -8.2  64    -13.9 0     0     1001.0   NA       0.0000   9999     0     0     0    
2019/07/25  03:37:00  BASE  0.08232  76   1.42296  267  -8.2  64    -13.9 0     0     1001.0   NA       0.0000   9999     0     0     0    
2019/07/25  03:38:00  BASE  0.10584  108  1.27008  264  -8.2  63    -14.0 0     0     1000.9   NA       0.0000   9999     0     0     0    
2019/07/25  03:39:00  BASE  0.42924  121  1.1466   250  -8.3  63    -14.0 0     0     1000.9   NA       0.0000   9999     0     0     0    
2019/07/25  03:40:00  BASE  0.735    114  1.029    106  -8.3  63    -14.1 0     0     1000.9   NA       0.0000   9999     0     0     0    
2019/07/25  03:41:00  BASE  0.32928  116  1.029    106  -8.3  63    -14.1 0     0     1000.9   NA       0.0000   9999     0     0     0    
2019/07/25  03:42:00  BASE  0.07644  120  1.029    106  -8.4  63    -14.2 0     0     1000.9   NA       0.0000   9999     0     0     0    
2019/07/25  03:43:00  BASE  0.07644  122  1.029    106  -8.5  63    -14.3 0     0     1000.9   NA       0.0000   9999     0     0     0    
2019/07/25  03:44:00  BASE  0        142  1.029    106  -8.4  63    -14.3 0     0     1000.8   NA       0.0000   9999     0     0     0    
2019/07/25  03:45:00  BASE  0        190  1.029    106  -8.3  63    -14.2 0     0     1000.8   NA       0.0000   9999     0     0     0    
2019/07/25  03:46:00  BASE  0        215  1.029    106  -8.3  63    -14.1 0     0     1000.8   NA       0.0000   9999     0     0     0    
2019/07/25  03:47:00  BASE  0        216  1.029    106  -8.2  63    -14.0 0     0     1000.8   NA       0.0000   9999     0     0     0    
2019/07/25  03:48:00  BASE  0        214  1.029    106  -8.1  63    -13.9 0     0     1000.8   NA       0.0000   9999     0     0     0    
2019/07/25  03:49:00  BASE  0        215  0.90552  111  -8.0  63    -13.9 0     0     1000.9   NA       0.0000   9999     0     0     0    
2019/07/25  03:50:00  BASE  0        215  0.66444  123  -8.0  63    -13.8 0     0     1000.9   NA       0.0000   9999     0     0     0    
2019/07/25  03:51:00  BASE  0        215  0.66444  123  -8.0  63    -13.8 0     0     1000.9   NA       0.0000   9999     0     0     0    
2019/07/25  03:52:00  BASE  0        214  0        M    -8.0  63    -13.8 0     0     1000.9   NA       0.0000   9999     0     0     0    
2019/07/25  03:53:00  BASE  0        190  0        M    -8.0  63    -13.8 0     0     1000.9   NA       0.0000   9999     0     0     0    
2019/07/25  03:54:00  BASE  0        142  0        M    -8.0  63    -13.8 0     0     1000.9   NA       0.0000   9999     0     0     0    
2019/07/25  03:55:00  BASE  0        118  0        M    -8.1  64    -13.7 0     0     1000.9   NA       0.0000   9999     0     0     0    
2019/07/25  03:56:00  BASE  0        120  0        M    -8.1  64    -13.8 0     0     1000.8   NA       0.0000   9999     0     0     0    
2019/07/25  03:57:00  BASE  0        126  0        M    -8.2  64    -13.8 0     0     1000.8   NA       0.0000   9999     0     0     0    
2019/07/25  03:58:00  BASE  0        134  0        M    -8.2  64    -13.9 0     0     1000.8   NA       0.0000   9999     0     0     0    
2019/07/25  03:59:00  BASE  0.05292  136  0.63504  128  -8.3  64    -13.9 0     0     1000.8   NA       0.0000   9999     0     0     0    
2019/07/25  04:00:00  BASE  0.45276  129  1.029    118  -8.3  64    -13.9 0     0     1000.7   NA       0.0000   9999     0     0     0    
2019/07/25  04:01:00  BASE  0.89964  122  1.0584   121  -8.3  64    -14.0 0     0     1000.7   NA       0.0000   9999     0     0     0    
2019/07/25  04:02:00  BASE  1.05252  128  1.21128  139  -8.3  64    -14.0 0     0     1000.7   NA       0.0000   9999     0     0     0    
2019/07/25  04:03:00  BASE  1.0878   137  1.29948  147  -8.4  65    -13.9 0     0     1000.7   NA       0.0000   9999     0     0     0    
2019/07/25  04:04:00  BASE  1.19952  140  1.45236  137  -8.5  66    -13.8 0     0     1000.6   NA       0.0000   9999     0     0     0    
2019/07/25  04:06:00  BASE  1.66992  138  2.21088  132  -8.6  67    -13.7 0     0     1000.5   NA       0.0000   9999     0     0     0    
2019/07/25  04:07:00  BASE  2.22264  133  2.84592  132  -8.8  68    -13.6 0     0     1000.5   NA       0.0000   9999     0     0     0    
2019/07/25  04:08:00  BASE  2.42844  126  2.84592  132  -8.8  69    -13.5 0     0     1000.5   NA       0.0000   9999     0     0     0    
2019/07/25  04:09:00  BASE  2.499    128  3.087    138  -8.8  70    -13.3 0     0     1000.5   NA       0.0000   9999     0     0     0    
2019/07/25  04:10:00  BASE  2.59308  137  3.1164   145  -8.8  71    -13.1 0     0     1000.5   NA       0.0000   9999     0     0     0    
2019/07/25  04:11:00  BASE  2.5578   132  3.1164   145  -8.8  72    -13.0 0     0     1000.5   NA       0.0000   9999     0     0     0    
2019/07/25  04:12:00  BASE  2.53428  120  3.1164   145  -8.7  72    -12.9 0     0     1000.6   NA       0.0000   9999     0     0     0    
2019/07/25  04:13:00  BASE  2.28144  119  3.1164   145  -8.6  72    -12.7 0     0     1000.7   NA       0.0000   9999     0     0     0    
2019/07/25  04:14:00  BASE  1.9992   121  3.1164   145  -8.5  72    -12.7 0     0     1000.7   NA       0.0000   9999     0     0     0    
2019/07/25  04:15:00  BASE  1.7346   122  3.1164   145  -8.4  71    -12.7 0     0     1000.7   NA       0.0000   9999     0     0     0    
2019/07/25  04:16:00  BASE  1.34652  124  3.1164   145  -8.3  71    -12.6 0     0     1000.8   NA       0.0000   9999     0     0     0    
2019/07/25  04:17:00  BASE  0.72912  128  3.1164   145  -8.0  70    -12.5 0     0     1000.8   NA       0.0000   9999     0     0     0    
2019/07/25  04:18:00  BASE  0.16464  130  3.1164   145  -7.9  70    -12.5 0     0     1000.9   NA       0.0000   9999     0     0     0    
2019/07/25  04:19:00  BASE  0        100  3.1164   145  -7.9  69    -12.6 0     0     1000.9   NA       0.0000   9999     0     0     0    
2019/07/25  04:20:00  BASE  0.72912  51   2.78124  111  -7.9  68    -12.8 0     0     1000.9   NA       0.0000   9999     0     0     0    
2019/07/25  04:21:00  BASE  1.54056  51   2.69304  118  -8.1  67    -13.1 0     0     1000.9   NA       0.0000   9999     0     0     0    
2019/07/25  04:22:00  BASE  1.47     53   2.32848  127  -8.2  66    -13.4 0     0     1000.9   NA       0.0000   9999     0     0     0    
2019/07/25  04:23:00  BASE  1.7346   51   2.29908  41   -8.3  66    -13.6 0     0     1001.0   NA       0.0000   9999     0     0     0    
2019/07/25  04:24:00  BASE  2.27556  40   2.75184  24   -8.4  65    -13.9 0     0     1001.0   NA       0.0000   9999     0     0     0    
2019/07/25  04:25:00  BASE  2.38728  30   2.75184  24   -8.5  65    -14.0 0     0     1001.0   NA       0.0000   9999     0     0     0    
2019/07/25  04:26:00  BASE  2.39316  25   2.75184  24   -8.5  64    -14.0 0     0     1001.0   NA       0.0000   9999     0     0     0    
2019/07/25  04:27:00  BASE  2.28144  27   2.75184  24   -8.6  65    -14.1 0     0     1001.0   NA       0.0000   9999     0     0     0    
2019/07/25  04:28:00  BASE  2.10504  30   2.75184  24   -8.8  65    -14.2 0     0     1000.9   NA       0.0000   9999     0     0     0    
2019/07/25  04:29:00  BASE  2.09328  30   2.75184  24   -8.9  65    -14.2 0     0     1001.0   NA       0.0000   9999     0     0     0    
2019/07/25  04:30:00  BASE  2.01096  30   2.75184  24   -9.0  66    -14.2 0     0     1001.0   NA       0.0000   9999     0     0     0    
2019/07/25  04:31:00  BASE  2.10504  35   3.0576   22   -9.0  67    -14.0 0     0     1001.0   NA       0.0000   9999     0     0     0    
2019/07/25  04:32:00  BASE  2.56956  37   3.1164   45   -9.0  67    -14.0 0     0     1001.0   NA       0.0000   9999     0     0     0    
2019/07/25  04:33:00  BASE  2.98116  42   3.51036  49   -9.1  68    -13.9 0     0     1001.0   NA       0.0000   9999     0     0     0    
2019/07/25  04:34:00  BASE  2.97528  48   3.51036  49   -9.1  68    -13.8 0     0     1000.9   NA       0.0000   9999     0     0     0    
2019/07/25  04:35:00  BASE  2.84592  52   3.51036  49   -9.1  69    -13.8 0     0     1000.9   NA       0.0000   9999     0     0     0    
2019/07/25  04:36:00  BASE  3.01056  50   3.62796  45   -9.1  69    -13.7 0     0     1000.9   NA       0.0000   9999     0     0     0    
2019/07/25  04:37:00  BASE  3.2928   51   3.86904  56   -9.1  70    -13.7 0     0     1000.9   NA       0.0000   9999     0     0     0    
2019/07/25  04:38:00  BASE  3.25752  47   3.86904  56   -9.1  70    -13.6 0     0     1000.8   NA       0.0000   9999     0     0     0    
2019/07/25  04:39:00  BASE  3.08112  36   3.86904  56   -9.1  70    -13.5 0     0     1000.8   NA       0.0000   9999     0     0     0    
2019/07/25  04:40:00  BASE  3.19872  30   3.86904  56   -9.1  71    -13.5 0     0     1000.7   NA       0.0000   9999     0     0     0    
2019/07/25  04:41:00  BASE  3.22224  31   3.86904  56   -9.1  71    -13.4 0     0     1000.7   NA       0.0000   9999     0     0     0    
2019/07/25  04:42:00  BASE  2.9694   37   3.86904  56   -9.1  71    -13.4 0     0     1000.7   NA       0.0000   9999     0     0     0    
2019/07/25  04:43:00  BASE  2.78124  43   3.86904  56   -9.1  71    -13.5 0     0     1000.7   NA       0.0000   9999     0     0     0    
2019/07/25  04:44:00  BASE  2.7048   48   3.86904  56   -9.2  71    -13.6 0     0     1000.7   NA       0.0000   9999     0     0     0    
2019/07/25  04:45:00  BASE  2.48136  42   3.86904  56   -9.3  70    -13.7 0     0     1000.6   NA       0.0000   9999     0     0     0    
2019/07/25  04:46:00  BASE  2.35788  28   3.86904  56   -9.3  70    -13.8 0     0     1000.5   NA       0.0000   9999     0     0     0    
2019/07/25  04:47:00  BASE  2.22852  23   3.56916  23   -9.3  69    -13.9 0     0     1000.4   NA       0.0000   9999     0     0     0    
2019/07/25  04:48:00  BASE  2.12268  21   3.56916  23   -9.3  69    -13.9 0     0     1000.4   NA       0.0000   9999     0     0     0    
2019/07/25  04:49:00  BASE  2.22852  17   3.56916  23   -9.2  69    -13.9 0     0     1000.4   NA       0.0000   9999     0     0     0    
2019/07/25  04:50:00  BASE  2.00508  17   3.41628  37   -9.2  69    -13.8 0     0     1000.3   NA       0.0000   9999     0     0     0    
2019/07/25  04:51:00  BASE  1.71696  21   3.1164   35   -9.1  69    -13.8 0     0     1000.3   NA       0.0000   9999     0     0     0    
2019/07/25  04:52:00  BASE  1.58172  24   2.96352  59   -9.1  69    -13.9 0     0     1000.3   NA       0.0000   9999     0     0     0    
2019/07/25  04:53:00  BASE  1.71108  23   2.96352  59   -9.1  69    -13.8 0     0     1000.3   NA       0.0000   9999     0     0     0    
2019/07/25  04:54:00  BASE  1.79928  30   2.75184  23   -9.1  68    -13.9 0     0     1000.3   NA       0.0000   9999     0     0     0    
2019/07/25  04:55:00  BASE  1.57584  44   2.75184  23   -9.1  68    -13.9 0     0     1000.3   NA       0.0000   9999     0     0     0    
2019/07/25  04:56:00  BASE  1.69344  62   2.75184  23   -9.1  68    -13.9 0     0     1000.3   NA       0.0000   9999     0     0     0    
2019/07/25  04:57:00  BASE  1.7934   81   2.75184  23   -9.1  68    -13.9 0     0     1000.2   NA       0.0000   9999     0     0     0    
2019/07/25  04:58:00  BASE  1.72872  85   2.63424  16   -9.1  68    -13.9 0     0     1000.2   NA       0.0000   9999     0     0     0    
2019/07/25  04:59:00  BASE  1.7346   83   2.48136  4    -9.1  67    -14.0 0     0     1000.2   NA       0.0000   9999     0     0     0    
2019/07/25  05:00:00  BASE  1.65816  80   2.38728  103  -9.0  67    -14.0 0     0     1000.2   NA       0.0000   9999     0     0     0    
2019/07/25  05:01:00  BASE  1.22304  70   2.38728  103  -8.9  66    -14.1 0     0     1000.2   NA       0.0000   9999     0     0     0    
2019/07/25  05:02:00  BASE  0.6174   47   2.38728  103  -8.8  66    -14.1 0     0     1000.2   NA       0.0000   9999     0     0     0    
2019/07/25  05:03:00  BASE  0.64092  24   2.38728  103  -8.7  65    -14.2 0     0     1000.2   NA       0.0000   9999     0     0     0    
2019/07/25  05:04:00  BASE  1.05252  19   2.38728  103  -8.6  64    -14.2 0     0     1000.2   NA       0.0000   9999     0     0     0    
2019/07/25  05:05:00  BASE  1.19364  30   2.38728  103  -8.5  62    -14.4 0     0     1000.2   NA       0.0000   9999     0     0     0    
2019/07/25  05:06:00  BASE  1.08192  38   2.29908  96   -8.4  61    -14.5 0     0     1000.2   NA       0.0000   9999     0     0     0    
2019/07/25  05:07:00  BASE  0.9702   46   2.29908  96   -8.4  61    -14.7 0     0     1000.1   NA       0.0000   9999     0     0     0    
2019/07/25  05:08:00  BASE  1.02312  57   2.21088  94   -8.4  60    -14.7 0     0     1000.1   NA       0.0000   9999     0     0     0    
2019/07/25  05:09:00  BASE  0.77028  60   2.1462   78   -8.4  60    -14.8 0     0     1000.0   NA       0.0000   9999     0     0     0    
2019/07/25  05:10:00  BASE  0.21756  63   1.32888  25   -8.3  60    -14.7 0     0     999.9    NA       0.0000   9999     0     0     0    
2019/07/25  05:11:00  BASE  0.1764   85   1.32888  25   -8.3  60    -14.7 0     0     999.9    NA       0.0000   9999     0     0     0    
2019/07/25  05:12:00  BASE  0.74088  119  1.32888  25   -8.3  60    -14.7 0     0     999.8    NA       0.0000   9999     0     0     0    
2019/07/25  05:13:00  BASE  0.81732  149  1.32888  25   -8.3  59    -14.8 0     0     999.7    NA       0.0000   9999     0     0     0    
2019/07/25  05:14:00  BASE  0.65856  161  1.29948  41   -8.3  59    -14.9 0     0     999.7    NA       0.0000   9999     0     0     0    
2019/07/25  05:15:00  BASE  0.71736  164  1.27008  64   -8.4  59    -15.0 0     0     999.7    NA       0.0000   9999     0     0     0    
2019/07/25  05:16:00  BASE  0.50568  182  1.27008  64   -8.5  59    -15.0 0     0     999.7    NA       0.0000   9999     0     0     0    
2019/07/25  05:17:00  BASE  0.68796  199  1.39356  210  -8.5  60    -14.9 0     0     999.6    NA       0.0000   9999     0     0     0    
2019/07/25  05:18:00  BASE  1.27596  203  1.63464  194  -8.3  60    -14.7 0     0     999.5    NA       0.0000   9999     14500 0     0    
2019/07/25  05:19:00  BASE  1.42296  196  1.63464  194  -8.2  60    -14.6 0     0     999.5    NA       0.0000   9999     14500 0     0    
2019/07/25  05:20:00  BASE  1.19364  178  1.63464  194  -8.1  60    -14.4 0     0     999.5    NA       0.0000   9999     0     0     0    
2019/07/25  05:21:00  BASE  1.39944  137  1.87572  108  -8.2  60    -14.5 0     0     999.6    NA       0.0000   9999     0     0     0    
2019/07/25  05:22:00  BASE  1.59936  138  1.87572  108  -8.3  60    -14.7 0     0     999.6    NA       0.0000   9999     0     0     0    
2019/07/25  05:23:00  BASE  1.51704  171  1.87572  108  -8.4  61    -14.7 0     0     999.6    NA       0.0000   9999     0     0     0    
2019/07/25  05:24:00  BASE  1.57584  180  1.87572  108  -8.5  61    -14.6 0     0     999.6    NA       0.0000   9999     0     0     0    
2019/07/25  05:25:00  BASE  1.62288  179  1.87572  108  -8.5  62    -14.6 0     0     999.6    NA       0.0000   9999     0     0     0    
2019/07/25  05:26:00  BASE  1.47     191  1.87572  108  -8.4  63    -14.2 0     0     999.6    NA       0.0000   9999     0     0     0    
2019/07/25  05:27:00  BASE  0.7644   204  1.87572  108  -8.2  63    -13.9 0     0     999.7    NA       0.0000   9999     15130 0     0    
2019/07/25  05:28:00  BASE  0.1176   232  1.87572  108  -8.0  64    -13.7 0     0     999.7    NA       0.0000   9999     15090 0     0    
2019/07/25  05:29:00  BASE  0        285  1.87572  108  -7.8  64    -13.5 0     0     999.7    NA       0.0000   9999     14140 14760 0    
2019/07/25  05:30:00  BASE  0.13524  297  1.87572  108  -7.7  64    -13.3 0     0     999.7    NA       0.0000   9999     13940 14760 0    
2019/07/25  05:31:00  BASE  0.5586   276  1.81692  173  -7.6  65    -13.1 0     0     999.7    NA       0.0000   9999     13780 14760 0    
2019/07/25  05:32:00  BASE  0.58212  253  1.81692  173  -7.6  65    -13.1 0     0     999.7    NA       0.0000   9999     13910 14860 0    
2019/07/25  05:33:00  BASE  0.15876  239  1.81692  173  -7.5  65    -13.0 0     0     999.7    NA       0.0000   9999     13680 14990 0    
2019/07/25  05:34:00  BASE  0        223  1.81692  173  -7.5  65    -13.0 0     0     999.7    NA       0.0000   9999     14900 0     0    
2019/07/25  05:35:00  BASE  0        216  1.63464  206  -7.5  65    -13.0 0     0     999.7    NA       0.0000   9999     14960 0     0    
2019/07/25  05:36:00  BASE  0        216  1.029    263  -7.5  65    -13.0 0     0     999.7    NA       0.0000   9999     14900 0     0    
2019/07/25  05:37:00  BASE  0        212  1.029    263  -7.6  65    -13.0 0     0     999.6    NA       0.0000   9999     14930 0     0    
2019/07/25  05:38:00  BASE  0.0588   181  1.029    263  -7.7  65    -13.1 0     0     999.5    NA       0.0000   9999     14900 0     0    
2019/07/25  05:39:00  BASE  0.60564  147  1.29948  138  -7.8  65    -13.2 0     0     999.5    NA       0.0000   9999     13580 14760 0    
2019/07/25  05:40:00  BASE  1.22304  136  1.42296  134  -8.1  65    -13.4 0     0     999.4    NA       0.0000   9999     13580 14630 0    
2019/07/25  05:41:00  BASE  1.35828  136  1.48176  140  -8.3  65    -13.6 0     0     999.4    NA       0.0000   9999     14700 0     0    
2019/07/25  05:42:00  BASE  1.48176  145  1.75224  155  -8.5  65    -13.8 0     0     999.3    NA       0.0000   9999     14730 0     0    
2019/07/25  05:43:00  BASE  1.4994   155  1.75224  155  -8.6  66    -13.9 0     0     999.2    NA       0.0000   9999     14760 0     0    
2019/07/25  05:44:00  BASE  1.31124  148  1.75224  155  -8.5  66    -13.8 0     0     999.2    NA       0.0000   9999     14760 0     0    
2019/07/25  05:45:00  BASE  1.69344  126  2.56956  111  -8.5  66    -13.7 0     0     999.4    NA       0.0000   9999     14800 0     0    
2019/07/25  05:46:00  BASE  2.21676  115  2.63424  115  -8.5  67    -13.6 0     0     999.3    NA       0.0000   9999     14830 0     0    
2019/07/25  05:47:00  BASE  2.4696   119  2.87532  126  -8.4  67    -13.5 0     0     999.2    NA       0.0000   9999     14830 0     0    
2019/07/25  05:48:00  BASE  2.66364  127  2.90472  133  -8.4  67    -13.4 0     0     999.2    NA       0.0000   9999     0     0     0    
2019/07/25  05:49:00  BASE  2.58132  138  2.90472  133  -8.4  68    -13.3 0     0     999.2    NA       0.0000   9999     0     0     0    
2019/07/25  05:50:00  BASE  2.42256  147  2.90472  133  -8.4  68    -13.2 0     0     999.1    NA       0.0000   9999     0     0     0    
2019/07/25  05:51:00  BASE  2.2344   144  2.90472  133  -8.5  69    -13.2 0     0     999.1    NA       0.0000   9999     0     0     0    
2019/07/25  05:52:00  BASE  2.24616  129  2.99292  110  -8.6  69    -13.3 0     0     999.0    NA       0.0000   9999     0     0     0    
2019/07/25  05:53:00  BASE  2.77536  110  3.51036  93   -8.8  69    -13.5 0     0     998.9    NA       0.0000   9999     0     0     0    
2019/07/25  05:54:00  BASE  3.234    99   3.51036  93   -8.8  69    -13.6 0     0     998.9    NA       0.0000   9999     0     0     0    
2019/07/25  05:55:00  BASE  3.087    99   3.51036  93   -8.8  68    -13.6 0     0     998.8    NA       0.0000   9999     0     0     0    
2019/07/25  05:56:00  BASE  2.71656  102  3.51036  93   -8.6  68    -13.6 0     0     998.8    NA       0.0000   9999     0     0     0    
2019/07/25  05:57:00  BASE  2.2638   108  3.51036  93   -8.4  67    -13.4 0     0     998.6    NA       0.0000   9999     16370 0     0    
2019/07/25  05:58:00  BASE  2.06976  110  3.51036  93   -8.2  66    -13.4 0     0     998.6    NA       0.0000   9999     15950 0     0    
2019/07/25  05:59:00  BASE  2.09916  106  3.51036  93   -8.2  66    -13.5 0     0     998.6    NA       0.0000   9999     15910 0     0    
2019/07/25  06:00:00  BASE  1.86984  103  3.51036  93   -8.1  65    -13.4 0     0     998.6    NA       0.0000   9999     15680 0     0    
2019/07/25  06:01:00  BASE  1.61112  108  3.51036  93   -8.1  65    -13.4 0     0     998.6    NA       0.0000   9999     15550 0     0    
2019/07/25  06:02:00  BASE  1.3524   123  3.51036  93   -8.0  65    -13.4 0     0     998.6    NA       0.0000   9999     15720 0     0    
2019/07/25  06:03:00  BASE  1.02312  133  3.48096  96   -8.0  65    -13.4 0     0     998.7    NA       0.0000   9999     14530 0     0    
2019/07/25  06:04:00  BASE  0.7644   135  3.26928  98   -7.9  65    -13.4 0     0     998.8    NA       0.0000   9999     13980 14960 0    
2019/07/25  06:05:00  BASE  0.33516  157  3.02232  110  -7.8  65    -13.3 0     0     998.7    NA       0.0000   9999     13680 0     0    
2019/07/25  06:06:00  BASE  0.3234   214  2.42256  99   -7.7  65    -13.2 0     0     998.6    NA       0.0000   9999     13620 0     0    
2019/07/25  06:07:00  BASE  0.45864  244  2.42256  99   -7.6  65    -13.2 0     0     998.6    NA       0.0000   9999     13550 14210 14930
2019/07/25  06:08:00  BASE  0.13524  247  2.24028  98   -7.6  65    -13.1 0     0     998.6    NA       0.0000   9999     14930 0     0    
2019/07/25  06:09:00  BASE  0.03528  269  2.21088  104  -7.5  65    -13.0 0     0     998.6    NA       0.0000   9999     15060 0     0    
2019/07/25  06:10:00  BASE  0.61152  38   1.75224  112  -7.6  64    -13.2 0     0     998.6    NA       0.0000   9999     0     0     0    
2019/07/25  06:11:00  BASE  1.30536  50   1.63464  39   -7.7  64    -13.3 0     0     998.6    NA       0.0000   9999     0     0     0    
2019/07/25  06:12:00  BASE  1.69932  39   2.0874   40   -7.9  64    -13.5 0     0     998.6    NA       0.0000   9999     0     0     0    
2019/07/25  06:13:01  BASE  1.911    28   2.21088  28   -8.0  64    -13.6 0     0     998.6    NA       0.0000   9999     0     0     0    
2019/07/25  06:14:00  BASE  1.6758   18   2.21088  28   -8.2  64    -13.7 0     0     998.5    NA       0.0000   9999     0     0     0    
2019/07/25  06:15:00  BASE  1.5876   8    2.21088  28   -8.3  65    -13.8 0     0     998.5    NA       0.0000   9999     0     0     0    
2019/07/25  06:16:00  BASE  1.7346   14   2.21088  28   -8.4  65    -13.7 0     0     998.6    NA       0.0000   9999     0     0     0    
2019/07/25  06:17:00  BASE  1.69344  29   2.21088  28   -8.4  66    -13.7 0     0     998.7    NA       0.0000   9999     0     0     0    
2019/07/25  06:18:00  BASE  1.5582   23   2.21088  28   -8.5  67    -13.6 0     0     998.8    NA       0.0000   9999     0     0     0    
2019/07/25  06:19:00  BASE  1.68756  7    2.21088  28   -8.4  67    -13.5 0     0     998.8    NA       0.0000   9999     0     0     0    
2019/07/25  06:20:00  BASE  1.89924  354  2.21088  28   -8.4  67    -13.5 0     0     998.8    NA       0.0000   9999     0     0     0    
2019/07/25  06:21:00  BASE  1.92276  358  2.21088  9    -8.4  67    -13.5 0     0     998.7    NA       0.0000   9999     0     0     0    
2019/07/25  06:22:00  BASE  1.65228  13   2.21088  9    -8.4  67    -13.5 0     0     998.6    NA       0.0000   9999     0     0     0    
2019/07/25  06:23:00  BASE  1.43472  39   2.21088  9    -8.5  66    -13.6 0     0     998.5    NA       0.0000   9999     0     0     0    
2019/07/25  06:24:00  BASE  1.74048  78   2.32848  95   -8.6  66    -13.7 0     0     998.5    NA       0.0000   9999     0     0     0    
2019/07/25  06:25:00  BASE  1.69932  94   2.32848  95   -8.6  66    -13.8 0     0     998.5    NA       0.0000   9999     0     0     0    
2019/07/25  06:26:00  BASE  0.98196  76   2.32848  95   -8.6  66    -13.8 0     0     998.4    NA       0.0000   9999     15910 0     0    
2019/07/25  06:27:01  BASE  0.46452  42   2.32848  95   -8.5  66    -13.7 0     0     998.3    NA       0.0000   9999     15910 0     0    
2019/07/25  06:28:00  BASE  0.71736  24   2.32848  95   -8.4  66    -13.6 0     0     998.3    NA       0.0000   9999     15950 16600 0    
2019/07/25  06:29:00  BASE  1.12308  22   2.32848  95   -8.2  65    -13.5 0     0     998.2    NA       0.0000   9999     16140 0     0    
2019/07/25  06:30:00  BASE  1.21716  19   2.32848  95   -8.1  65    -13.6 0     0     998.2    NA       0.0000   9999     16080 16630 0    
2019/07/25  06:31:00  BASE  1.41708  29   2.32848  95   -8.1  64    -13.7 0     0     998.2    NA       0.0000   9999     16010 16770 0    
2019/07/25  06:32:00  BASE  1.3524   47   2.32848  95   -8.1  63    -13.8 0     0     998.0    NA       0.0000   9999     16180 0     0    
2019/07/25  06:33:01  BASE  0.87612  34   2.32848  95   -8.1  63    -13.9 0     0     998.0    NA       0.0000   9999     0     0     0    
2019/07/25  06:34:00  BASE  0.87612  5    1.72284  32   -8.1  63    -14.0 0     0     997.9    NA       0.0000   9999     0     0     0    
2019/07/25  06:35:00  BASE  1.15836  2    1.72284  32   -8.1  62    -14.0 0     0     998.0    NA       0.0000   9999     0     0     0    
2019/07/25  06:36:00  BASE  1.10544  15   1.72284  32   -8.0  62    -14.0 0     0     998.0    NA       0.0000   9999     0     0     0    
2019/07/25  06:37:00  BASE  1.12896  13   1.72284  32   -7.9  62    -14.0 0     0     998.0    NA       0.0000   9999     0     0     0    
2019/07/25  06:38:00  BASE  1.22304  358  1.72284  32   -7.9  61    -14.1 0     0     997.9    NA       0.0000   9999     0     0     0    
2019/07/25  06:39:00  BASE  1.2642   346  1.72284  32   -7.9  61    -14.1 0     0     997.9    NA       0.0000   9999     0     0     0    
2019/07/25  06:40:01  BASE  1.25244  349  1.72284  32   -7.9  61    -14.1 0     0     997.9    NA       0.0000   9999     0     0     0    
2019/07/25  06:41:00  BASE  1.11132  12   1.60524  57   -8.0  61    -14.1 0     0     998.0    NA       0.0000   9999     0     0     0    
2019/07/25  06:42:00  BASE  1.01724  20   1.45236  346  -8.1  62    -14.2 0     0     997.9    NA       0.0000   9999     0     0     0    
2019/07/25  06:43:00  BASE  0.9702   19   1.45236  346  -8.1  62    -14.2 0     0     997.8    NA       0.0000   9999     0     0     0    
2019/07/25  06:44:00  BASE  1.06428  23   1.45236  346  -8.2  62    -14.2 0     0     997.8    NA       0.0000   9999     0     0     0    
2019/07/25  06:45:00  BASE  1.38768  27   1.69344  34   -8.2  62    -14.2 0     0     997.8    NA       0.0000   9999     0     0     0    
2019/07/25  06:46:00  BASE  1.66992  36   1.96392  38   -8.2  62    -14.2 0     0     997.8    NA       0.0000   9999     0     0     0    
2019/07/25  06:47:00  BASE  1.84632  47   2.42256  60   -8.2  62    -14.1 0     0     997.8    NA       0.0000   9999     0     0     0    
2019/07/25  06:48:01  BASE  2.04036  59   2.42256  60   -8.2  63    -14.1 0     0     997.8    NA       0.0000   9999     0     0     0    
2019/07/25  06:49:01  BASE  2.2932   71   2.54016  78   -8.2  63    -14.1 0     0     997.8    NA       0.0000   9999     0     0     0    
2019/07/25  06:50:00  BASE  2.21676  66   2.54016  78   -8.3  63    -14.1 0     0     997.8    NA       0.0000   9999     0     0     0    
2019/07/25  06:51:00  BASE  1.9404   51   2.54016  78   -8.3  63    -14.1 0     0     997.8    NA       0.0000   9999     0     0     0    
2019/07/25  06:52:00  BASE  1.68168  42   2.54016  78   -8.2  63    -14.1 0     0     997.7    NA       0.0000   9999     0     0     0    
2019/07/25  06:53:00  BASE  1.24656  44   2.54016  78   -8.2  63    -14.1 0     0     997.7    NA       0.0000   9999     0     0     0    
2019/07/25  06:54:00  BASE  0.8232   58   2.54016  78   -8.2  62    -14.2 0     0     997.7    NA       0.0000   9999     0     0     0    
2019/07/25  06:55:00  BASE  0.6174   63   2.54016  78   -8.2  62    -14.3 0     0     997.7    NA       0.0000   9999     0     0     0    
2019/07/25  06:56:00  BASE  0.57624  45   2.54016  78   -8.2  61    -14.3 0     0     997.7    NA       0.0000   9999     0     0     0    
2019/07/25  06:57:00  BASE  0.71148  16   2.54016  78   -8.2  61    -14.4 0     0     997.7    NA       0.0000   9999     0     0     0    
2019/07/25  06:58:00  BASE  0.9702   356  2.54016  78   -8.1  60    -14.4 0     0     997.7    NA       0.0000   9999     0     0     0    
2019/07/25  06:59:00  BASE  0.72912  354  2.1756   58   -8.0  60    -14.4 0     0     997.7    NA       0.0000   9999     0     0     0    
2019/07/25  07:00:00  BASE  0.24108  8    2.0286   44   -8.0  59    -14.5 0     0     997.6    NA       0.0000   9999     0     0     0    
2019/07/25  07:01:00  BASE  0.60564  40   1.81692  42   -8.0  59    -14.6 0     0     997.7    NA       0.0000   9999     0     0     0    
2019/07/25  07:02:00  BASE  1.43472  60   2.21088  58   -8.0  59    -14.7 0     0     997.7    NA       0.0000   9999     0     0     0    
2019/07/25  07:03:00  BASE  2.06388  65   2.72244  66   -8.0  59    -14.7 0     0     997.7    NA       0.0000   9999     0     0     0    
2019/07/25  07:04:00  BASE  2.52252  66   2.81064  68   -8.0  59    -14.7 0     0     997.7    NA       0.0000   9999     0     0     0    
2019/07/25  07:05:00  BASE  2.4402   72   2.81064  68   -8.0  59    -14.7 0     0     997.7    NA       0.0000   9999     0     0     0    
2019/07/25  07:06:00  BASE  1.79928  74   2.81064  68   -8.0  58    -14.7 0     0     997.7    NA       0.0000   9999     0     0     0    
2019/07/25  07:07:00  BASE  1.41708  74   2.81064  68   -8.0  58    -14.8 0     0     997.7    NA       0.0000   9999     0     0     0    
2019/07/25  07:08:01  BASE  1.56408  72   2.81064  68   -8.0  58    -14.8 0     0     997.6    NA       0.0000   9999     0     0     0    
2019/07/25  07:09:01  BASE  1.27596  76   2.81064  68   -8.1  58    -14.8 0     0     997.5    NA       0.0000   9999     0     0     0    
2019/07/25  07:10:01  BASE  1.176    77   2.81064  68   -8.1  59    -14.8 0     0     997.5    NA       0.0000   9999     0     0     0    
2019/07/25  07:11:00  BASE  1.56408  69   2.81064  68   -8.1  59    -14.7 0     0     997.6    NA       0.0000   9999     0     0     0    
2019/07/25  07:12:01  BASE  1.50528  85   2.81064  68   -8.1  60    -14.5 0     0     997.6    NA       0.0000   9999     0     0     0    
2019/07/25  07:13:00  BASE  1.33476  93   2.81064  68   -8.0  60    -14.4 0     0     997.5    NA       0.0000   9999     21420 0     0    
2019/07/25  07:14:00  BASE  1.14072  87   2.38728  70   -7.9  60    -14.3 0     0     997.4    NA       0.0000   9999     0     0     0    
2019/07/25  07:15:00  BASE  0.54684  103  2.24028  79   -7.8  60    -14.2 0     0     997.3    NA       0.0000   9999     0     0     0    
2019/07/25  07:16:00  BASE  0.30576  128  2.24028  79   -7.6  59    -14.2 0     0     997.1    NA       0.0000   9999     16370 0     0    
2019/07/25  07:17:00  BASE  0.74088  110  2.0874   109  -7.5  59    -14.2 0     0     997.2    NA       0.0000   9999     16340 0     0    
2019/07/25  07:18:00  BASE  0.58212  114  2.0874   109  -7.5  58    -14.3 0     0     997.1    NA       0.0000   9999     0     0     0    
2019/07/25  07:19:00  BASE  0.62916  236  2.0874   109  -7.6  58    -14.3 0     0     997.1    NA       0.0000   9999     0     0     0    
2019/07/25  07:20:00  BASE  1.25244  258  2.0874   109  -7.7  59    -14.4 0     0     997.1    NA       0.0000   9999     0     0     0    
2019/07/25  07:21:00  BASE  1.21128  262  2.0874   109  -7.8  59    -14.4 0     0     997.1    NA       0.0000   9999     0     0     0    
2019/07/25  07:22:00  BASE  1.09956  298  2.0874   109  -8.0  60    -14.4 0     0     997.1    NA       0.0000   9999     21260 0     0    
2019/07/25  07:23:00  BASE  1.37004  331  2.0874   109  -8.0  61    -14.3 0     0     997.1    NA       0.0000   9999     21100 0     0    
2019/07/25  07:24:00  BASE  1.50528  341  2.0874   109  -8.0  61    -14.2 0     0     997.1    NA       0.0000   9999     21360 0     0    
2019/07/25  07:25:00  BASE  1.21716  332  2.0874   109  -8.0  62    -14.0 0     0     997.0    NA       0.0000   9999     16180 21560 0    
2019/07/25  07:26:00  BASE  0.60564  328  2.0874   109  -7.9  62    -13.8 0     0     997.0    NA       0.0000   9999     16210 0     0    
2019/07/25  07:27:00  BASE  0.6174   31   1.90512  326  -7.8  63    -13.6 0     0     996.9    NA       0.0000   9999     16240 0     0    
2019/07/25  07:28:00  BASE  1.2642   62   2.42256  51   -7.8  63    -13.5 0     0     996.8    NA       0.0000   9999     8070  16500 21690
2019/07/25  07:29:00  BASE  2.5284   86   5.53308  79   -7.7  64    -13.4 0     0     996.8    NA       0.0000   9999     8200  16440 21650
2019/07/25  07:30:00  BASE  4.66872  93   7.2618   85   -7.6  64    -13.3 0     0     996.7    NA       0.0000   9999     8140  21360 0    
2019/07/25  07:31:00  BASE  5.20968  77   7.2618   85   -7.5  64    -13.2 0     0     996.7    NA       0.0000   9999     8200  21420 0    
2019/07/25  07:32:00  BASE  4.02192  61   7.2618   85   -7.5  64    -13.2 0     0     996.7    NA       0.0000   9999     8240  21590 0    
2019/07/25  07:33:00  BASE  3.9102   67   7.2618   85   -7.5  64    -13.1 0     0     996.7    NA       0.0000   9999     8200  16410 0    
2019/07/25  07:34:00  BASE  5.07444  101  7.2618   85   -7.4  64    -13.0 0     0     996.6    NA       0.0000   9999     8500  16440 0    
2019/07/25  07:35:00  BASE  5.92116  126  7.2618   85   -7.3  65    -12.8 0     0     996.5    NA       0.0000   9999     8400  16340 0    
2019/07/25  07:36:00  BASE  5.4978   138  7.2618   85   -7.2  65    -12.6 0     0     996.5    NA       0.0000   9999     8460  10930 0    
2019/07/25  07:37:00  BASE  4.74516  148  7.2618   85   -7.0  66    -12.3 0     0     996.6    NA       0.0000   9999     8430  11020 0    
2019/07/25  07:38:00  BASE  4.39236  153  7.2618   85   -6.8  66    -12.2 0     0     996.5    NA       0.0000   9999     10930 0     0    
2019/07/25  07:39:00  BASE  3.60444  143  7.2618   85   -6.8  66    -12.1 0     0     996.6    NA       0.0000   9999     7780  0     0    
2019/07/25  07:40:00  BASE  2.75772  135  6.65616  134  -6.7  66    -12.1 0     0     996.6    NA       0.0000   9999     8270  0     0    
2019/07/25  07:41:00  BASE  2.47548  130  6.65616  134  -6.8  66    -12.1 0     0     996.7    NA       0.0000   9999     8140  0     0    
2019/07/25  07:42:00  BASE  2.05212  121  6.65616  134  -6.8  66    -12.2 0     0     996.7    NA       0.0000   9999     7810  0     0    
2019/07/25  07:43:00  BASE  1.69932  122  6.65616  134  -6.8  66    -12.1 0     0     996.7    NA       0.0000   9999     0     0     0    
2019/07/25  07:44:00  BASE  1.89924  127  6.65616  134  -6.7  65    -12.2 0     0     996.7    NA       0.0000   9999     0     0     0    
2019/07/25  07:45:00  BASE  2.10504  131  5.41548  140  -6.7  65    -12.2 0     0     996.6    NA       0.0000   9999     8960  0     0    
2019/07/25  07:46:00  BASE  2.14032  142  4.83924  155  -6.7  64    -12.3 0     0     996.6    NA       0.0000   9999     8660  0     0    
2019/07/25  07:47:00  BASE  2.06388  147  4.53936  152  -6.8  64    -12.4 0     0     996.6    NA       0.0000   9999     8730  0     0    
2019/07/25  07:48:00  BASE  2.13444  146  3.48096  153  -6.8  64    -12.5 0     0     996.5    NA       0.0000   9999     8730  0     0    
2019/07/25  07:49:00  BASE  2.1756   147  2.81064  129  -6.9  64    -12.6 0     0     996.4    NA       0.0000   9999     0     0     0    
2019/07/25  07:50:00  BASE  2.15796  143  2.78124  146  -7.0  64    -12.6 0     0     996.4    NA       0.0000   9999     0     0     0    
2019/07/25  07:51:00  BASE  2.24616  142  2.78124  146  -7.0  64    -12.6 0     0     996.4    NA       0.0000   9999     0     0     0    
2019/07/25  07:52:00  BASE  2.19912  137  2.78124  146  -7.1  65    -12.6 0     0     996.4    NA       0.0000   9999     0     0     0    
2019/07/25  07:53:00  BASE  1.87572  136  2.78124  146  -7.0  65    -12.6 0     0     996.4    NA       0.0000   9999     0     0     0    
2019/07/25  07:54:00  BASE  1.33476  142  2.78124  146  -6.9  65    -12.5 0     0     996.3    NA       0.0000   9999     0     0     0    
2019/07/25  07:55:00  BASE  1.48764  135  2.78124  146  -6.8  64    -12.5 0     0     996.3    NA       0.0000   9999     0     0     0    
2019/07/25  07:56:00  BASE  2.16972  122  2.78124  146  -6.7  63    -12.5 0     0     996.3    NA       0.0000   9999     0     0     0    
2019/07/25  07:57:00  BASE  2.33436  116  3.72204  101  -6.7  63    -12.6 0     0     996.2    NA       0.0000   9999     0     0     0    
2019/07/25  07:58:00  BASE  3.23988  114  4.83924  103  -6.6  62    -12.6 0     0     996.1    NA       0.0000   9999     0     0     0    
2019/07/25  07:59:00  BASE  5.66832  108  7.80276  102  -6.5  62    -12.6 0     0     996.0    NA       0.0000   9999     0     0     0    
2019/07/25  08:00:00  BASE  6.80316  106  7.80276  102  -6.6  62    -12.6 0     0     996.0    NA       0.0000   9999     0     0     0    
2019/07/25  08:01:00  BASE  6.59148  112  7.80276  102  -6.5  63    -12.4 0     0     995.9    NA       0.0000   9999     0     0     0    
2019/07/25  08:02:00  BASE  6.45036  119  7.80276  102  -6.5  64    -12.2 0     0     995.9    NA       0.0000   9999     0     0     0    
2019/07/25  08:03:00  BASE  6.31512  120  7.80276  102  -6.5  65    -12.1 0     0     995.8    NA       0.0000   9999     0     0     0    
2019/07/25  08:04:00  BASE  5.98584  122  7.80276  102  -6.5  66    -11.8 0     0     995.8    NA       0.0000   9999     11320 0     0    
2019/07/25  08:05:00  BASE  5.73888  125  7.80276  102  -6.4  66    -11.7 0     0     995.8    NA       0.0000   9999     11220 0     0    
2019/07/25  08:06:00  BASE  5.71536  129  7.80276  102  -6.3  67    -11.5 0     0     995.8    NA       0.0000   9999     10630 0     0    
2019/07/25  08:07:00  BASE  5.48016  133  7.80276  102  -6.3  67    -11.4 0     0     995.8    NA       0.0000   9999     9940  0     0    
2019/07/25  08:08:01  BASE  5.00976  134  7.80276  102  -6.3  67    -11.4 0     0     995.8    NA       0.0000   9999     9650  0     0    
2019/07/25  08:09:01  BASE  4.66284  137  7.13832  122  -6.3  68    -11.3 0     0     995.9    NA       0.0000   9999     9510  0     0    
2019/07/25  08:10:00  BASE  4.41588  139  6.92664  118  -6.3  68    -11.3 0     0     995.9    NA       0.0000   9999     9450  0     0    
2019/07/25  08:11:01  BASE  4.25712  135  6.92664  118  -6.3  68    -11.3 0     0     995.9    NA       0.0000   9999     8200  0     0    
2019/07/25  08:12:01  BASE  4.38648  136  6.92664  118  -6.3  68    -11.3 0     0     995.9    NA       0.0000   9999     7710  0     0    
2019/07/25  08:13:00  BASE  4.05132  142  6.47388  124  -6.2  68    -11.2 0     0     995.9    NA       0.0000   9999     7220  0     0    
2019/07/25  08:14:00  BASE  4.13364  144  6.321    122  -6.2  68    -11.1 0     0     995.8    NA       0.0000   9999     6920  0     0    
2019/07/25  08:15:00  BASE  4.79808  146  6.02112  147  -6.1  68    -11.1 0     0     995.8    NA       0.0000   9999     6760  0     0    
2019/07/25  08:16:00  BASE  4.9392   150  6.02112  147  -6.0  67    -11.1 0     0     995.8    NA       0.0000   9999     7580  0     0    
2019/07/25  08:17:00  BASE  5.00976  152  6.02112  146  -5.9  67    -11.1 0     0     995.7    NA       0.0000   9999     6430  0     0    
2019/07/25  08:18:00  BASE  4.88628  154  6.02112  146  -5.9  67    -11.1 0     0     995.7    NA       0.0000   9999     6730  0     0    
2019/07/25  08:19:00  BASE  5.05092  154  6.41508  154  -5.8  67    -11.1 0     0     995.6    NA       0.0000   9999     9090  0     0    
2019/07/25  08:20:00  BASE  5.95056  151  7.2618   151  -5.8  67    -11.0 0     0     995.6    NA       0.0000   9999     6660  0     0    
2019/07/25  08:21:00  BASE  6.7914   147  8.3202   146  -5.8  67    -11.0 0     0     995.5    NA       0.0000   9999     6990  0     0    
2019/07/25  08:22:01  BASE  7.78512  143  9.10224  131  -5.8  67    -11.0 0     0     995.4    NA       0.0000   9999     7090  0     0    
2019/07/25  08:23:01  BASE  8.83176  136  9.59028  131  -5.8  67    -11.0 0     0     995.3    NA       0.0000   9999     7050  0     0    
2019/07/25  08:24:01  BASE  9.01404  132  9.67848  131  -5.9  67    -11.1 0     0     995.4    NA       0.0000   9999     7020  0     0    
2019/07/25  08:25:01  BASE  8.66124  127  10.1312  119  -5.9  67    -11.1 0     0     995.4    NA       0.0000   9999     6920  0     0    
2019/07/25  08:26:01  BASE  8.51424  118  10.1665  112  -6.0  67    -11.1 0     0     995.3    NA       0.0000   9999     7220  0     0    
2019/07/25  08:27:01  BASE  8.1438   117  10.1665  112  -6.0  67    -11.2 0     0     995.3    NA       0.0000   9999     7280  0     0    
2019/07/25  08:28:01  BASE  7.34412  115  10.1665  112  -5.9  66    -11.2 0     0     995.4    NA       0.0000   9999     7350  8790  0    
2019/07/25  08:29:01  BASE  7.16772  111  10.1665  112  -5.8  65    -11.3 0     0     995.4    NA       0.0000   9999     7320  0     0    
2019/07/25  08:30:01  BASE  7.71456  115  10.1665  112  -5.8  64    -11.4 0     0     995.3    NA       0.0000   9999     7510  0     0    
2019/07/25  08:31:01  BASE  7.1148   115  10.1665  112  -5.8  64    -11.5 0     0     995.3    NA       0.0000   9999     7510  0     0    
2019/07/25  08:32:01  BASE  6.027    111  10.1665  112  -5.8  64    -11.5 0     0     995.3    NA       0.0000   9999     7320  0     0    
2019/07/25  08:33:01  BASE  6.00936  114  10.1665  112  -5.8  64    -11.5 0     0     995.3    NA       0.0000   9999     7280  0     0    
2019/07/25  08:34:01  BASE  6.22104  120  10.1665  112  -5.8  65    -11.4 0     0     995.3    NA       0.0000   9999     7250  0     0    
2019/07/25  08:35:01  BASE  6.1446   124  10.1665  112  -5.8  65    -11.3 0     0     995.3    NA       0.0000   9999     7350  0     0    
2019/07/25  08:36:01  BASE  5.733    127  8.92584  122  -5.8  65    -11.3 0     0     995.3    NA       0.0000   9999     7580  0     0    
2019/07/25  08:37:00  BASE  5.58012  124  8.4672   116  -5.8  65    -11.3 0     0     995.3    NA       0.0000   9999     7610  0     0    
2019/07/25  08:38:00  BASE  5.59776  118  8.4672   116  -5.8  65    -11.2 0     0     995.3    NA       0.0000   9999     7610  0     0    
2019/07/25  08:39:00  BASE  5.35668  117  8.4672   116  -5.8  66    -11.2 0     0     995.3    NA       0.0000   9999     7510  0     0    
2019/07/25  08:40:00  BASE  5.22732  115  7.13832  115  -5.8  66    -11.1 0     0     995.3    NA       0.0000   9999     7420  0     0    
2019/07/25  08:41:00  BASE  5.1744   114  7.10892  119  -5.8  67    -11.0 0     0     995.2    NA       0.0000   9999     7250  0     0    
2019/07/25  08:42:00  BASE  4.55112  115  7.10892  119  -5.8  67    -10.9 0     0     995.1    NA       0.0000   9999     7280  0     0    
2019/07/25  08:43:00  BASE  4.116    111  6.68556  125  -5.8  67    -10.9 0     0     995.1    NA       0.0000   9999     7280  0     0    
2019/07/25  08:44:00  BASE  4.12776  111  6.68556  125  -5.8  67    -10.9 0     0     995.1    NA       0.0000   9999     7280  0     0    
2019/07/25  08:45:00  BASE  3.62796  120  6.13872  118  -5.8  67    -10.9 0     0     995.1    NA       0.0000   9999     7220  0     0    
2019/07/25  08:46:00  BASE  3.087    121  6.07992  119  -5.8  67    -10.8 0     0     995.0    NA       0.0000   9999     7280  0     0    
2019/07/25  08:47:00  BASE  2.78712  120  5.86824  115  -5.8  67    -10.8 0     0     994.9    NA       0.0000   9999     7190  0     0    
2019/07/25  08:48:00  BASE  2.58132  137  5.68596  112  -5.7  67    -10.8 0     0     994.8    NA       0.0000   9999     7050  0     0    
2019/07/25  08:49:00  BASE  1.9698   152  5.68596  112  -5.7  67    -10.9 0     0     994.8    NA       0.0000   9999     7020  0     0    
2019/07/25  08:50:00  BASE  1.37004  161  5.68596  112  -5.7  66    -10.9 0     0     994.8    NA       0.0000   9999     7090  0     0    
2019/07/25  08:51:00  BASE  1.07016  159  4.59816  110  -5.7  66    -10.9 0     0     994.9    NA       0.0000   9999     7050  0     0    
2019/07/25  08:52:00  BASE  0.94668  140  4.59816  110  -5.7  67    -10.9 0     0     994.9    NA       0.0000   9999     7090  0     0    
2019/07/25  08:53:00  BASE  1.0878   133  4.2336   113  -5.7  67    -10.8 0     0     994.8    NA       0.0000   9999     6960  0     0    
2019/07/25  08:54:00  BASE  1.34652  140  3.72204  134  -5.8  68    -10.8 0     0     994.8    NA       0.0000   9999     6960  0     0    
2019/07/25  08:55:00  BASE  1.617    152  3.02232  118  -5.8  68    -10.7 0     0     994.7    NA       0.0000   9999     7090  0     0    
2019/07/25  08:56:00  BASE  1.60524  156  2.93412  134  -5.8  68    -10.7 0     0     994.7    NA       0.0000   9999     6860  0     0    
2019/07/25  08:57:00  BASE  1.2936   152  2.84592  143  -5.8  69    -10.7 0     0     994.7    NA       0.0000   9999     6820  0     0    
2019/07/25  08:58:01  BASE  1.38768  169  2.058    189  -5.9  69    -10.7 0     0     994.5    NA       0.0000   9999     7970  0     0    
2019/07/25  08:59:01  BASE  1.76988  180  2.1756   186  -5.9  69    -10.7 0     0     994.5    NA       0.0000   9999     6790  0     0    
2019/07/25  09:00:01  BASE  1.69344  165  2.1756   186  -5.9  69    -10.7 0     0     994.6    NA       0.0000   9999     6920  0     0    
2019/07/25  09:01:01  BASE  1.45824  163  2.1756   186  -5.9  69    -10.7 0     0     994.5    NA       0.0000   9999     7640  0     0    
2019/07/25  09:02:01  BASE  1.37592  171  2.1756   186  -6.0  69    -10.7 0     0     994.5    NA       0.0000   9999     7710  0     0    
2019/07/25  09:03:01  BASE  1.2936   173  2.1756   186  -6.0  70    -10.7 0     0     994.4    NA       0.0000   9999     7610  0     0    
2019/07/25  09:04:01  BASE  1.28184  175  2.1756   186  -6.1  70    -10.6 0     0     994.3    NA       0.0000   9999     7640  0     0    
2019/07/25  09:05:01  BASE  1.4112   172  2.1756   186  -6.1  71    -10.5 0     0     994.2    NA       0.0000   9999     7450  0     0    
2019/07/25  09:06:01  BASE  1.56408  158  2.1756   186  -6.1  71    -10.5 0     0     994.1    NA       0.0000   9999     7740  0     0    
2019/07/25  09:07:01  BASE  1.91688  145  2.35788  138  -6.1  71    -10.5 0     0     994.1    NA       0.0000   9999     7680  0     0    
2019/07/25  09:08:01  BASE  2.15208  136  3.02232  113  -6.1  71    -10.4 0     0     994.1    NA       0.0000   9999     7710  0     0    
2019/07/25  09:09:01  BASE  2.16384  134  3.02232  113  -6.0  71    -10.4 0     0     994.0    NA       0.0000   9999     7680  0     0    
2019/07/25  09:10:01  BASE  2.42844  131  3.2046   136  -6.0  71    -10.3 0     0     993.9    NA       0.0000   9999     7380  0     0    
2019/07/25  09:11:01  BASE  2.5578   121  3.2046   136  -5.9  71    -10.3 0     0     993.9    NA       0.0000   9999     7450  0     0    
2019/07/25  09:12:01  BASE  3.234    115  4.96272  117  -5.8  70    -10.4 0     0     993.8    NA       0.0000   9999     7550  0     0    
2019/07/25  09:13:01  BASE  4.31004  120  5.2332   119  -5.8  69    -10.5 0     0     993.8    NA       0.0000   9999     7640  0     0    
2019/07/25  09:14:01  BASE  4.3806   130  5.2332   119  -5.7  68    -10.6 0     0     993.7    NA       0.0000   9999     7640  0     0    
2019/07/25  09:15:01  BASE  3.7632   135  5.2332   119  -5.7  67    -10.7 0     0     993.7    NA       0.0000   9999     7840  0     0    
2019/07/25  09:16:01  BASE  3.38688  134  5.2332   119  -5.6  67    -10.8 0     0     993.7    NA       0.0000   9999     7870  0     0    
2019/07/25  09:17:00  BASE  3.32808  135  5.2332   119  -5.6  67    -10.8 0     0     993.6    NA       0.0000   9999     7580  0     0    
2019/07/25  09:18:00  BASE  2.98704  146  5.2332   119  -5.6  67    -10.8 0     0     993.6    NA       0.0000   9999     6730  0     0    
2019/07/25  09:19:00  BASE  2.5872   139  5.2332   119  -5.6  67    -10.8 0     0     993.7    NA       0.0000   9999     7510  0     0    
2019/07/25  09:20:00  BASE  2.3226   128  5.2332   119  -5.6  67    -10.7 0     0     993.6    NA       0.0000   9999     7480  0     0    
2019/07/25  09:21:00  BASE  1.9992   145  5.2332   119  -5.6  67    -10.7 0     0     993.5    NA       0.0000   9999     7190  0     0    
2019/07/25  09:22:00  BASE  2.07564  149  5.2332   119  -5.5  67    -10.7 0     0     993.6    NA       0.0000   9999     6370  0     0    
2019/07/25  09:23:00  BASE  2.45784  136  4.59816  132  -5.5  67    -10.7 0     0     993.6    NA       0.0000   9999     6400  0     0    
2019/07/25  09:24:00  BASE  2.75772  131  3.62796  131  -5.6  67    -10.7 0     0     993.5    NA       0.0000   9999     7120  0     0    
2019/07/25  09:25:00  BASE  2.8224   127  3.62796  131  -5.6  67    -10.7 0     0     993.5    NA       0.0000   9999     6590  0     0    
2019/07/25  09:26:00  BASE  2.58132  125  3.62796  131  -5.6  67    -10.7 0     0     993.5    NA       0.0000   9999     6370  0     0    
2019/07/25  09:27:00  BASE  2.8224   126  3.53976  130  -5.6  67    -10.7 0     0     993.4    NA       0.0000   9999     6690  0     0    
2019/07/25  09:28:00  BASE  3.39276  131  3.90432  126  -5.5  67    -10.8 0     0     993.4    NA       0.0000   9999     6560  0     0    
2019/07/25  09:29:00  BASE  3.68088  131  4.08072  122  -5.5  66    -10.8 0     0     993.4    NA       0.0000   9999     6500  0     0    
2019/07/25  09:30:00  BASE  3.65736  128  4.116    133  -5.5  66    -10.9 0     0     993.4    NA       0.0000   9999     6330  0     0    
2019/07/25  09:31:00  BASE  3.86904  124  4.41588  119  -5.4  66    -10.9 0     0     993.4    NA       0.0000   9999     6730  0     0    
2019/07/25  09:32:01  BASE  4.99212  116  7.2618   105  -5.4  66    -10.9 0     0     993.3    NA       0.0000   9999     6730  0     0    
2019/07/25  09:33:01  BASE  6.25044  106  7.2618   105  -5.4  66    -10.8 0     0     993.3    NA       0.0000   9999     6790  0     0    
2019/07/25  09:34:01  BASE  6.84432  99   7.89684  92   -5.4  66    -10.8 0     0     993.3    NA       0.0000   9999     6690  0     0    
2019/07/25  09:35:01  BASE  6.70908  101  7.89684  92   -5.4  66    -10.7 0     0     993.2    NA       0.0000   9999     6630  0     0    
2019/07/25  09:36:01  BASE  6.2328   104  7.89684  92   -5.4  66    -10.7 0     0     993.2    NA       0.0000   9999     6530  0     0    
2019/07/25  09:37:00  BASE  5.66244  107  7.89684  92   -5.4  66    -10.7 0     0     993.1    NA       0.0000   9999     6590  0     0    
2019/07/25  09:38:00  BASE  5.71536  109  7.89684  92   -5.4  66    -10.7 0     0     992.9    NA       0.0000   9999     6690  0     0    
2019/07/25  09:39:00  BASE  6.59148  112  7.89684  92   -5.4  66    -10.7 0     0     992.9    NA       0.0000   9999     6560  0     0    
2019/07/25  09:40:00  BASE  7.39704  115  8.3202   113  -5.3  66    -10.7 0     0     992.7    NA       0.0000   9999     6530  0     0    
2019/07/25  09:41:00  BASE  8.085    123  8.92584  119  -5.3  66    -10.6 0     0     992.6    NA       0.0000   9999     6730  0     0    
2019/07/25  09:42:00  BASE  7.87332  129  8.92584  119  -5.2  66    -10.6 0     0     992.6    NA       0.0000   9999     6760  0     0    
2019/07/25  09:43:01  BASE  7.09716  133  8.92584  119  -5.2  66    -10.6 0     0     992.7    NA       0.0000   9999     6790  0     0    
2019/07/25  09:44:01  BASE  6.5562   135  8.92584  119  -5.1  65    -10.6 0     0     992.7    NA       0.0000   9999     6990  0     0    
2019/07/25  09:45:01  BASE  6.19752  133  8.92584  119  -5.0  65    -10.6 0     0     992.6    NA       0.0000   9999     6890  0     0    
2019/07/25  09:46:01  BASE  5.54484  133  8.92584  119  -5.0  64    -10.7 0     0     992.7    NA       0.0000   9999     6920  0     0    
2019/07/25  09:47:01  BASE  4.9098   129  8.92584  119  -5.0  64    -10.7 0     0     992.6    NA       0.0000   9999     6960  0     0    
2019/07/25  09:48:01  BASE  4.95684  125  8.92584  119  -5.0  64    -10.8 0     0     992.5    NA       0.0000   9999     6990  0     0    
2019/07/25  09:49:01  BASE  5.03328  121  8.92584  119  -5.0  64    -10.8 0     0     992.4    NA       0.0000   9999     6960  0     0    
2019/07/25  09:50:01  BASE  4.77456  122  8.92584  119  -5.0  64    -10.7 0     0     992.4    NA       0.0000   9999     7150  0     0    
2019/07/25  09:51:01  BASE  4.62756  130  7.86744  136  -5.0  64    -10.7 0     0     992.3    NA       0.0000   9999     7220  0     0    
2019/07/25  09:52:01  BASE  4.86864  130  7.47348  139  -5.0  65    -10.6 0     0     992.3    NA       0.0000   9999     7190  0     0    
2019/07/25  09:53:01  BASE  5.2626   123  7.07952  130  -5.0  65    -10.6 0     0     992.2    NA       0.0000   9999     7190  0     0    
2019/07/25  09:54:01  BASE  5.45076  119  6.86784  135  -5.1  65    -10.5 0     0     992.2    NA       0.0000   9999     7150  0     0    
2019/07/25  09:55:01  BASE  4.99212  119  6.41508  115  -5.1  66    -10.5 0     0     992.2    NA       0.0000   9999     7280  0     0    
2019/07/25  09:56:00  BASE  5.05092  117  6.74436  109  -5.1  66    -10.5 0     0     992.1    NA       0.0000   9999     7050  0     0    
2019/07/25  09:57:00  BASE  6.26808  109  7.83216  100  -5.1  66    -10.5 0     0     992.0    NA       0.0000   9999     7120  0     0    
2019/07/25  09:58:00  BASE  7.40292  107  8.4672   108  -5.2  67    -10.4 0     0     991.9    NA       0.0000   9999     7020  0     0    
2019/07/25  09:59:00  BASE  8.23788  116  9.83136  119  -5.2  67    -10.4 0     0     991.8    NA       0.0000   9999     7120  0     0    
2019/07/25  10:00:00  BASE  8.83176  115  10.2547  117  -5.2  67    -10.3 0     0     991.8    NA       0.0000   9999     6920  0     0    
2019/07/25  10:01:00  BASE  9.12576  119  10.2547  117  -5.1  68    -10.2 0     0     991.7    NA       0.0000   9999     7020  0     0    
2019/07/25  10:02:00  BASE  9.47856  129  10.6781  133  -5.1  67    -10.2 0     0     991.6    NA       0.0000   9999     6920  0     0    
2019/07/25  10:03:00  BASE  9.41976  126  10.6781  133  -4.9  67    -10.1 0     0     991.7    NA       0.0000   9999     7050  0     0    
2019/07/25  10:04:01  BASE  8.91996  117  10.6781  133  -4.8  67    -10.1 0     0     991.6    NA       0.0000   9999     7090  0     0    
2019/07/25  10:05:01  BASE  8.50248  111  10.6781  133  -4.8  67    -10.0 0     0     991.6    NA       0.0000   9999     6990  0     0    
2019/07/25  10:06:01  BASE  8.07912  109  10.6781  133  -4.7  67    -10.0 0     0     991.5    NA       0.0000   9999     6990  0     0    
2019/07/25  10:07:00  BASE  7.7616   105  10.6781  133  -4.7  67    -9.9  0     0     991.6    NA       0.0000   9999     6990  0     0    
2019/07/25  10:08:00  BASE  6.71496  96   10.6781  133  -4.7  67    -9.9  0     0     991.6    NA       0.0000   9999     7120  0     0    
2019/07/25  10:09:00  BASE  5.4978   88   10.6781  133  -4.7  67    -9.9  0     0     991.6    NA       0.0000   9999     7350  0     0    
2019/07/25  10:10:00  BASE  6.05052  88   10.6781  133  -4.6  67    -9.9  0     0     991.7    NA       0.0000   9999     7320  0     0    
2019/07/25  10:11:00  BASE  7.2912   92   10.6781  133  -4.6  66    -9.9  0     0     991.7    NA       0.0000   9999     7550  0     0    
2019/07/25  10:12:00  BASE  7.30296  97   9.64908  126  -4.6  66    -9.9  0     0     991.7    NA       0.0000   9999     7350  0     0    
2019/07/25  10:13:00  BASE  6.83844  108  9.04344  113  -4.6  66    -10.0 0     0     991.7    NA       0.0000   9999     7350  0     0    
2019/07/25  10:14:00  BASE  6.98544  117  8.95524  113  -4.6  66    -10.0 0     0     991.7    NA       0.0000   9999     6070  7380  0    
2019/07/25  10:15:00  BASE  8.00856  117  9.59028  115  -4.6  66    -10.0 0     0     991.6    NA       0.0000   9999     5810  0     0    
2019/07/25  10:16:00  BASE  8.5554   118  9.86076  116  -4.6  66    -10.0 0     0     991.4    NA       0.0000   9999     7350  0     0    
2019/07/25  10:17:00  BASE  7.39704  124  9.86076  116  -4.6  66    -10.0 0     0     991.3    NA       0.0000   9999     7450  0     0    
2019/07/25  10:18:00  BASE  6.80904  123  9.86076  116  -4.6  66    -9.9  0     0     991.3    NA       0.0000   9999     7320  0     0    
2019/07/25  10:19:00  BASE  7.32648  120  9.86076  116  -4.6  67    -9.9  0     0     991.3    NA       0.0000   9999     7380  0     0    
2019/07/25  10:20:00  BASE  7.59108  120  9.86076  116  -4.6  67    -9.8  0     0     991.3    NA       0.0000   9999     7320  0     0    
2019/07/25  10:21:00  BASE  8.24376  118  12.495   116  -4.5  67    -9.7  0     0     991.3    NA       0.0000   9999     7380  0     0    
2019/07/25  10:22:00  BASE  9.66672  113  12.495   116  -4.5  67    -9.7  0     0     991.3    NA       0.0000   9999     7320  0     0    
2019/07/25  10:23:00  BASE  10.5958  113  12.495   116  -4.5  67    -9.7  0     0     991.1    NA       0.0000   9999     7050  0     0    
2019/07/25  10:24:01  BASE  10.4723  117  12.495   116  -4.6  68    -9.6  0     0     991.0    NA       0.0000   9999     7220  0     0    
2019/07/25  10:25:01  BASE  10.043   118  12.495   116  -4.7  69    -9.6  0     0     991.0    NA       0.0000   9999     7050  0     0    
2019/07/25  10:26:01  BASE  9.57264  115  12.495   116  -4.8  70    -9.4  0     0     991.1    NA       0.0000   9999     6500  0     0    
2019/07/25  10:27:01  BASE  8.62596  115  12.495   116  -4.8  71    -9.3  0     0     991.1    NA       0.0000   9999     6690  0     0    
2019/07/25  10:28:01  BASE  8.50248  119  12.495   116  -4.7  71    -9.1  0     0     991.0    NA       0.0000   9999     6890  0     0    
2019/07/25  10:29:01  BASE  9.69612  116  12.495   116  -4.5  71    -8.9  0     0     991.1    NA       0.0000   9999     5970  6920  0    
2019/07/25  10:30:01  BASE  9.60204  112  12.495   116  -4.3  70    -8.9  0     0     991.0    NA       0.0000   9999     6820  0     0    
2019/07/25  10:31:01  BASE  8.03208  118  12.0364  113  -4.3  70    -9.0  0     0     990.9    NA       0.0000   9999     6890  0     0    
2019/07/25  10:32:01  BASE  7.30884  124  12.0364  113  -4.2  69    -9.1  0     0     990.9    NA       0.0000   9999     6960  0     0    
2019/07/25  10:33:01  BASE  8.01444  118  11.4013  111  -4.3  69    -9.2  0     0     990.9    NA       0.0000   9999     7150  0     0    
2019/07/25  10:34:01  BASE  9.17868  113  11.4013  111  -4.3  69    -9.1  0     0     990.9    NA       0.0000   9999     7190  0     0    
2019/07/25  10:35:01  BASE  9.2904   113  11.4013  111  -4.4  70    -9.0  0     0     991.0    NA       0.0000   9999     7050  0     0    
2019/07/25  10:36:01  BASE  8.89644  116  11.4013  111  -4.3  71    -8.9  0     0     991.0    NA       0.0000   9999     7150  0     0    
2019/07/25  10:37:01  BASE  9.04344  112  11.4013  111  -4.3  71    -8.7  0     0     991.1    NA       0.0000   9999     7190  0     0    
2019/07/25  10:38:01  BASE  9.26688  113  11.4013  111  -4.2  72    -8.6  0     0     990.9    NA       0.0000   9999     7250  0     0    
2019/07/25  10:39:01  BASE  9.6138   117  11.1014  118  -4.2  72    -8.6  0     0     990.9    NA       0.0000   9999     7480  0     0    
2019/07/25  10:40:00  BASE  9.9078   113  11.1014  118  -4.2  72    -8.5  0     0     991.0    NA       0.0000   9999     5410  0     0    
2019/07/25  10:41:00  BASE  9.86664  114  12.3127  113  -4.3  72    -8.5  0     0     991.0    NA       0.0000   9999     5480  7380  0    
2019/07/25  10:42:00  BASE  11.3954  117  15.0058  116  -4.3  72    -8.5  0     0     990.9    NA       0.0000   9999     5480  7450  0    
2019/07/25  10:43:00  BASE  12.6244  112  15.0058  116  -4.4  73    -8.6  0     0     990.9    NA       0.0000   9999     7350  0     0    
2019/07/25  10:44:00  BASE  11.4248  115  15.0058  116  -4.5  73    -8.6  0     0     990.8    NA       0.0000   9999     7350  0     0    
2019/07/25  10:45:00  BASE  10.1489  121  15.0058  116  -4.6  73    -8.7  0     0     990.8    NA       0.0000   9999     7320  0     0    
2019/07/25  10:46:00  BASE  9.5256   120  15.0058  116  -4.7  73    -8.8  0     0     990.9    NA       0.0000   9999     5480  7280  0    
2019/07/25  10:47:00  BASE  8.967    123  15.0058  116  -4.8  73    -8.9  0     0     990.9    NA       0.0000   9999     5450  0     0    
2019/07/25  10:48:00  BASE  8.57892  128  15.0058  116  -4.9  74    -8.8  0     0     990.9    NA       0.0000   9999     5480  7190  0    
2019/07/25  10:49:00  BASE  8.32608  122  15.0058  116  -4.9  74    -8.8  0     0     990.8    NA       0.0000   9999     5450  0     0    
2019/07/25  10:50:00  BASE  8.9376   118  15.0058  116  -4.8  75    -8.6  0     0     990.8    NA       0.0000   9999     5540  7220  0    
2019/07/25  10:51:00  BASE  8.77296  122  15.0058  116  -4.8  75    -8.5  0     0     990.7    NA       0.0000   9999     7120  0     0    
2019/07/25  10:52:00  BASE  8.10264  125  13.1006  106  -4.6  76    -8.2  0     0     990.7    NA       0.0000   9999     7120  0     0    
2019/07/25  10:53:00  BASE  8.12028  116  12.1598  113  -4.5  76    -8.0  0     0     990.8    NA       0.0000   -SN      9999  6370  0    
2019/07/25  10:54:00  BASE  7.81452  112  11.2837  123  -4.3  76    -7.9  0     0     990.8    NA       0.0000   9999     6760  0     0    
2019/07/25  10:55:00  BASE  8.19672  122  11.2837  123  -4.1  75    -7.8  0     0     990.6    NA       0.0000   9999     6960  0     0    
2019/07/25  10:56:00  BASE  8.2908   129  11.2837  123  -4.0  74    -7.9  0     0     990.5    NA       0.0000   9999     6860  0     0    
2019/07/25  10:57:00  BASE  7.5852   137  11.2837  123  -4.0  73    -8.0  0     0     990.5    NA       0.0000   9999     6960  0     0    
2019/07/25  10:58:00  BASE  7.38528  137  11.2837  123  -4.0  73    -8.2  0     0     990.6    NA       0.0000   9999     4860  0     0    
2019/07/25  10:59:00  BASE  8.67888  129  11.2837  123  -4.0  72    -8.2  0     0     990.5    NA       0.0000   9999     5580  7250  0    
2019/07/25  11:00:00  BASE  9.17868  128  10.5899  124  -4.1  73    -8.3  0     0     990.4    NA       0.0000   9999     5510  0     0    
2019/07/25  11:01:00  BASE  8.33784  129  10.5899  124  -4.1  73    -8.2  0     0     990.5    NA       0.0000   9999     5610  0     0    
2019/07/25  11:02:00  BASE  7.74396  125  10.5899  124  -4.2  73    -8.2  0     0     990.5    NA       0.0000   9999     5580  0     0    
2019/07/25  11:03:00  BASE  7.82628  122  10.5899  124  -4.2  74    -8.2  0     0     990.5    NA       0.0000   9999     5540  0     0    
2019/07/25  11:04:00  BASE  9.13752  114  11.4954  117  -4.2  74    -8.2  0     0     990.6    NA       0.0000   9999     5540  0     0    
2019/07/25  11:05:00  BASE  9.77256  103  11.4954  117  -4.2  74    -8.2  0     0     990.7    NA       0.0000   9999     5640  0     0    
2019/07/25  11:06:01  BASE  8.77884  107  11.4954  117  -4.2  74    -8.1  0     0     990.5    NA       0.0000   9999     6660  0     0    
2019/07/25  11:07:01  BASE  7.56756  116  11.4954  117  -4.1  74    -8.1  0     0     990.4    NA       0.0000   9999     5450  0     0    
2019/07/25  11:08:01  BASE  6.94428  115  11.4954  117  -4.0  74    -8.0  0     0     990.6    NA       0.0000   9999     5510  0     0    
2019/07/25  11:09:01  BASE  6.4974   123  11.4954  117  -3.9  73    -7.9  0     0     990.6    NA       0.0000   9999     5350  0     0    
2019/07/25  11:10:01  BASE  7.4676   133  11.4954  117  -3.8  73    -7.9  0     0     990.4    NA       0.0000   9999     7090  0     0    
2019/07/25  11:11:01  BASE  8.73768  129  11.4954  117  -3.7  72    -8.0  0     0     990.5    NA       0.0000   9999     5120  0     0    
2019/07/25  11:12:00  BASE  9.9666   122  13.4593  117  -3.7  72    -8.1  0     0     990.5    NA       0.0000   9999     5640  7320  0    
2019/07/25  11:13:00  BASE  10.5781  116  13.4593  117  -3.9  71    -8.3  0     0     990.5    NA       0.0000   9999     5580  0     0    
2019/07/25  11:14:00  BASE  11.2896  110  13.7357  107  -4.1  72    -8.4  0     0     990.6    NA       0.0000   9999     5540  0     0    
2019/07/25  11:15:00  BASE  12.3304  110  15.4585  126  -4.2  72    -8.4  0     0     990.6    NA       0.0000   9999     5480  0     0    
2019/07/25  11:16:00  BASE  11.0956  115  15.4585  126  -4.3  73    -8.4  0     0     990.4    NA       0.0000   -SN      9999  5580  0    
2019/07/25  11:17:00  BASE  10.3606  119  15.4585  126  -4.3  74    -8.2  0     0     990.2    NA       0.0000   -SN      9999  5480  0    
2019/07/25  11:18:00  BASE  10.6075  118  15.4585  126  -4.3  75    -8.1  0     0     990.4    NA       0.0000   -SN      9999  5410  0    
2019/07/25  11:19:00  BASE  10.1136  118  15.4585  126  -4.3  76    -7.9  0     0     990.4    NA       0.0000   -SN      9999  5450  0    
2019/07/25  11:20:00  BASE  9.84312  120  15.4585  126  -4.3  76    -7.9  0     0     990.3    NA       0.0000   -SN      9999  5450  0    
2019/07/25  11:21:00  BASE  10.6075  120  15.4585  126  -4.3  76    -8.0  0     0     990.2    NA       0.0000   -SN      9999  5480  0    
2019/07/25  11:22:00  BASE  11.3954  117  15.4585  126  -4.3  75    -8.0  0     0     990.2    NA       0.0000   -SN      9999  5510  0    
2019/07/25  11:23:00  BASE  11.3249  116  15.4585  126  -4.3  75    -8.0  0     0     990.3    NA       0.0000   -SN      9999  5480  0    
2019/07/25  11:24:00  BASE  10.9133  116  15.4585  126  -4.3  75    -8.0  0     0     990.3    NA       0.0000   -SN      9999  5450  0    
2019/07/25  11:25:00  BASE  10.9427  112  12.7655  105  -4.3  76    -8.0  0     0     990.4    NA       0.0000   -SN      9999  5480  0    
2019/07/25  11:26:00  BASE  11.072   106  12.7655  105  -4.3  76    -7.9  0     0     990.4    NA       0.0000   -SN      9999  5480  0    
2019/07/25  11:27:00  BASE  11.2837  105  12.7655  105  -4.3  76    -7.9  0     0     990.4    NA       0.0000   -SN      9999  5410  0    
2019/07/25  11:28:00  BASE  11.7835  103  13.9121  107  -4.4  76    -7.9  0     0     990.4    NA       0.0000   -SN      9999  5320  0    
2019/07/25  11:29:00  BASE  12.9536  105  14.8823  104  -4.5  77    -7.9  0     0     990.1    NA       0.0000   -SN      8000  5350  0    
2019/07/25  11:30:00  BASE  13.5181  108  14.8823  104  -4.6  77    -8.0  0     0     990.1    NA       0.0000   -SN      6000  5380  0    
2019/07/25  11:31:00  BASE  13.8062  111  15.9995  117  -4.7  78    -8.0  0     0     990.1    NA       0.0000   -SN      6000  5410  0    
2019/07/25  11:32:00  BASE  14.1884  112  16.1818  115  -4.8  78    -7.9  0     0     990.3    NA       0.0000   -SN      6000  5380  0    
2019/07/25  11:33:00  BASE  13.6651  111  16.1818  115  -4.8  79    -7.9  0     0     990.3    NA       0.0000   -SN      4900  5350  0    
2019/07/25  11:34:00  BASE  13.6828  112  16.1818  115  -4.9  80    -7.8  0     0     990.2    NA       0.0000   -SN      5000  5250  0    
2019/07/25  11:35:00  BASE  14.0356  110  16.4228  108  -4.8  80    -7.7  0     0     990.2    NA       0.0000   -SN      4700  5450  0    
2019/07/25  11:36:00  BASE  13.6945  111  16.4228  108  -4.8  81    -7.6  0     0     990.2    NA       0.0000   -SN      4700  5350  0    
2019/07/25  11:37:00  BASE  13.183   116  16.4228  108  -4.8  81    -7.6  0     0     989.9    NA       0.0000   -SN      6000  5450  0    
2019/07/25  11:38:00  BASE  12.7361  115  16.4228  108  -4.8  82    -7.4  0     0     990.1    NA       0.0000   -SN      9000  5350  0    
2019/07/25  11:39:00  BASE  12.4774  110  16.4228  108  -4.8  82    -7.4  0     0     990.0    NA       0.0000   -SN      9999  5220  0    
2019/07/25  11:40:00  BASE  12.9125  112  16.4228  108  -4.8  83    -7.3  0     0     989.8    NA       0.0000   -SN      8000  5320  0    
2019/07/25  11:41:00  BASE  14.3354  113  16.4228  108  -4.7  83    -7.2  0     0     989.6    NA       0.0000   -SN      6000  5970  0    
2019/07/25  11:42:00  BASE  13.9003  112  16.4228  108  -4.7  83    -7.1  0     0     990.0    NA       0.0000   -SN      7000  5050  0    
2019/07/25  11:43:00  BASE  13.3476  115  16.4228  108  -4.7  84    -7.0  0     0     989.7    NA       0.0000   -SN      7000  5280  0    
2019/07/25  11:44:00  BASE  14.012   123  16.4228  108  -4.6  84    -6.9  0     0     989.6    NA       0.0000   -SN      6000  5770  0    
2019/07/25  11:45:00  BASE  12.5244  118  16.1818  117  -4.6  84    -6.8  0     0     989.9    NA       0.0000   -SN      6000  5970  0    
2019/07/25  11:46:00  BASE  12.3362  112  16.1818  117  -4.5  84    -6.8  0     0     989.8    NA       0.0000   -SN      6000  5120  0    
2019/07/25  11:47:00  BASE  14.065   112  16.1818  117  -4.5  85    -6.7  0     0     989.4    NA       0.0000   -SN      BR    5000  5870 
2019/07/25  11:48:00  BASE  14.2708  117  16.1818  117  -4.6  85    -6.7  0     0     989.4    NA       0.0000   -SN      BR    4600  5180 
2019/07/25  11:49:00  BASE  13.6651  121  16.1818  117  -4.7  85    -6.8  0     0     989.7    NA       0.0000   -SN      BR    6000  5410 
2019/07/25  11:50:00  BASE  13.0948  122  16.1818  117  -4.8  85    -6.9  0     0     989.5    NA       0.0000   -SN      BR    6000  5380 
2019/07/25  11:51:00  BASE  12.9478  125  16.0642  119  -4.9  85    -7.0  0     0     989.6    NA       0.0000   -SN      BR    6000  5120 
2019/07/25  11:52:00  BASE  13.3946  116  16.0642  119  -4.9  85    -7.0  0     0     989.7    NA       0.0000   -SN      BR    6000  4430 
2019/07/25  11:53:00  BASE  13.0124  105  16.0642  119  -4.9  85    -7.0  0     0     989.8    NA       0.0000   -SN      BR    5000  5180 
2019/07/25  11:54:00  BASE  12.6361  112  16.0642  119  -4.9  86    -7.0  0     0     989.4    NA       0.0000   -SN      BR    3900  5320 
2019/07/25  11:55:00  BASE  12.742   122  16.0642  119  -4.9  86    -6.9  0     0     989.2    NA       0.0000   -SN      BR    3900  5320 
2019/07/25  11:56:00  BASE  12.7949  117  15.5467  107  -4.9  86    -6.8  0     0     989.3    NA       0.0000   -SN      BR    3900  5150 
2019/07/25  11:57:00  BASE  13.5299  111  17.6341  115  -4.8  86    -6.8  0     0     989.3    NA       0.0000   -SN      BR    3900  5180 
2019/07/25  11:58:00  BASE  14.3942  110  19.0865  111  -4.8  86    -6.7  0     0     989.3    NA       0.0000   -SN      BR    3900  5150 
2019/07/25  11:59:00  BASE  14.0767  105  19.0865  111  -4.8  87    -6.7  0     0     989.4    NA       0.0000   -SN      BR    3700  5120 
2019/07/25  12:00:00  BASE  13.3535  103  19.0865  111  -4.8  87    -6.7  0     0     989.3    NA       0.0000   -SN      BR    3600  5050 
2019/07/25  12:01:00  BASE  13.2065  107  19.0865  111  -4.8  87    -6.7  0     0     989.2    NA       0.0000   -SN      BR    4300  5090 
2019/07/25  12:02:00  BASE  13.8062  115  19.0865  111  -4.9  87    -6.6  0     0     989.0    NA       0.0000   -SN      BR    4600  4890 
2019/07/25  12:03:00  BASE  14.4707  116  19.0865  111  -4.9  88    -6.6  0     0     989.1    NA       0.0000   -SN      BR    4400  5120 
2019/07/25  12:04:00  BASE  16.0171  112  20.8093  112  -4.9  88    -6.6  0     0     988.9    NA       0.0000   -SN      BR    2900  4920 
2019/07/25  12:05:00  BASE  16.5404  112  20.8093  112  -4.9  88    -6.5  0     0     988.9    NA       0.0000   -SN      BR    1800  5090 
2019/07/25  12:06:00  BASE  15.2586  115  20.8093  112  -4.9  88    -6.5  0     0     988.7    NA       0.0000   -SN      BR    1500  5020 
2019/07/25  12:07:00  BASE  14.4942  118  20.8093  112  -5.0  88    -6.6  0     0     988.6    NA       0.0000   -SN      BR    1700  4920 
2019/07/25  12:08:00  BASE  13.8239  112  20.8093  112  -5.0  89    -6.6  0     0     988.7    NA       0.0000   -SN      BR    2000  4100 
2019/07/25  12:09:00  BASE  13.1242  105  20.8093  112  -5.0  89    -6.5  0     0     989.0    NA       0.0000   -SN      BR    2000  4990 
2019/07/25  12:10:00  BASE  12.8125  106  20.8093  112  -5.0  90    -6.4  0     0     988.5    NA       0.0000   -SN      BR    2000  3970 
2019/07/25  12:11:00  BASE  13.8944  109  20.8093  112  -4.9  90    -6.2  0     0     988.2    NA       0.0000   -SN      BR    2000  5020 
2019/07/25  12:12:00  BASE  15.0293  103  20.8093  112  -4.8  91    -6.1  0     0     988.5    NA       0.0000   -SN      BR    2000  4950 
2019/07/25  12:13:00  BASE  16.2758  97   20.8093  112  -4.8  91    -6.0  0     0     988.5    NA       0.0000   -SN      BR    1900  4990 
2019/07/25  12:14:00  BASE  16.4111  103  18.9336  96   -4.8  91    -6.0  0     0     988.4    NA       0.0000   -SN      BR    1700  4890 
2019/07/25  12:15:00  BASE  15.7114  108  18.9336  96   -4.8  91    -6.1  0     0     988.4    NA       0.0000   -SN      BR    1600  4790 
2019/07/25  12:16:00  BASE  16.1994  101  19.9332  96   -4.9  92    -6.1  0     0     988.5    NA       0.0000   -SN      BR    1600  4820 
2019/07/25  12:17:00  BASE  16.1935  95   19.9332  96   -5.0  92    -6.1  0     0     988.6    NA       0.0000   -SN      BR    1600  4890 
2019/07/25  12:18:00  BASE  15.0352  96   19.9332  96   -5.0  93    -6.0  0     0     988.9    NA       0.0000   -SN      BR    1700  4760 
2019/07/25  12:19:00  BASE  13.4711  101  19.9332  96   -5.0  93    -5.9  0     0     989.0    NA       0.0000   -SN      BR    1800  4860 
2019/07/25  12:20:00  BASE  13.918   106  19.9332  96   -5.0  94    -5.8  0     0     988.7    NA       0.0000   -SN      BR    1800  4820 
2019/07/25  12:21:00  BASE  15.0822  106  19.9332  96   -4.9  94    -5.8  0     0     988.7    NA       0.0000   -SN      BR    1700  4720 
2019/07/25  12:22:00  BASE  15.2351  105  19.9332  96   -5.0  94    -5.7  0     0     988.6    NA       0.0000   -SN      BR    1600  4860 
2019/07/25  12:23:00  BASE  17.0638  105  20.2684  110  -5.0  95    -5.7  0     0     988.4    NA       0.0000   -SN      BR    1600  4860 
2019/07/25  12:24:01  BASE  18.475   106  20.9916  100  -5.0  95    -5.7  0     0     988.5    NA       0.0000   -SN      BR    1600  4760 
2019/07/25  12:25:01  BASE  18.3809  107  20.9916  100  -5.1  95    -5.7  0     0     988.3    NA       0.0000   -SN      BR    1300  4790 
2019/07/25  12:26:01  BASE  17.4342  109  20.9916  100  -5.1  96    -5.7  0     0     988.5    NA       0.0000   -SN      BR    1000  0    
2019/07/25  12:27:01  BASE  16.6874  109  20.9916  100  -5.2  96    -5.7  0     0     988.4    NA       0.0000   -SN      BR    1200  0    
2019/07/25  12:28:01  BASE  17.0579  109  20.9916  100  -5.2  96    -5.7  0     0     988.3    NA       0.0000   -SN      BR    1300  6140 
2019/07/25  12:29:01  BASE  16.8286  109  20.9916  100  -5.3  97    -5.7  0     0     988.3    NA       0.0000   -SN      BR    1300  0    
2019/07/25  12:30:01  BASE  17.3048  112  20.9916  100  -5.3  97    -5.7  0     0     988.2    NA       0.0000   -SN      BR    1400  0    
2019/07/25  12:31:01  BASE  18.3691  116  20.9916  100  -5.3  98    -5.6  0     0     988.1    NA       0.0000   -SN      BR    1300  0    
2019/07/25  12:32:01  BASE  17.0344  117  20.9916  100  -5.2  98    -5.5  0     0     988.1    NA       0.0000   -SN      BR    1300  0    
2019/07/25  12:33:01  BASE  15.7525  119  20.9916  100  -5.3  98    -5.5  0     0     988.0    NA       0.0000   -SN      BR    1500  0    
2019/07/25  12:34:01  BASE  14.9822  123  20.1743  112  -5.3  99    -5.5  0     0     988.0    NA       0.0000   -SN      BR    1500  3710 
2019/07/25  12:35:01  BASE  13.6063  122  20.1743  112  -5.4  99    -5.5  0     0     988.0    NA       0.0000   -SN      BR    1600  0    
2019/07/25  12:36:01  BASE  13.7239  119  20.1743  112  -5.3  99    -5.4  0     0     988.0    NA       0.0000   -SN      BR    1600  0    
2019/07/25  12:37:01  BASE  15.3056  116  20.3272  115  -5.3  99    -5.3  0     0     987.9    NA       0.0000   -SN      BR    1600  0    
2019/07/25  12:38:01  BASE  15.7349  114  20.3272  115  -5.2  100   -5.2  0     0     988.0    NA       0.0000   -SN      BR    1400  0    
2019/07/25  12:39:01  BASE  14.6236  116  20.3272  115  -5.1  100   -5.2  0     0     987.9    NA       0.0000   -SN      BR    1500  0    
2019/07/25  12:40:01  BASE  15.0587  115  20.3272  115  -5.1  100   -5.1  0     0     987.8    NA       0.0000   -SN      BR    1500  0    
2019/07/25  12:41:01  BASE  15.4291  114  20.3272  115  -5.1  100   -5.1  0     0     987.6    NA       0.0000   -SN      BR    1600  0    
2019/07/25  12:42:01  BASE  15.3174  115  20.3272  115  -5.1  100   -5.1  0     0     987.6    NA       0.0000   -SN      BR    1700  0    
2019/07/25  12:43:01  BASE  15.2704  115  20.3272  115  -5.1  100   -5.1  0     0     987.4    NA       0.0000   -SN      BR    1700  0    
2019/07/25  12:44:01  BASE  15.6467  115  20.3272  115  -5.1  100   -5.1  0     0     987.4    NA       0.0000   -SN      BR    1700  4100 
2019/07/25  12:45:01  BASE  15.388   116  20.3272  115  -5.0  100   -5.0  0     0     987.5    NA       0.0000   -SN      BR    1900  0    
2019/07/25  12:46:00  BASE  13.3711  117  20.3272  115  -5.0  100   -5.0  0     0     987.5    NA       0.0000   -SN      BR    1900  4170 
2019/07/25  12:47:00  BASE  12.3421  115  18.0575  114  -4.9  100   -4.9  0     0     987.5    NA       0.0000   -SN      BR    1800  3940 
2019/07/25  12:48:00  BASE  11.513   114  18.0575  114  -4.8  100   -4.8  0     0     987.5    NA       0.0000   -SN      BR    1800  3970 
2019/07/25  12:49:00  BASE  10.5428  113  18.0575  114  -4.6  100   -4.6  0     0     987.5    NA       0.0000   -SN      BR    1700  3810 
2019/07/25  12:50:01  BASE  9.75492  106  18.0575  114  -4.4  100   -4.4  0     0     987.5    NA       0.0000   -SN      BR    1700  3670 
2019/07/25  12:51:00  BASE  9.60792  97   18.0575  114  -4.2  100   -4.2  0     0     987.6    NA       0.0000   -SN      BR    1700  3480 
2019/07/25  12:52:00  BASE  9.261    100  18.0575  114  -3.9  100   -3.9  0     0     987.5    NA       0.0000   -SN      BR    1600  3670 
2019/07/25  12:53:00  BASE  8.7024   107  18.0575  114  -3.5  100   -3.6  0     0     987.5    NA       0.0000   -SN      BR    1600  3610 
2019/07/25  12:54:01  BASE  10.437   103  15.729   120  -3.3  100   -3.4  0     0     987.5    NA       0.0000   BR       1600  0     0    
2019/07/25  12:55:01  BASE  9.86076  100  15.2174  89   -3.1  99    -3.2  0     0     987.5    NA       0.0000   BR       1600  0     0    
2019/07/25  12:56:01  BASE  8.00856  106  15.2174  89   -3.0  99    -3.2  0     0     987.5    NA       0.0000   BR       1500  0     0    
2019/07/25  12:57:00  BASE  8.44368  114  15.2174  89   -3.1  97    -3.4  0     0     987.4    NA       0.0000   BR       1500  0     0    
2019/07/25  12:58:00  BASE  9.69024  113  15.2174  89   -3.3  96    -3.8  0     0     987.2    NA       0.0000   BR       1500  0     0    
2019/07/25  12:59:00  BASE  10.1959  111  15.2174  89   -3.5  95    -4.1  0     0     987.3    NA       0.0000   BR       1500  0     0    
2019/07/25  13:00:00  BASE  9.13752  107  15.2174  89   -3.7  94    -4.5  0     0     987.4    NA       0.0000   BR       1400  0     0    
2019/07/25  13:01:00  BASE  9.27864  110  15.2174  89   -3.9  94    -4.7  0     0     987.3    NA       0.0000   BR       1400  3120  0    
2019/07/25  13:02:00  BASE  11.6718  115  15.2174  89   -4.1  94    -4.8  0     0     987.0    NA       0.0000   BR       1400  3450  0    
2019/07/25  13:03:00  BASE  13.5122  115  15.5467  113  -4.2  95    -4.9  0     0     987.0    NA       0.0000   BR       1400  3840  0    
2019/07/25  13:04:00  BASE  14.3942  115  16.3052  118  -4.2  95    -4.8  0     0     986.9    NA       0.0000   BR       1400  3770  0    
2019/07/25  13:05:00  BASE  15.1116  117  16.6051  111  -4.2  96    -4.8  0     0     986.8    NA       0.0000   BR       1300  0     0    
2019/07/25  13:06:00  BASE  14.7764  117  16.6051  111  -4.4  96    -4.9  0     0     986.9    NA       0.0000   BR       1300  0     0    
2019/07/25  13:07:00  BASE  14.5883  117  16.6051  111  -4.5  96    -5.1  0     0     986.7    NA       0.0000   BR       1800  0     0    
2019/07/25  13:08:00  BASE  14.3531  118  16.6051  116  -4.6  96    -5.2  0     0     986.8    NA       0.0000   -SN      BR    9000  0    
2019/07/25  13:09:00  BASE  14.653   118  18.0575  110  -4.8  96    -5.3  0     0     986.6    NA       0.0000   -SN      BR    8000  0    
2019/07/25  13:10:00  BASE  14.9117  121  18.0575  110  -4.9  96    -5.4  0     0     986.7    NA       0.0000   -SN      BR    7000  0    
2019/07/25  13:11:00  BASE  14.1826  123  18.0575  110  -5.0  96    -5.5  0     0     986.7    NA       0.0000   -SN      BR    5000  0    
2019/07/25  13:12:00  BASE  13.771   124  18.0575  110  -5.1  97    -5.5  0     0     986.7    NA       0.0000   -SN      BR    7000  0    
2019/07/25  13:13:00  BASE  13.6298  122  18.0575  110  -5.2  97    -5.6  0     0     986.8    NA       0.0000   -SN      BR    7000  0    
2019/07/25  13:14:00  BASE  13.9121  117  18.0575  110  -5.2  97    -5.6  0     0     986.8    NA       0.0000   -SN      BR    8000  0    
2019/07/25  13:15:00  BASE  13.6828  116  18.0575  110  -5.2  98    -5.5  0     0     986.9    NA       0.0000   -SN      BR    8000  0    
2019/07/25  13:16:00  BASE  12.3539  118  18.0575  110  -5.2  98    -5.4  0     0     987.0    NA       0.0000   -SN      BR    7000  0    
2019/07/25  13:17:00  BASE  11.3014  116  18.0575  110  -5.1  99    -5.3  0     0     987.1    NA       0.0000   -SN      BR    7000  0    
2019/07/25  13:18:00  BASE  11.0015  113  18.0575  110  -5.0  99    -5.1  0     0     987.1    NA       0.0000   -SN      BR    7000  0    
2019/07/25  13:19:00  BASE  9.75492  116  16.0936  115  -4.9  100   -4.9  0     0     987.1    NA       0.0000   -SN      BR    7000  0    
2019/07/25  13:20:00  BASE  10.5546  121  16.0936  115  -4.8  100   -4.8  0     0     986.7    NA       0.0000   -SN      BR    7000  0    
2019/07/25  13:21:00  BASE  11.8247  125  16.0936  115  -4.7  100   -4.7  0     0     986.8    NA       0.0000   -SN      BR    7000  0    
2019/07/25  13:22:00  BASE  10.39    123  16.0936  115  -4.7  100   -4.7  0     0     987.0    NA       0.0000   -SN      BR    6000  0    
2019/07/25  13:23:00  BASE  9.07872  121  16.0936  115  -4.8  100   -4.8  0     0     987.1    NA       0.0000   -SN      BR    6000  0    
2019/07/25  13:24:00  BASE  8.88468  114  14.159   127  -4.7  100   -4.7  0     0     987.0    NA       0.0000   -SN      BR    6000  0    
2019/07/25  13:25:00  BASE  8.85528  109  14.159   127  -4.5  100   -4.5  0     0     987.0    NA       0.0000   -SN      BR    6000  0    
2019/07/25  13:26:00  BASE  9.69612  104  14.159   127  -4.2  100   -4.2  0     0     986.8    NA       0.0000   -SN      BR    6000  0    
2019/07/25  13:27:00  BASE  10.5428  105  14.159   127  -3.7  100   -3.7  0     0     986.7    NA       0.0000   BR       6000  0     0    
2019/07/25  13:28:00  BASE  11.1426  108  14.9705  110  -3.4  100   -3.4  0     0     986.8    NA       0.0000   BR       6000  0     0    
2019/07/25  13:29:00  BASE  12.642   104  15.335   98   -3.0  99    -3.1  0     0     986.7    NA       0.0000   BR       6000  8560  0    
2019/07/25  13:30:01  BASE  12.2069  107  15.335   98   -2.9  99    -3.0  0     0     986.7    NA       0.0000   BR       6000  8560  0    
2019/07/25  13:31:01  BASE  11.3308  107  15.5467  107  -2.7  98    -3.0  0     0     986.8    NA       0.0000   BR       6000  8530  0    
2019/07/25  13:32:01  BASE  10.1018  103  15.5467  107  -2.7  97    -3.1  1     0     986.8    NA       0.0000   BR       6000  0     0    
2019/07/25  13:33:01  BASE  9.30216  102  15.5467  107  -2.6  96    -3.2  1     0     986.9    NA       0.0000   BR       6000  0     0    
2019/07/25  13:34:01  BASE  9.5844   102  15.5467  107  -2.6  95    -3.3  1     0     986.9    NA       0.0000   BR       6000  8660  0    
2019/07/25  13:35:01  BASE  8.1144   110  15.5467  107  -2.6  94    -3.5  1     0     987.0    NA       0.0000   BR       6000  8690  0    
2019/07/25  13:36:01  BASE  8.25552  106  15.5467  107  -2.7  93    -3.7  1     0     986.9    NA       0.0000   BR       6000  8560  0    
2019/07/25  13:37:01  BASE  8.9082   106  15.5467  107  -2.8  92    -3.9  1     0     987.0    NA       0.0000   BR       6000  8460  0    
2019/07/25  13:38:01  BASE  9.47268  123  15.5467  107  -3.0  91    -4.2  1     0     986.7    NA       0.0000   BR       4400  8500  0    
2019/07/25  13:39:01  BASE  10.8427  125  15.5467  107  -3.3  90    -4.6  1     0     986.6    NA       0.0000   BR       4300  8270  0    
2019/07/25  13:40:01  BASE  10.6663  122  15.5467  107  -3.7  90    -5.1  1     0     986.7    NA       0.0000   BR       4300  8400  0    
2019/07/25  13:41:01  BASE  9.555    119  13.7004  109  -4.0  90    -5.3  1     0     986.8    NA       0.0000   BR       4300  8370  0    
2019/07/25  13:42:01  BASE  8.49072  111  13.7004  109  -4.2  91    -5.4  1     0     987.0    NA       0.0000   BR       4300  8460  0    
2019/07/25  13:43:01  BASE  8.16732  113  13.7004  109  -4.1  92    -5.2  1     0     986.8    NA       0.0000   BR       4300  8400  0    
2019/07/25  13:44:01  BASE  7.84392  126  13.7004  109  -4.0  93    -4.9  1     0     986.7    NA       0.0000   BR       4300  8370  0    
2019/07/25  13:45:01  BASE  8.57892  130  13.7004  109  -3.9  94    -4.7  1     0     986.7    NA       0.0000   BR       4200  8300  0    
2019/07/25  13:46:01  BASE  8.66124  129  13.7004  109  -3.9  95    -4.6  1     0     986.8    NA       0.0000   BR       4200  8330  0    
2019/07/25  13:47:01  BASE  7.54992  131  13.7004  109  -4.0  95    -4.8  1     0     986.7    NA       0.0000   BR       4200  8200  0    
2019/07/25  13:48:01  BASE  8.30844  132  13.7004  109  -4.3  95    -5.0  1     0     986.7    NA       0.0000   BR       4200  8200  0    
2019/07/25  13:49:01  BASE  9.79608  135  11.8247  86   -4.5  95    -5.2  1     0     986.4    NA       0.0000   BR       4200  8010  0    
2019/07/25  13:50:01  BASE  10.2136  136  11.8247  86   -4.6  96    -5.2  2     0     986.4    NA       0.0000   BR       4200  8040  0    
2019/07/25  13:51:01  BASE  10.3194  133  12.101   125  -4.7  96    -5.2  2     0     986.6    NA       0.0000   BR       4100  8070  0    
2019/07/25  13:52:01  BASE  9.1434   131  12.101   125  -4.8  97    -5.2  2     0     986.7    NA       0.0000   BR       4100  8370  0    
2019/07/25  13:53:01  BASE  8.07912  134  12.101   125  -4.7  97    -5.1  2     0     986.5    NA       0.0000   BR       4100  8240  0    
2019/07/25  13:54:01  BASE  9.30216  133  12.495   130  -4.7  98    -5.0  2     0     986.5    NA       0.0000   BR       4100  8140  0    
2019/07/25  13:55:01  BASE  9.97248  132  12.495   130  -4.7  98    -4.9  2     0     986.4    NA       0.0000   BR       4200  8170  0    
2019/07/25  13:56:01  BASE  9.28452  136  12.495   130  -4.7  99    -4.9  2     0     986.4    NA       0.0000   BR       4200  8040  0    
2019/07/25  13:57:01  BASE  7.85568  132  12.495   130  -4.7  99    -4.8  2     0     986.5    NA       0.0000   BR       4200  8040  0    
2019/07/25  13:58:01  BASE  6.97956  124  12.495   130  -4.6  99    -4.7  2     0     986.6    NA       0.0000   BR       4200  7970  0    
2019/07/25  13:59:01  BASE  7.91448  112  12.495   130  -4.5  100   -4.5  2     0     986.6    NA       0.0000   BR       4200  7940  0    
2019/07/25  14:00:00  BASE  8.60244  109  12.495   130  -4.2  100   -4.2  2     0     986.6    NA       0.0000   BR       4100  0     0    
2019/07/25  14:01:01  BASE  9.36096  109  12.8243  83   -3.8  100   -3.8  2     0     986.7    NA       0.0000   BR       4100  8240  0    
2019/07/25  14:02:01  BASE  9.70788  107  13.3711  100  -3.4  100   -3.4  2     0     986.8    NA       0.0000   BR       4100  8370  0    
2019/07/25  14:03:01  BASE  11.2249  99   14.6412  84   -3.0  100   -3.0  2     0     986.5    NA       0.0000   BR       4100  8330  0    
2019/07/25  14:04:01  BASE  12.4774  85   15.335   97   -2.6  99    -2.7  3     0     986.3    NA       0.0000   BR       4100  8270  0    
2019/07/25  14:05:01  BASE  12.0305  85   16.1524  87   -2.3  99    -2.4  3     0     986.2    NA       0.0000   BR       4100  8240  0    
2019/07/25  14:06:00  BASE  13.6298  88   18.6337  85   -2.1  98    -2.3  3     0     986.1    NA       0.0000   BR       4100  8300  0    
2019/07/25  14:07:00  BASE  15.0646  86   20.4506  74   -1.9  98    -2.2  3     0     986.0    NA       0.0000   BR       4000  8330  0    
2019/07/25  14:08:00  BASE  14.7823  93   20.4506  74   -1.8  97    -2.1  3     0     986.2    NA       0.0000   -SN      BR    4000  0    
2019/07/25  14:09:00  BASE  14.259   96   20.4506  74   -1.7  97    -2.1  3     0     986.1    NA       0.0000   -SN      BR    4500  8240 
2019/07/25  14:10:00  BASE  12.3774  96   20.4506  74   -1.7  97    -2.2  3     0     986.2    NA       0.0000   -SN      BR    7000  2530 
2019/07/25  14:11:00  BASE  10.8368  107  20.4506  74   -1.8  96    -2.3  3     0     986.0    NA       0.0000   -SN      BR    9999  8430 
2019/07/25  14:12:00  BASE  11.5366  110  20.4506  74   -1.8  96    -2.4  3     0     985.9    NA       0.0000   -SN      BR    9999  8500 
2019/07/25  14:13:00  BASE  11.2367  103  20.4506  74   -1.9  96    -2.5  3     0     986.2    NA       0.0000   -SN      BR    9999  2850 
2019/07/25  14:14:00  BASE  11.8188  97   20.4506  74   -1.9  95    -2.5  3     0     986.2    NA       0.0000   -SN      BR    9999  8600 
2019/07/25  14:15:00  BASE  15.2468  90   21.9912  68   -1.9  95    -2.6  3     0     985.8    NA       0.0000   -SN      BR    8000  2690 
2019/07/25  14:16:00  BASE  15.4115  93   21.9912  68   -1.8  95    -2.5  3     0     986.0    NA       0.0000   -SN      BR    SQ    4300 
2019/07/25  14:17:00  BASE  11.8835  105  21.9912  68   -1.7  94    -2.5  4     0     985.9    NA       0.0000   -SN      BR    6000  0    
2019/07/25  14:18:00  BASE  10.7369  105  21.9912  68   -1.7  94    -2.5  4     0     985.7    NA       0.0000   -SN      BR    9999  2850 
2019/07/25  14:19:00  BASE  12.3127  98   21.9912  68   -1.7  94    -2.5  4     0     985.6    NA       0.0000   -SN      BR    9999  2850 
2019/07/25  14:20:00  BASE  14.0414  95   21.9912  68   -1.7  94    -2.6  4     0     985.6    NA       0.0000   -SN      BR    9999  0    
2019/07/25  14:21:00  BASE  13.9768  89   21.9912  68   -1.8  94    -2.7  4     0     985.6    NA       0.0000   -SN      BR    9999  2400 
2019/07/25  14:22:00  BASE  15.7937  79   21.9912  68   -1.8  93    -2.7  4     0     985.1    NA       0.0000   -SN      BR    9999  2590 
2019/07/25  14:23:00  BASE  19.1218  72   22.1147  75   -1.7  93    -2.7  4     0     985.0    NA       0.0000   -SN      BR    SQ    7000 
2019/07/25  14:24:00  BASE  20.7682  72   24.3197  73   -1.6  93    -2.6  4     0     984.9    NA       0.0000   -SN      BR    SQ    3300 
2019/07/25  14:25:00  BASE  21.3268  75   24.3197  73   -1.5  93    -2.5  4     0     984.8    NA       0.0000   -SN      BR    2300  2330 
2019/07/25  14:26:00  BASE  20.6094  79   24.3197  73   -1.4  93    -2.4  4     0     984.9    NA       0.0000   -SN      BR    1300  2030 
2019/07/25  14:27:00  BASE  18.9395  79   24.3197  73   -1.3  93    -2.3  4     0     985.2    NA       0.0000   -SN      BR    0900  2230 
2019/07/25  14:28:00  BASE  17.4695  77   24.3197  73   -1.3  93    -2.3  4     0     985.2    NA       0.0000   -SN      BR    1600  0    
2019/07/25  14:29:00  BASE  17.6518  76   24.3197  73   -1.4  93    -2.3  5     0     985.1    NA       0.0000   -SN      BR    2200  0    
2019/07/25  14:30:00  BASE  20.774   73   25.8955  74   -1.5  94    -2.4  5     0     984.4    NA       0.0000   -SN      BR    6000  0    
2019/07/25  14:31:00  BASE  20.7858  77   25.8955  74   -1.5  94    -2.3  5     0     984.8    NA       0.0000   -SN      BR    3600  0    
2019/07/25  14:32:00  BASE  18.9042  79   25.8955  74   -1.5  94    -2.3  5     0     984.7    NA       0.0000   -SN      BR    4500  0    
2019/07/25  14:33:00  BASE  20.1096  78   25.8955  74   -1.4  95    -2.2  5     0     984.8    NA       0.0000   -SN      BR    5000  2690 
2019/07/25  14:34:00  BASE  19.504   80   25.8955  74   -1.4  95    -2.1  5     0     984.8    NA       0.0000   -SN      BR    3500  0    
2019/07/25  14:35:01  BASE  18.7513  78   25.8955  74   -1.3  95    -2.0  5     0     984.8    NA       0.0000   -SN      BR    3800  0    
2019/07/25  14:36:01  BASE  20.2448  74   25.8955  74   -1.3  95    -2.0  5     0     984.6    NA       0.0000   -SN      BR    5000  0    
2019/07/25  14:37:01  BASE  21.2033  70   25.8955  74   -1.2  95    -1.9  5     0     984.5    NA       0.0000   -SN      BR    7000  0    
2019/07/25  14:38:01  BASE  21.6737  66   25.8955  74   -1.2  95    -1.9  5     0     984.3    NA       0.0000   -SN      BR    4700  0    
2019/07/25  14:39:01  BASE  21.8442  67   25.8955  74   -1.2  95    -1.9  5     0     984.4    NA       0.0000   -SN      BR    2600  0    
2019/07/25  14:40:01  BASE  21.2386  70   24.9841  82   -1.2  95    -1.9  5     0     984.4    NA       0.0000   -SN      BR    2600  0    
2019/07/25  14:41:01  BASE  21.1445  71   24.9841  82   -1.2  95    -1.9  5     0     984.4    NA       0.0000   -SN      BR    7000  0    
2019/07/25  14:42:01  BASE  21.121   71   24.9841  82   -1.2  95    -1.9  5     0     984.5    NA       0.0000   -SN      BR    9999  0    
2019/07/25  14:43:01  BASE  21.415   71   24.8665  63   -1.1  94    -1.9  5     0     984.4    NA       0.0000   -SN      BR    9000  0    
2019/07/25  14:44:01  BASE  21.9442  70   24.8665  63   -1.1  94    -2.0  5     0     984.5    NA       0.0000   -SN      BR    8000  0    
2019/07/25  14:45:01  BASE  21.3091  72   24.8665  63   -1.1  94    -2.0  5     0     984.5    NA       0.0000   -SN      BR    8000  0    
2019/07/25  14:46:01  BASE  19.992   75   24.8665  63   -1.1  94    -1.9  5     0     984.5    NA       0.0000   -SN      BR    9999  0    
2019/07/25  14:47:01  BASE  20.4506  74   24.8665  63   -1.1  94    -2.0  5     0     984.4    NA       0.0000   -SN      BR    9000  0    
2019/07/25  14:48:01  BASE  20.3036  74   24.8665  63   -1.1  94    -2.0  5     0     984.4    NA       0.0000   -SN      BR    8000  0    
2019/07/25  14:49:01  BASE  20.5565  72   24.8665  63   -1.1  93    -2.0  5     0     984.2    NA       0.0000   -SN      BR    6000  0    
2019/07/25  14:50:01  BASE  21.2092  76   24.8665  63   -1.1  93    -2.1  5     0     984.4    NA       0.0000   -SN      BR    4100  0    
2019/07/25  14:51:01  BASE  19.2629  80   24.8665  63   -1.1  93    -2.1  5     0     984.5    NA       0.0000   -SN      BR    3500  0    
2019/07/25  14:52:01  BASE  18.7513  75   24.8665  63   -1.1  93    -2.2  5     0     984.3    NA       0.0000   -SN      BR    9000  0    
2019/07/25  14:53:01  BASE  21.0328  69   24.5608  77   -1.1  93    -2.2  5     0     983.9    NA       0.0000   -SN      BR    5000  0    
2019/07/25  14:54:01  BASE  23.7199  67   28.1946  70   -1.1  93    -2.1  5     0     983.7    NA       0.0000   -SN      BR    SQ    1800 
2019/07/25  14:55:01  BASE  23.5259  73   28.1946  70   -1.1  93    -2.1  5     0     984.1    NA       0.0000   -SN      BR    SQ    1200 
2019/07/25  14:56:01  BASE  20.2801  79   28.1946  70   -1.0  93    -2.0  5     0     984.4    NA       0.0000   -SN      BR    4600  0    
2019/07/25  14:57:01  BASE  17.4224  81   28.1946  70   -1.0  93    -2.0  5     0     984.4    NA       0.0000   -SN      BR    8000  0    
2019/07/25  14:58:01  BASE  16.6639  81   28.1946  70   -1.1  93    -2.1  5     0     984.4    NA       0.0000   -SN      BR    9000  0    
2019/07/25  14:59:01  BASE  15.7408  83   28.1946  70   -1.2  93    -2.2  5     0     984.3    NA       0.0000   -SN      BR    9999  0    
2019/07/25  15:00:01  BASE  14.5412  83   28.1946  70   -1.3  93    -2.3  5     0     984.3    NA       0.0000   -SN      BR    9999  0    
2019/07/25  15:01:01  BASE  15.3174  78   28.1946  70   -1.5  93    -2.5  5     0     984.1    NA       0.0000   -SN      BR    8000  0    
2019/07/25  15:02:01  BASE  18.2398  73   28.1946  70   -1.5  93    -2.5  5     0     983.7    NA       0.0000   -SN      BR    5000  0    
2019/07/25  15:03:01  BASE  22.1735  67   28.1946  70   -1.5  93    -2.4  5     0     983.3    NA       0.0000   -SN      BR    SQ    2000 
2019/07/25  15:04:01  BASE  24.7607  66   28.0711  68   -1.4  93    -2.3  5     0     983.2    NA       0.0000   -SN      BR    SQ    0700 
2019/07/25  15:05:01  BASE  24.0668  72   28.0711  68   -1.3  94    -2.2  5     0     983.5    NA       0.0000   -SN      BR    SQ    0500 
2019/07/25  15:06:01  BASE  20.4742  77   28.0711  68   -1.2  94    -2.1  5     0     983.8    NA       0.0000   -SN      BR    1100  0    
2019/07/25  15:07:01  BASE  19.4158  77   28.0711  68   -1.2  94    -2.1  5     0     983.5    NA       0.0000   -SN      BR    1700  0    
2019/07/25  15:08:01  BASE  22.003   70   28.0711  68   -1.3  94    -2.0  5     0     983.3    NA       0.0000   -SN      BR    1100  0    
2019/07/25  15:09:01  BASE  23.714   65   28.0711  68   -1.3  95    -2.0  5     0     983.3    NA       0.0000   -SN      BR    0650  0    
2019/07/25  15:10:01  BASE  24.7842  66   28.0711  68   -1.3  95    -2.0  5     0     983.2    NA       0.0000   -SN      BR    0550  0    
2019/07/25  15:11:01  BASE  26.0072  67   28.5239  64   -1.3  95    -2.0  5     0     983.1    NA       0.0000   UP       FZFG  0450  0    
2019/07/25  15:12:01  BASE  24.89    70   28.5239  64   -1.2  95    -1.9  5     0     983.4    NA       0.0000   UP       FZFG  0450  0    
2019/07/25  15:13:01  BASE  22.0324  75   28.5239  64   -1.2  96    -1.8  5     0     983.7    NA       0.0000   UP       FZFG  0650  0    
2019/07/25  15:14:00  BASE  19.5157  79   28.5239  64   -1.3  96    -1.9  5     0     983.8    NA       0.0000   UP       FZFG  0700  0    
2019/07/25  15:15:00  BASE  17.834   80   28.5239  64   -1.4  96    -2.0  5     0     983.9    NA       0.0000   UP       FZFG  0900  0    
2019/07/25  15:16:00  BASE  18.5455  77   28.5239  64   -1.5  96    -2.0  5     0     983.7    NA       0.0000   UP       FZFG  4600  0    
2019/07/25  15:17:00  BASE  20.4448  70   28.5239  64   -1.6  96    -2.1  5     0     983.5    NA       0.0000   -SN      FZFG  5000  0    
2019/07/25  15:18:00  BASE  21.1504  69   28.5239  64   -1.6  97    -2.0  5     0     983.4    NA       0.0000   -SN      FZFG  6000  0    
2019/07/25  15:19:00  BASE  21.3209  71   28.5239  64   -1.6  97    -1.9  5     0     983.4    NA       0.0000   -SN      BR    6000  0    
2019/07/25  15:20:00  BASE  22.4851  72   28.5239  64   -1.5  98    -1.8  5     0     983.2    NA       0.0000   -SN      BR    6000  0    
2019/07/25  15:21:00  BASE  23.8846  69   28.0417  64   -1.4  98    -1.7  5     0     983.1    NA       0.0000   -SN      BR    2600  0    
2019/07/25  15:22:00  BASE  23.9492  67   28.0417  64   -1.4  98    -1.6  5     0     983.0    NA       0.0000   -SN      BR    0900  0    
2019/07/25  15:23:00  BASE  23.7376  69   28.0417  64   -1.4  98    -1.6  5     0     982.9    NA       0.0000   -SN      BR    0550  0    
2019/07/25  15:24:00  BASE  24.7666  68   28.0417  64   -1.4  98    -1.7  5     0     982.8    NA       0.0000   -SN      BR    0550  0    
2019/07/25  15:25:00  BASE  25.3134  64   28.0417  64   -1.4  98    -1.7  5     0     982.9    NA       0.0000   -SN      BR    0550  0    
2019/07/25  15:26:00  BASE  25.3134  63   28.4357  62   -1.5  98    -1.7  5     0     982.8    NA       0.0000   UP       BR    0450  0    
2019/07/25  15:27:00  BASE  26.7011  63   32.2459  61   -1.5  98    -1.7  5     0     982.5    NA       0.0000   UP       FZFG  0350  0    
2019/07/25  15:28:00  BASE  27.9653  65   32.2459  61   -1.5  98    -1.7  5     0     982.4    NA       0.0000   UP       FZFG  0300  0    
2019/07/25  15:29:00  BASE  28.0417  68   32.2459  61   -1.5  99    -1.7  5     0     982.5    NA       0.0000   UP       FZFG  0350  0    
2019/07/25  15:30:00  BASE  27.1068  69   32.2459  61   -1.5  99    -1.6  5     0     982.7    NA       0.0000   UP       FZFG  0450  0    
2019/07/25  15:31:00  BASE  25.6427  70   32.2459  61   -1.5  99    -1.7  5     0     982.9    NA       0.0000   UP       FZFG  0650  0    
2019/07/25  15:32:00  BASE  25.1605  70   32.2459  61   -1.6  99    -1.7  5     0     982.9    NA       0.0000   UP       FZFG  0750  0    
2019/07/25  15:33:00  BASE  24.9841  70   32.2459  61   -1.6  99    -1.7  5     0     982.8    NA       0.0000   UP       FZFG  0750  0    
2019/07/25  15:34:00  BASE  24.3726  68   32.2459  61   -1.6  99    -1.8  5     0     982.7    NA       0.0000   UP       FZFG  0750  0    
2019/07/25  15:35:00  BASE  24.4784  66   32.2459  61   -1.7  99    -1.8  5     0     982.6    NA       0.0000   UP       FZFG  0750  0    
2019/07/25  15:36:00  BASE  24.7724  65   32.2459  61   -1.7  99    -1.8  5     0     982.5    NA       0.0000   UP       FZFG  0650  0    
2019/07/25  15:37:00  BASE  25.1252  66   30.5819  71   -1.7  99    -1.8  5     0     982.3    NA       0.0000   UP       FZFG  0650  0    
2019/07/25  15:38:00  BASE  26.3836  67   30.5819  71   -1.7  99    -1.8  5     0     982.1    NA       0.0000   UP       FZFG  0700  0    
2019/07/25  15:39:00  BASE  25.9661  66   28.4357  73   -1.6  99    -1.8  5     0     982.3    NA       0.0000   UP       FZFG  0700  0    
2019/07/25  15:40:00  BASE  25.0606  62   28.8884  61   -1.6  99    -1.8  5     0     982.3    NA       0.0000   UP       FZFG  0700  0    
2019/07/25  15:41:00  BASE  26.7246  63   29.2236  67   -1.6  99    -1.8  5     0     982.0    NA       0.0000   FZFG     0700  0     0    
2019/07/25  15:42:00  BASE  27.7066  65   30.1585  65   -1.7  99    -1.8  5     0     982.2    NA       0.0000   FZFG     0700  0     0    
2019/07/25  15:43:01  BASE  26.5541  64   30.1585  65   -1.7  99    -1.8  5     0     982.1    NA       0.0000   FZFG     0700  0     0    
2019/07/25  15:44:01  BASE  26.3718  63   30.1585  65   -1.7  99    -1.9  5     0     981.9    NA       0.0000   FZFG     0650  0     0    
2019/07/25  15:45:01  BASE  26.2777  63   30.1585  65   -1.7  99    -1.8  5     0     982.1    NA       0.0000   FZFG     0600  0     0    
2019/07/25  15:46:01  BASE  26.3777  62   30.7348  64   -1.7  99    -1.8  5     0     981.8    NA       0.0000   UP       FZFG  0600  0    
2019/07/25  15:47:01  BASE  27.6242  62   30.7348  64   -1.7  99    -1.8  5     0     981.8    NA       0.0000   FZFG     0600  0     0    
2019/07/25  15:48:01  BASE  27.2656  63   30.7348  64   -1.7  99    -1.8  5     0     981.9    NA       0.0000   UP       FZFG  0600  0    
2019/07/25  15:49:01  BASE  27.7301  64   31.4874  63   -1.7  99    -1.8  4     0     981.8    NA       0.0000   UP       FZFG  0650  0    
2019/07/25  15:50:01  BASE  28.3475  64   31.4874  63   -1.7  99    -1.8  5     0     981.9    NA       0.0000   UP       FZFG  0650  0    
2019/07/25  15:51:01  BASE  27.736   63   31.4874  63   -1.7  99    -1.8  5     0     981.9    NA       0.0000   UP       FZFG  0650  0    
2019/07/25  15:52:01  BASE  26.2307  65   31.4874  63   -1.7  99    -1.8  5     0     982.4    NA       0.0000   UP       FZFG  0650  0    
2019/07/25  15:53:01  BASE  25.3957  65   31.4874  63   -1.7  99    -1.9  5     0     982.3    NA       0.0000   UP       FZFG  0650  0    
2019/07/25  15:54:01  BASE  26.6364  65   31.4874  63   -1.7  99    -1.9  5     0     982.1    NA       0.0000   UP       FZFG  0650  0    
2019/07/25  15:55:01  BASE  28.124   66   31.4874  63   -1.7  99    -1.9  5     0     981.8    NA       0.0000   UP       FZFG  0650  0    
2019/07/25  15:56:01  BASE  28.1534  66   31.4874  63   -1.7  99    -1.9  5     0     981.9    NA       0.0000   FZFG     0600  0     0    
2019/07/25  15:57:01  BASE  27.5243  65   31.4874  63   -1.7  99    -1.9  5     0     981.8    NA       0.0000   FZFG     0600  0     0    
2019/07/25  15:58:01  BASE  27.2185  63   31.4874  63   -1.7  99    -1.9  5     0     981.8    NA       0.0000   FZFG     0600  0     0    
2019/07/25  15:59:01  BASE  26.1895  61   31.1287  67   -1.7  99    -1.9  5     0     981.9    NA       0.0000   FZFG     0600  0     0    
2019/07/25  16:00:01  BASE  25.6427  58   31.1287  67   -1.7  99    -1.9  6     0     981.9    NA       0.0000   FZFG     0600  0     0    
2019/07/25  16:01:01  BASE  26.4424  58   31.1287  67   -1.8  99    -1.9  5     0     981.8    NA       0.0000   FZFG     0600  0     0    
2019/07/25  16:02:01  BASE  27.4126  59   31.1287  67   -1.8  99    -1.9  6     0     981.8    NA       0.0000   FZFG     0600  0     0    
2019/07/25  16:03:01  BASE  26.6599  60   31.1287  67   -1.8  100   -1.8  6     0     981.9    NA       0.0000   FZFG     0600  0     0    
2019/07/25  16:04:01  BASE  25.625   60   31.1287  67   -1.8  100   -1.8  6     0     981.9    NA       0.0000   FZFG     0600  0     0    
2019/07/25  16:05:01  BASE  26.3953  60   30.9464  64   -1.8  100   -1.8  6     0     981.8    NA       0.0000   FZFG     0600  0     0    
2019/07/25  16:06:01  BASE  27.83    60   30.9464  64   -1.8  100   -1.8  6     0     981.6    NA       0.0000   FZFG     0600  0     0    
2019/07/25  16:07:01  BASE  27.736   60   30.7348  58   -1.8  100   -1.8  6     0     981.6    NA       0.0000   FZFG     0600  0     0    
2019/07/25  16:08:01  BASE  27.3714  60   30.7348  58   -1.9  100   -1.9  6     0     981.5    NA       0.0000   FZFG     0600  0     0    
2019/07/25  16:09:01  BASE  27.6536  61   30.7348  58   -1.9  100   -1.9  6     0     981.8    NA       0.0000   FZFG     0600  0     0    
2019/07/25  16:10:01  BASE  28.1005  63   31.0934  61   -1.9  100   -1.9  6     0     981.6    NA       0.0000   FZFG     0600  0     0    
2019/07/25  16:11:01  BASE  28.0888  62   31.0934  61   -2.0  100   -2.0  6     0     981.7    NA       0.0000   FZFG     0600  0     0    
2019/07/25  16:12:01  BASE  26.9833  61   31.0934  61   -2.0  100   -2.0  6     0     981.8    NA       0.0000   FZFG     0600  0     0    
2019/07/25  16:13:01  BASE  26.8951  61   31.0934  61   -2.0  100   -2.0  7     0     981.7    NA       0.0000   FZFG     0600  0     0    
2019/07/25  16:14:01  BASE  27.5066  61   31.0934  61   -2.0  100   -2.0  6     0     981.6    NA       0.0000   FZFG     0600  0     0    
2019/07/25  16:15:01  BASE  28.177   60   31.0934  61   -2.0  100   -2.0  7     0     981.5    NA       0.0000   FZFG     0600  0     0    
2019/07/25  16:16:01  BASE  28.0476  60   31.0934  61   -2.0  100   -2.0  6     0     981.7    NA       0.0000   FZFG     0600  0     0    
2019/07/25  16:17:01  BASE  27.3714  61   33.0632  61   -2.0  100   -2.0  6     0     981.6    NA       0.0000   FZFG     0600  0     0    
2019/07/25  16:18:01  BASE  28.0535  62   33.0632  61   -2.0  100   -2.0  6     0     981.4    NA       0.0000   FZFG     0600  0     0    
2019/07/25  16:19:01  BASE  27.6419  63   33.0632  61   -1.9  100   -1.9  7     0     981.7    NA       0.0000   FZFG     0550  0     0    
2019/07/25  16:20:01  BASE  26.7481  63   33.0632  61   -1.9  100   -1.9  6     0     981.6    NA       0.0000   FZFG     0550  0     0    
2019/07/25  16:21:01  BASE  26.9892  63   33.0632  61   -1.9  100   -1.9  6     0     981.4    NA       0.0000   FZFG     0550  0     0    
2019/07/25  16:22:01  BASE  28.2181  61   33.0632  61   -2.0  100   -2.0  6     0     981.2    NA       0.0000   FZFG     0550  0     0    
2019/07/25  16:23:01  BASE  28.7473  62   33.0632  61   -2.0  100   -2.0  6     0     981.3    NA       0.0000   FZFG     0550  0     0    
2019/07/25  16:24:01  BASE  27.2597  64   33.0632  61   -1.9  100   -1.9  6     0     981.6    NA       0.0000   FZFG     0550  0     0    
2019/07/25  16:25:00  BASE  25.9367  65   33.0632  61   -1.9  100   -1.9  6     0     981.7    NA       0.0000   FZFG     0550  0     0    
2019/07/25  16:26:00  BASE  26.607   64   33.0632  61   -1.9  100   -1.9  6     0     981.5    NA       0.0000   FZFG     0550  0     0    
2019/07/25  16:27:00  BASE  27.2185  64   31.3992  60   -1.8  100   -1.8  7     0     981.6    NA       0.0000   FZFG     0550  0     0    
2019/07/25  16:28:00  BASE  26.8951  64   31.3992  60   -1.8  100   -1.8  6     0     981.6    NA       0.0000   FZFG     0550  0     0    
2019/07/25  16:29:00  BASE  26.1895  62   31.3992  60   -1.7  100   -1.7  6     0     981.5    NA       0.0000   FZFG     0550  0     0    
2019/07/25  16:30:00  BASE  26.5894  61   31.3992  60   -1.7  100   -1.7  6     0     981.4    NA       0.0000   FZFG     0550  0     0    
2019/07/25  16:31:00  BASE  27.0539  63   31.3992  60   -1.7  100   -1.7  6     0     981.5    NA       0.0000   FZFG     0550  0     0    
2019/07/25  16:32:00  BASE  26.2895  64   31.3992  60   -1.7  100   -1.7  6     0     981.6    NA       0.0000   FZFG     0550  0     0    
2019/07/25  16:33:00  BASE  25.2134  61   30.7348  66   -1.7  100   -1.7  6     0     981.8    NA       0.0000   FZFG     0550  0     0    
2019/07/25  16:34:00  BASE  23.1437  62   30.7348  66   -1.7  100   -1.7  6     0     982.0    NA       0.0000   FZFG     0550  0     0    
2019/07/25  16:35:00  BASE  22.8673  64   30.7348  66   -1.7  100   -1.7  6     0     981.8    NA       0.0000   FZFG     0550  0     0    
2019/07/25  16:36:00  BASE  24.4432  61   30.7348  66   -1.8  100   -1.8  7     0     981.4    NA       0.0000   FZFG     0550  0     0    
2019/07/25  16:37:00  BASE  26.5776  60   30.823   60   -1.8  100   -1.8  7     0     981.1    NA       0.0000   FZFG     0550  0     0    
2019/07/25  16:38:00  BASE  26.607   61   30.823   60   -1.8  100   -1.8  7     0     981.4    NA       0.0000   FZFG     0550  0     0    
2019/07/25  16:39:00  BASE  25.8132  60   30.823   60   -1.8  100   -1.8  7     0     981.3    NA       0.0000   FZFG     0550  0     0    
2019/07/25  16:40:00  BASE  26.4365  61   30.823   60   -1.7  100   -1.7  7     0     981.2    NA       0.0000   FZFG     0550  0     0    
2019/07/25  16:41:01  BASE  26.5012  64   30.823   60   -1.6  100   -1.6  7     0     981.4    NA       0.0000   FZFG     0550  0     0    
2019/07/25  16:42:01  BASE  24.4432  66   30.823   60   -1.6  100   -1.6  7     0     981.9    NA       0.0000   FZFG     0550  0     0    
2019/07/25  16:43:01  BASE  23.2907  65   30.823   60   -1.5  100   -1.5  7     0     981.7    NA       0.0000   FZFG     0550  0     0    
2019/07/25  16:44:01  BASE  24.4138  62   30.823   60   -1.5  100   -1.5  7     0     981.5    NA       0.0000   FZFG     0550  0     0    
2019/07/25  16:45:01  BASE  25.1252  61   30.823   60   -1.5  100   -1.5  7     0     981.5    NA       0.0000   FZFG     0550  0     0    
2019/07/25  16:46:01  BASE  25.6486  62   30.823   60   -1.5  100   -1.5  7     0     981.4    NA       0.0000   FZFG     0550  0     0    
2019/07/25  16:47:01  BASE  24.9841  64   29.888   68   -1.5  100   -1.5  7     0     981.4    NA       0.0000   FZFG     0550  0     0    
2019/07/25  16:48:01  BASE  24.596   63   29.888   68   -1.5  100   -1.5  7     0     981.3    NA       0.0000   FZFG     0550  0     0    
2019/07/25  16:49:01  BASE  25.3546  64   29.888   68   -1.5  100   -1.5  7     0     981.2    NA       0.0000   FZFG     0550  0     0    
2019/07/25  16:50:01  BASE  25.0429  64   29.5235  61   -1.6  100   -1.6  6     0     981.3    NA       0.0000   FZFG     0550  0     0    
2019/07/25  16:51:01  BASE  25.7779  62   30.0997  60   -1.6  100   -1.6  6     0     981.0    NA       0.0000   FZFG     0550  0     0    
2019/07/25  16:52:01  BASE  27.2714  63   30.0997  60   -1.6  100   -1.6  6     0     981.0    NA       0.0000   FZFG     0550  0     0    
2019/07/25  16:53:01  BASE  26.2954  61   30.0997  60   -1.6  100   -1.6  6     0     981.1    NA       0.0000   FZFG     0550  0     0    
2019/07/25  16:54:01  BASE  25.8485  61   30.0997  60   -1.6  100   -1.6  6     0     981.0    NA       0.0000   FZFG     0550  0     0    
2019/07/25  16:55:01  BASE  25.1252  65   30.0997  60   -1.6  100   -1.6  6     0     981.3    NA       0.0000   FZFG     0550  0     0    
2019/07/25  16:56:01  BASE  24.449   66   30.0997  60   -1.5  100   -1.5  6     0     981.2    NA       0.0000   FZFG     0550  0     0    
2019/07/25  16:57:01  BASE  26.2483  63   30.0997  60   -1.5  100   -1.5  6     0     981.0    NA       0.0000   FZFG     0550  0     0    
2019/07/25  16:58:01  BASE  26.6364  61   30.0997  60   -1.4  100   -1.4  6     0     981.0    NA       0.0000   FZFG     0550  0     0    
2019/07/25  16:59:01  BASE  25.6486  61   30.0997  60   -1.4  100   -1.4  6     0     981.0    NA       0.0000   FZFG     0550  0     0    
2019/07/25  17:00:01  BASE  24.8018  62   30.0997  60   -1.5  100   -1.5  6     0     981.2    NA       0.0000   FZFG     0550  0     0    
2019/07/25  17:01:01  BASE  24.2844  61   29.9174  59   -1.5  100   -1.5  6     0     981.1    NA       0.0000   FZFG     0550  0     0    
2019/07/25  17:02:01  BASE  26.2072  59   30.2173  57   -1.5  100   -1.5  6     0     980.7    NA       0.0000   FZFG     0550  0     0    
2019/07/25  17:03:01  BASE  28.4768  61   30.3996  62   -1.5  100   -1.5  6     0     980.6    NA       0.0000   FZFG     0550  0     0    
2019/07/25  17:04:01  BASE  28.5239  63   30.5231  65   -1.5  100   -1.5  6     0     980.7    NA       0.0000   FZFG     0550  0     0    
2019/07/25  17:05:01  BASE  26.5482  61   30.5231  65   -1.5  100   -1.5  6     0     981.0    NA       0.0000   FZFG     0550  0     0    
2019/07/25  17:06:01  BASE  25.331   59   30.5231  65   -1.5  100   -1.5  6     0     980.9    NA       0.0000   FZFG     0550  0     0    
2019/07/25  17:07:01  BASE  25.6015  61   30.5231  65   -1.6  100   -1.6  6     0     980.9    NA       0.0000   FZFG     0550  0     0    
2019/07/25  17:08:01  BASE  25.872   63   30.5231  65   -1.6  100   -1.6  6     0     980.9    NA       0.0000   FZFG     0550  0     0    
2019/07/25  17:09:01  BASE  25.8426  63   30.5231  65   -1.5  100   -1.5  6     0     980.8    NA       0.0000   FZFG     0550  0     0    
2019/07/25  17:10:01  BASE  25.1135  63   30.5231  65   -1.5  100   -1.5  6     0     980.8    NA       0.0000   FZFG     0550  0     0    
2019/07/25  17:11:01  BASE  24.796   60   30.5231  65   -1.5  100   -1.5  6     0     980.8    NA       0.0000   FZFG     0550  0     0    
2019/07/25  17:12:01  BASE  25.1194  57   30.5231  65   -1.4  100   -1.4  6     0     980.7    NA       0.0000   FZFG     0550  0     0    
2019/07/25  17:13:01  BASE  25.2722  59   30.5231  65   -1.4  100   -1.4  6     0     980.7    NA       0.0000   FZFG     0550  0     0    
2019/07/25  17:14:01  BASE  23.8199  61   29.7352  62   -1.4  100   -1.4  7     0     980.7    NA       0.0000   FZFG     0550  0     0    
2019/07/25  17:15:01  BASE  24.9665  60   29.7352  62   -1.4  100   -1.4  7     0     980.2    NA       0.2540   FZFG     0550  0     0    
2019/07/25  17:16:01  BASE  26.4365  60   29.7352  62   -1.4  100   -1.4  7     0     980.3    NA       0.0000   FZFG     0550  0     0    
2019/07/25  17:17:01  BASE  25.1429  61   29.7352  62   -1.4  100   -1.4  6     0     980.4    NA       0.0000   FZFG     0550  0     0    
2019/07/25  17:18:01  BASE  25.0018  63   29.2236  59   -1.4  100   -1.4  6     0     980.3    NA       0.0000   FZFG     0550  0     0    
2019/07/25  17:19:01  BASE  25.4075  63   29.2236  59   -1.3  100   -1.3  6     0     980.3    NA       0.0000   FZFG     0550  0     0    
2019/07/25  17:20:01  BASE  25.7662  62   29.2236  59   -1.3  100   -1.3  6     0     980.3    NA       0.0000   FZFG     0550  0     0    
2019/07/25  17:21:01  BASE  25.5898  64   29.6764  67   -1.3  100   -1.3  6     0     980.4    NA       0.0000   FZFG     0550  0     0    
2019/07/25  17:22:01  BASE  26.1366  64   30.2173  62   -1.3  100   -1.3  6     0     980.2    NA       0.0000   FZFG     0550  0     0    
2019/07/25  17:23:01  BASE  26.9422  61   30.5525  59   -1.2  100   -1.3  5     0     980.1    NA       0.0000   FZFG     0550  0     0    
2019/07/25  17:24:01  BASE  27.1421  61   30.5525  59   -1.2  100   -1.3  5     0     979.9    NA       0.0000   FZFG     0550  0     0    
2019/07/25  17:25:01  BASE  27.8771  60   30.5525  59   -1.3  99    -1.3  5     0     979.7    NA       0.0000   FZFG     0550  0     0    
2019/07/25  17:26:01  BASE  28.4651  60   31.0346  64   -1.3  99    -1.4  5     0     979.7    NA       0.0000   FZFG     0550  0     0    
2019/07/25  17:27:01  BASE  28.8002  60   31.5521  56   -1.3  99    -1.5  5     0     979.7    NA       0.0000   FZFG     0550  0     0    
2019/07/25  17:28:01  BASE  29.0825  60   31.6697  60   -1.3  99    -1.5  5     0     979.4    NA       0.0000   FZFG     0550  0     0    
2019/07/25  17:29:01  BASE  29.0825  60   31.6697  60   -1.4  99    -1.5  5     0     979.5    NA       0.0000   FZFG     0550  0     0    
2019/07/25  17:30:01  BASE  28.6474  62   31.6697  60   -1.4  99    -1.5  5     0     979.6    NA       0.0000   FZFG     0550  0     0    
2019/07/25  17:31:01  BASE  28.8238  61   31.6697  60   -1.4  99    -1.5  5     0     979.4    NA       0.0000   FZFG     0550  0     0    
2019/07/25  17:32:01  BASE  28.5533  60   31.6697  60   -1.4  99    -1.6  5     0     979.6    NA       0.0000   FZFG     0550  0     0    
2019/07/25  17:33:01  BASE  27.2538  59   31.6697  60   -1.4  99    -1.6  5     0     979.8    NA       0.0000   FZFG     0550  0     0    
2019/07/25  17:34:01  BASE  25.8602  61   31.6697  60   -1.5  98    -1.7  5     0     980.0    NA       0.0000   FZFG     0550  0     0    
2019/07/25  17:35:01  BASE  25.6133  62   31.6697  60   -1.5  98    -1.8  5     0     979.8    NA       0.0000   FZFG     0550  0     0    
2019/07/25  17:36:01  BASE  27.8771  62   31.6697  60   -1.5  98    -1.8  5     0     979.6    NA       0.0000   FZFG     0550  0     0    
2019/07/25  17:37:01  BASE  28.6826  60   31.6697  60   -1.5  98    -1.8  5     0     979.7    NA       0.0000   FZFG     0550  0     0    
2019/07/25  17:38:01  BASE  26.3306  57   31.6109  57   -1.5  98    -1.8  5     0     979.8    NA       0.0000   FZFG     0550  0     0    
2019/07/25  17:39:01  BASE  25.9837  55   31.6109  57   -1.5  98    -1.8  5     0     979.7    NA       0.0000   FZFG     0550  0     0    
2019/07/25  17:40:01  BASE  27.1715  57   31.6109  57   -1.5  99    -1.7  5     0     979.6    NA       0.0000   FZFG     0550  0     0    
2019/07/25  17:41:01  BASE  27.6536  58   31.5815  65   -1.5  99    -1.7  5     0     979.5    NA       0.0000   FZFG     0550  0     0    
2019/07/25  17:42:01  BASE  28.2416  58   31.5815  65   -1.5  99    -1.7  5     0     979.4    NA       0.0000   FZFG     0550  0     0    
2019/07/25  17:43:01  BASE  26.5306  58   31.5815  65   -1.5  99    -1.7  5     0     979.9    NA       0.0000   FZFG     0550  0     0    
2019/07/25  17:44:01  BASE  25.3546  59   31.5815  65   -1.5  99    -1.6  5     0     979.8    NA       0.0000   FZFG     0550  0     0    
2019/07/25  17:45:01  BASE  25.3898  61   31.5815  65   -1.4  99    -1.6  5     0     979.9    NA       0.0000   FZFG     0550  0     0    
2019/07/25  17:46:01  BASE  24.7489  63   31.1581  56   -1.4  99    -1.5  5     0     979.9    NA       0.0000   FZFG     0550  0     0    
2019/07/25  17:47:01  BASE  24.7019  61   31.1581  56   -1.4  99    -1.5  5     0     979.8    NA       0.0000   FZFG     0550  0     0    
2019/07/25  17:48:01  BASE  24.5255  59   31.1581  56   -1.4  99    -1.5  5     0     979.8    NA       0.0000   FZFG     0550  0     0    
2019/07/25  17:49:01  BASE  24.3844  58   31.1581  56   -1.4  99    -1.5  5     0     979.7    NA       0.0000   FZFG     0550  0     0    
2019/07/25  17:50:01  BASE  25.6721  60   31.1581  56   -1.4  99    -1.5  5     0     979.6    NA       0.0000   FZFG     0550  0     0    
2019/07/25  17:51:01  BASE  26.9598  60   30.8818  55   -1.3  99    -1.5  5     0     979.5    NA       0.0000   FZFG     0550  0     0    
2019/07/25  17:52:01  BASE  26.9245  57   30.7348  52   -1.3  99    -1.4  5     0     979.4    NA       0.0000   FZFG     0550  0     0    
2019/07/25  17:53:01  BASE  26.7364  58   30.7348  52   -1.2  99    -1.3  5     0     979.5    NA       0.0000   FZFG     0550  0     0    
2019/07/25  17:54:01  BASE  26.901   60   30.7348  52   -1.2  99    -1.3  5     0     979.6    NA       0.0000   FZFG     0550  0     0    
2019/07/25  17:55:01  BASE  25.7838  61   30.7348  52   -1.2  99    -1.3  5     0     979.7    NA       0.0000   FZFG     0550  0     0    
2019/07/25  17:56:01  BASE  24.7666  62   30.7348  52   -1.2  99    -1.4  5     0     979.7    NA       0.0000   FZFG     0550  0     0    
2019/07/25  17:57:01  BASE  25.3898  62   30.7348  52   -1.2  98    -1.4  5     0     979.6    NA       0.0000   FZFG     0550  0     0    
2019/07/25  17:58:01  BASE  26.1366  63   30.7348  52   -1.2  98    -1.5  5     0     979.5    NA       0.0000   FZFG     0550  0     0    
2019/07/25  17:59:01  BASE  25.6486  64   30.7348  52   -1.3  98    -1.5  5     0     979.5    NA       0.0000   FZFG     0600  0     0    
2019/07/25  18:00:01  BASE  24.4726  64   30.7348  52   -1.3  98    -1.5  5     0     979.5    NA       0.0000   UP       FZFG  0700  0    
2019/07/25  18:01:01  BASE  24.9136  64   30.7348  52   -1.2  98    -1.5  5     0     979.5    NA       0.0000   UP       FZFG  0650  0    
2019/07/25  18:02:01  BASE  24.9077  63   29.9174  61   -1.2  98    -1.5  5     0     979.5    NA       0.0000   UP       FZFG  0650  0    
2019/07/25  18:03:01  BASE  24.3667  63   29.9174  61   -1.2  98    -1.5  4     0     979.5    NA       0.0000   UP       FZFG  0600  0    
2019/07/25  18:04:01  BASE  24.5372  60   29.2824  63   -1.1  97    -1.5  4     0     979.4    NA       0.0000   UP       FZFG  0500  0    
2019/07/25  18:05:01  BASE  24.6784  60   29.2824  63   -1.1  97    -1.5  4     0     979.4    NA       0.0000   UP       FZFG  0500  0    
2019/07/25  18:06:01  BASE  25.4369  61   29.2824  63   -1.1  97    -1.5  5     0     979.2    NA       0.0000   UP       FZFG  0500  0    
2019/07/25  18:07:01  BASE  26.119   58   29.2824  63   -1.0  97    -1.5  5     0     979.1    NA       0.0000   UP       FZFG  0500  0    
2019/07/25  18:08:01  BASE  26.7422  58   29.6764  63   -1.0  97    -1.4  5     0     979.0    NA       0.0000   UP       FZFG  0500  0    
2019/07/25  18:09:01  BASE  27.1244  63   29.9174  67   -0.9  97    -1.3  5     0     979.2    NA       0.0000   UP       FZFG  0600  0    
2019/07/25  18:10:01  BASE  24.8724  65   29.9174  67   -0.9  97    -1.3  4     0     979.5    NA       0.0000   UP       FZFG  0800  0    
2019/07/25  18:11:01  BASE  22.4969  65   29.9174  67   -0.9  97    -1.2  4     0     979.6    NA       0.0000   UP       FZFG  0900  0    
2019/07/25  18:12:01  BASE  22.0265  66   29.9174  67   -0.8  97    -1.2  4     0     979.5    NA       0.0000   UP       FZFG  0800  0    
2019/07/25  18:13:01  BASE  22.685   63   29.9174  67   -0.8  97    -1.2  4     0     979.4    NA       0.0000   UP       FZFG  0750  0    
2019/07/25  18:14:01  BASE  23.7905  60   29.9174  67   -0.8  97    -1.3  4     0     979.3    NA       0.0000   UP       FZFG  0600  0    
2019/07/25  18:15:01  BASE  24.7019  61   29.9174  67   -0.8  96    -1.3  4     0     979.2    NA       0.0000   UP       FZFG  0600  0    
2019/07/25  18:16:01  BASE  24.7195  60   29.9174  67   -0.8  96    -1.4  4     0     979.3    NA       0.0000   UP       FZFG  0550  0    
2019/07/25  18:17:01  BASE  24.302   60   29.9174  67   -0.8  96    -1.4  4     0     979.3    NA       0.0000   UP       FZFG  0450  0    
2019/07/25  18:18:01  BASE  24.008   63   29.9174  67   -0.9  96    -1.4  4     0     979.3    NA       0.0000   UP       FZFG  0450  0    
2019/07/25  18:19:01  BASE  23.9492  62   28.3416  55   -0.9  96    -1.4  4     0     979.4    NA       0.0000   UP       FZFG  0500  0    
2019/07/25  18:20:01  BASE  23.9845  61   28.3416  55   -0.9  96    -1.4  4     0     979.2    NA       0.0000   UP       FZFG  0550  0    
2019/07/25  18:21:01  BASE  23.8669  62   28.3416  55   -0.9  96    -1.4  4     0     979.2    NA       0.0000   UP       FZFG  0550  0    
2019/07/25  18:22:01  BASE  24.5078  61   28.8002  60   -0.8  96    -1.3  4     0     978.9    NA       0.0000   UP       FZFG  0550  0    
2019/07/25  18:23:01  BASE  25.2958  58   28.8002  60   -0.8  96    -1.3  4     0     978.9    NA       0.2540   UP       FZFG  0450  0    
2019/07/25  18:24:01  BASE  26.4012  57   29.2824  57   -0.7  97    -1.2  3     0     978.7    NA       0.0000   UP       FZFG  0400  0    
2019/07/25  18:25:01  BASE  26.7364  57   29.2824  57   -0.6  97    -1.1  3     0     978.8    NA       0.0000   UP       FZFG  0450  0    
2019/07/25  18:26:01  BASE  25.4251  55   29.2824  57   -0.6  97    -1.1  3     0     978.9    NA       0.0000   UP       FZFG  0400  0    
2019/07/25  18:27:01  BASE  25.0488  57   29.2824  57   -0.5  97    -1.0  3     0     978.9    NA       0.0000   UP       FZFG  0450  0    
2019/07/25  18:28:01  BASE  25.2134  58   29.2824  57   -0.5  97    -0.9  3     0     978.9    NA       0.0000   UP       FZFG  0500  0    
2019/07/25  18:29:01  BASE  25.1429  56   29.2824  57   -0.4  97    -0.8  3     0     978.8    NA       0.0000   UP       FZFG  0450  0    
2019/07/25  18:30:01  BASE  25.8955  58   29.2824  57   -0.4  97    -0.8  3     0     978.8    NA       0.0000   UP       FZFG  0400  0    
2019/07/25  18:31:01  BASE  25.7191  60   29.2824  57   -0.4  97    -0.8  3     0     978.9    NA       0.0000   UP       FZFG  0450  0    
2019/07/25  18:32:01  BASE  24.3667  61   29.2824  57   -0.4  98    -0.7  3     0     979.0    NA       0.0000   UP       FZFG  0450  0    
2019/07/25  18:33:00  BASE  23.7082  59   29.2824  57   -0.5  98    -0.8  3     0     978.9    NA       0.0000   UP       FZFG  0400  0    
2019/07/25  18:34:01  BASE  23.9963  58   28.4063  59   -0.5  98    -0.8  3     0     978.8    NA       0.0000   UP       FZFG  0400  0    
2019/07/25  18:35:01  BASE  25.1017  59   28.4063  59   -0.5  98    -0.8  2     0     978.5    NA       0.0000   UP       FZFG  0400  0    
2019/07/25  18:36:01  BASE  25.9426  57   29.8234  60   -0.5  98    -0.8  2     0     978.5    NA       0.0000   UP       FZFG  0400  0    
2019/07/25  18:37:01  BASE  24.9077  57   29.8234  60   -0.5  99    -0.7  2     0     978.7    NA       0.0000   UP       FZFG  0400  0    
2019/07/25  18:38:01  BASE  23.3965  58   29.8234  60   -0.5  99    -0.7  2     0     978.9    NA       0.0000   UP       FZFG  0400  0    
2019/07/25  18:39:01  BASE  24.1786  56   29.8234  60   -0.5  99    -0.6  2     0     978.7    NA       0.0000   UP       FZFG  0400  0    
2019/07/25  18:40:01  BASE  24.6078  58   29.8234  60   -0.4  99    -0.6  2     0     978.8    NA       0.0000   UP       FZFG  0450  0    
2019/07/25  18:41:01  BASE  23.326   59   29.8234  60   -0.5  99    -0.6  2     0     978.9    NA       0.0000   UP       FZFG  0500  0    
2019/07/25  18:42:01  BASE  23.9904  57   29.8234  60   -0.5  99    -0.6  2     0     978.7    NA       0.0000   UP       FZFG  0450  0    
2019/07/25  18:43:01  BASE  25.1135  57   29.8234  60   -0.6  99    -0.6  2     0     978.7    NA       0.0000   UP       FZFG  0400  0    
2019/07/25  18:44:01  BASE  24.7372  58   29.8234  60   -0.6  100   -0.7  2     0     978.6    NA       0.0000   UP       FZFG  0450  0    
2019/07/25  18:45:01  BASE  23.9904  58   29.8234  60   -0.6  100   -0.7  2     0     978.7    NA       0.0000   UP       FZFG  0500  0    
2019/07/25  18:46:01  BASE  25.2076  60   29.1589  51   -0.6  100   -0.6  2     0     978.6    NA       0.0000   UP       FZFG  0600  0    
2019/07/25  18:47:01  BASE  25.9837  62   29.1589  51   -0.6  100   -0.6  2     0     978.8    NA       0.0000   UP       FZFG  0700  0    
2019/07/25  18:48:01  BASE  24.155   64   29.1589  51   -0.5  100   -0.5  2     0     978.9    NA       0.0000   UP       FZFG  0750  0    
2019/07/25  18:49:01  BASE  24.3432  62   29.1589  51   -0.5  100   -0.5  2     0     978.7    NA       0.0000   UP       FZFG  0750  0    
2019/07/25  18:50:01  BASE  25.625   58   29.1589  51   -0.4  100   -0.5  2     0     978.6    NA       0.0000   UP       FZFG  0700  0    
2019/07/25  18:51:01  BASE  24.8959  58   29.1589  51   -0.4  99    -0.5  2     0     978.6    NA       0.0000   UP       FZFG  0750  0    
2019/07/25  18:52:01  BASE  24.8136  59   29.3118  58   -0.4  99    -0.5  2     0     978.5    NA       0.0000   UP       FZFG  0750  0    
2019/07/25  18:53:01  BASE  25.578   58   29.3118  58   -0.4  99    -0.5  2     0     978.4    NA       0.0000   UP       FZFG  0750  0    
2019/07/25  18:54:01  BASE  25.3134  56   29.3118  58   -0.4  99    -0.6  2     0     978.4    NA       0.0000   UP       FZFG  0750  0    
2019/07/25  18:55:01  BASE  25.1488  56   29.3118  58   -0.4  99    -0.6  2     0     978.4    NA       0.0000   UP       FZFG  0600  0    
2019/07/25  18:56:01  BASE  25.0958  56   30.1585  49   -0.4  98    -0.6  2     0     978.4    NA       0.0000   UP       FZFG  0550  0    
2019/07/25  18:57:01  BASE  24.9724  55   30.1585  49   -0.4  98    -0.6  2     0     978.4    NA       0.0000   UP       FZFG  0650  0    
2019/07/25  18:58:01  BASE  25.0018  55   30.1585  49   -0.4  98    -0.6  2     0     978.5    NA       0.0000   UP       FZFG  0650  0    
2019/07/25  18:59:01  BASE  24.696   54   30.1585  49   -0.3  98    -0.6  2     0     978.5    NA       0.0000   UP       FZFG  0600  0    
2019/07/25  19:00:01  BASE  24.8371  55   30.1585  49   -0.3  98    -0.6  2     0     978.5    NA       0.0000   UP       FZFG  0700  0    
2019/07/25  19:01:01  BASE  25.5956  57   30.1585  49   -0.3  98    -0.6  1     0     978.5    NA       0.0000   UP       FZFG  0800  0    
2019/07/25  19:02:01  BASE  25.2487  57   30.1585  49   -0.3  98    -0.6  1     0     978.6    NA       0.0000   UP       FZFG  0800  0    
2019/07/25  19:03:01  BASE  24.4608  58   30.1585  49   -0.3  98    -0.6  2     0     978.6    NA       0.0000   UP       FZFG  0900  0    
2019/07/25  19:04:01  BASE  23.6846  58   30.1585  49   -0.4  98    -0.7  1     0     978.8    NA       0.0000   UP       FZFG  0900  0    
2019/07/25  19:05:01  BASE  23.7199  58   30.1585  49   -0.4  97    -0.8  1     0     978.7    NA       0.0000   UP       FZFG  0900  0    
2019/07/25  19:06:01  BASE  24.4549  58   28.2828  52   -0.5  97    -0.9  1     0     978.7    NA       0.0000   UP       FZFG  0900  0    
2019/07/25  19:07:01  BASE  24.449   59   28.2828  52   -0.5  97    -0.9  1     0     978.8    NA       0.0000   UP       FZFG  0900  0    
2019/07/25  19:08:01  BASE  23.8904  60   28.2828  52   -0.5  97    -0.9  1     0     978.9    NA       0.0000   UP       FZFG  1000  0    
2019/07/25  19:09:01  BASE  23.5082  58   28.2828  52   -0.5  97    -1.0  1     0     978.8    NA       0.0000   UP       BR    1100  0    
2019/07/25  19:10:01  BASE  23.3201  59   28.2828  52   -0.5  97    -0.9  1     0     978.8    NA       0.0000   UP       BR    1100  0    
2019/07/25  19:11:01  BASE  22.8556  58   28.1593  52   -0.5  97    -1.0  1     0     978.7    NA       0.0000   UP       BR    1000  0    
2019/07/25  19:12:01  BASE  22.5028  57   28.1593  52   -0.5  97    -1.0  1     0     978.7    NA       0.0000   UP       BR    1100  0    
2019/07/25  19:13:01  BASE  23.0614  58   28.1593  52   -0.5  97    -0.9  1     0     978.6    NA       0.0000   UP       BR    1100  0    
2019/07/25  19:14:01  BASE  23.6494  57   28.1593  52   -0.5  97    -0.8  1     0     978.7    NA       0.0000   UP       BR    1000  0    
2019/07/25  19:15:01  BASE  23.2554  57   27.7712  62   -0.4  98    -0.8  1     0     978.7    NA       0.0000   UP       BR    1100  0    
2019/07/25  19:16:01  BASE  23.0026  59   27.7712  62   -0.4  98    -0.7  1     0     978.7    NA       0.0000   UP       BR    1100  0    
2019/07/25  19:17:01  BASE  22.5145  61   26.6776  54   -0.3  98    -0.6  0     0     978.8    NA       0.0000   UP       BR    1100  0    
2019/07/25  19:18:01  BASE  22.4851  61   26.6776  54   -0.3  98    -0.6  0     0     978.8    NA       0.0000   UP       BR    1100  0    
2019/07/25  19:19:01  BASE  23.3848  61   26.6776  54   -0.3  98    -0.5  0     0     978.7    NA       0.0000   UP       BR    1100  0    
2019/07/25  19:20:01  BASE  23.6611  62   26.6776  54   -0.3  98    -0.5  0     0     978.6    NA       0.0000   UP       BR    1000  0    
2019/07/25  19:21:01  BASE  23.2848  63   26.6776  54   -0.3  98    -0.5  0     0     978.6    NA       0.0000   UP       BR    1000  0    
2019/07/25  19:22:01  BASE  23.1378  62   26.6776  54   -0.3  98    -0.5  0     0     978.6    NA       0.0000   UP       BR    1100  0    
2019/07/25  19:23:01  BASE  23.2848  60   26.6776  54   -0.3  98    -0.5  0     0     978.6    NA       0.0000   UP       BR    2200  0    
2019/07/25  19:24:01  BASE  22.391   59   26.56    56   -0.2  98    -0.5  0     0     978.7    NA       0.0000   UP       BR    2200  0    
2019/07/25  19:25:01  BASE  21.7913  61   26.56    56   -0.2  98    -0.5  0     0     978.5    NA       0.0000   UP       BR    2200  0    
2019/07/25  19:26:01  BASE  23.0731  62   27.2538  60   -0.2  98    -0.5  0     0     978.3    NA       0.0000   UP       BR    2300  0    
2019/07/25  19:27:01  BASE  24.0551  62   27.2538  60   -0.2  97    -0.6  0     0     978.3    NA       0.0000   UP       BR    2300  0    
2019/07/25  19:28:00  BASE  24.0551  62   27.2538  60   -0.2  97    -0.6  0     0     978.3    NA       0.0000   UP       BR    2100  0    
2019/07/25  19:29:00  BASE  23.0261  61   27.2538  60   -0.2  97    -0.7  0     0     978.3    NA       0.0000   UP       BR    2100  0    
2019/07/25  19:30:01  BASE  23.1848  62   27.2538  60   -0.3  97    -0.7  0     0     978.2    NA       0.0000   UP       BR    2200  0    
2019/07/25  19:31:00  BASE  23.3612  62   27.2538  60   -0.3  97    -0.7  0     0     978.3    NA       0.0000   UP       BR    2400  0    
2019/07/25  19:32:00  BASE  22.244   60   27.2538  60   -0.3  97    -0.7  0     0     978.3    NA       0.0000   UP       BR    2600  0    
2019/07/25  19:33:00  BASE  22.1441  60   27.2538  60   -0.2  97    -0.7  0     0     978.1    NA       0.0000   UP       BR    2500  0    
2019/07/25  19:34:00  BASE  21.7619  58   27.2538  60   -0.2  97    -0.7  0     0     978.2    NA       0.0000   UP       BR    2400  0    
2019/07/25  19:35:00  BASE  23.0849  56   27.2538  60   -0.1  96    -0.6  0     0     978.0    NA       0.0000   UP       BR    2700  0    
2019/07/25  19:36:01  BASE  24.2021  58   27.1656  54   -0.1  96    -0.6  0     0     978.2    NA       0.0000   UP       BR    3100  0    
2019/07/25  19:37:00  BASE  23.0966  59   27.1656  54   0.0   96    -0.5  0     0     978.3    NA       0.0000   UP       BR    3000  0    
2019/07/25  19:38:00  BASE  22.491   59   27.1656  54   0.1   96    -0.5  0     0     978.3    NA       0.0000   UP       BR    2900  0    
2019/07/25  19:39:01  BASE  22.3381  58   27.1656  54   0.1   96    -0.5  0     0     978.3    NA       0.0000   UP       BR    3000  0    
2019/07/25  19:40:00  BASE  22.2088  57   27.1656  54   0.1   96    -0.5  0     0     978.3    NA       0.0000   UP       BR    3200  0    
2019/07/25  19:41:01  BASE  21.415   56   27.1656  54   0.1   96    -0.5  0     0     978.4    NA       0.0000   -SN      BR    3500  0    
2019/07/25  19:42:00  BASE  21.2915  57   27.1656  54   0.1   96    -0.5  0     0     978.3    NA       0.0000   -SN      BR    3000  0    
2019/07/25  19:43:00  BASE  22.2088  55   27.1656  54   0.1   96    -0.5  0     0     978.3    NA       0.0000   -SN      BR    2300  0    
2019/07/25  19:44:01  BASE  22.7497  53   27.1656  54   0.1   95    -0.6  0     0     978.1    NA       0.0000   -SN      BR    1900  0    
2019/07/25  19:45:01  BASE  23.6494  55   26.56    56   0.1   95    -0.6  0     0     978.1    NA       0.0000   -SN      BR    1700  0    
2019/07/25  19:46:00  BASE  24.1668  56   26.56    56   0.1   95    -0.5  0     0     978.2    NA       0.0000   -SN      BR    1800  0    
2019/07/25  19:47:00  BASE  22.3087  55   26.56    56   0.2   96    -0.5  0     0     978.5    NA       0.0000   -SN      BR    1900  0    
2019/07/25  19:48:00  BASE  20.8681  54   26.56    56   0.2   96    -0.4  0     0     978.4    NA       0.0000   -SN      BR    1800  0    
2019/07/25  19:49:00  BASE  21.6443  53   26.56    56   0.2   96    -0.3  0     0     978.3    NA       0.0000   -SN      BR    1700  0    
2019/07/25  19:50:00  BASE  22.5028  52   26.8598  47   0.3   96    -0.3  0     0     978.2    NA       0.0000   -SN      BR    1500  0    
2019/07/25  19:51:00  BASE  23.1084  53   26.8598  47   0.3   96    -0.3  0     0     978.3    NA       0.0000   UP       BR    1500  0    
2019/07/25  19:52:00  BASE  22.6204  54   26.8598  47   0.3   96    -0.3  0     0     978.3    NA       0.0000   UP       BR    1700  0    
2019/07/25  19:53:00  BASE  22.1323  56   26.8598  47   0.3   96    -0.3  0     0     978.2    NA       0.0000   UP       BR    1800  0    
2019/07/25  19:54:00  BASE  22.7674  57   26.8598  47   0.3   96    -0.3  0     0     978.2    NA       0.0000   UP       BR    1700  0    
2019/07/25  19:55:00  BASE  22.8144  56   26.8598  47   0.2   96    -0.3  0     0     978.3    NA       0.0000   UP       BR    1800  0    
2019/07/25  19:56:00  BASE  21.9736  55   26.8598  47   0.2   96    -0.4  0     0     978.4    NA       0.0000   UP       BR    1800  0    
2019/07/25  19:57:00  BASE  21.1268  56   26.8598  47   0.2   96    -0.4  0     0     978.5    NA       0.0000   UP       BR    1700  0    
2019/07/25  19:58:00  BASE  21.0269  58   26.8598  47   0.2   96    -0.4  0     0     978.5    NA       0.0000   UP       BR    1900  0    
2019/07/25  19:59:00  BASE  20.9093  60   26.8598  47   0.1   96    -0.4  0     0     978.5    NA       0.0000   UP       BR    2100  0    
2019/07/25  20:00:00  BASE  21.0269  58   25.5016  53   0.1   97    -0.4  0     0     978.4    NA       0.0000   UP       BR    2200  0    
2019/07/25  20:01:00  BASE  21.2092  56   24.8371  57   0.1   97    -0.4  0     0     978.4    NA       0.0000   UP       BR    2200  0    
2019/07/25  20:02:00  BASE  21.6443  55   24.9841  52   0.1   97    -0.3  0     0     978.1    NA       0.0000   UP       BR    2100  0    
2019/07/25  20:03:00  BASE  22.6615  55   25.4722  46   0.1   97    -0.3  0     0     978.1    NA       0.0000   UP       BR    2000  0    
2019/07/25  20:04:00  BASE  22.6733  55   26.5894  56   0.2   97    -0.3  0     0     978.0    NA       0.0000   UP       BR    2000  0    
2019/07/25  20:05:00  BASE  22.5498  55   26.5894  56   0.2   97    -0.2  0     0     978.1    NA       0.0000   UP       BR    2100  0    
2019/07/25  20:06:00  BASE  22.1088  55   26.5894  56   0.2   97    -0.2  0     0     978.2    NA       0.0000   RA       BR    2200  0    
2019/07/25  20:07:00  BASE  21.903   55   26.5894  56   0.3   97    -0.2  0     0     978.1    NA       0.0000   RA       BR    2400  0    
2019/07/25  20:08:00  BASE  22.2146  54   26.5894  56   0.2   96    -0.3  0     0     978.1    NA       0.0000   -SN      BR    2500  0    
2019/07/25  20:09:00  BASE  22.1323  55   26.5894  56   0.2   96    -0.3  0     0     978.1    NA       0.0000   -SN      BR    2700  0    
2019/07/25  20:10:00  BASE  22.6498  54   26.5894  56   0.2   96    -0.3  0     0     977.9    NA       0.0000   -SN      BR    3000  0    
2019/07/25  20:11:00  BASE  23.3083  54   26.5894  56   0.2   97    -0.3  0     0     978.0    NA       0.0000   -SN      BR    3000  0    
2019/07/25  20:12:00  BASE  22.8732  56   26.5894  56   0.2   97    -0.2  0     0     978.0    NA       0.0000   -SN      BR    2500  0    
2019/07/25  20:13:00  BASE  22.244   56   26.5894  56   0.3   97    -0.1  0     0     978.0    NA       0.0000   -SN      BR    2400  0    
2019/07/25  20:14:00  BASE  21.7442  56   26.0131  53   0.3   97    -0.1  0     0     978.1    NA       0.0000   -SN      BR    3100  0    
2019/07/25  20:15:00  BASE  21.1856  57   26.0131  53   0.4   97    -0.0  0     0     978.1    NA       0.0000   -SN      BR    3200  0    
2019/07/25  20:16:00  BASE  20.9093  57   26.0131  53   0.4   97    -0.0  0     0     978.1    NA       0.0000   -SN      BR    3400  0    
2019/07/25  20:17:00  BASE  21.3856  56   26.0131  53   0.4   97    -0.1  0     0     978.1    NA       0.0000   -SN      BR    3200  0    
2019/07/25  20:18:00  BASE  22.2617  56   26.0131  53   0.3   97    -0.1  0     0     978.1    NA       0.0000   -SN      BR    3400  0    
2019/07/25  20:19:00  BASE  21.462   57   26.0131  53   0.3   97    -0.1  0     0     978.2    NA       0.0000   -SN      BR    3800  0    
2019/07/25  20:20:00  BASE  20.7211  55   25.7132  58   0.3   97    -0.1  0     0     978.2    NA       0.0000   -SN      BR    4000  0    
2019/07/25  20:21:00  BASE  21.3326  57   24.7724  59   0.3   97    -0.2  0     0     978.1    NA       0.0000   -SN      BR    4300  0    
2019/07/25  20:22:00  BASE  21.6502  61   24.7724  59   0.2   97    -0.2  0     0     978.1    NA       0.0000   -SN      BR    4400  0    
2019/07/25  20:23:00  BASE  21.1504  62   24.7724  59   0.2   97    -0.2  0     0     978.2    NA       0.0000   -SN      BR    4700  0    
2019/07/25  20:24:00  BASE  20.333   60   24.7724  59   0.2   97    -0.3  0     0     978.2    NA       0.0000   -SN      BR    5000  0    
2019/07/25  20:25:00  BASE  19.845   59   24.7724  59   0.2   96    -0.3  0     0     978.1    NA       0.0000   -SN      BR    5000  0    
2019/07/25  20:26:00  BASE  19.8215  58   24.7724  59   0.2   96    -0.3  0     0     978.1    NA       0.0000   -SN      BR    5000  0    
2019/07/25  20:27:00  BASE  19.7274  61   24.7724  59   0.3   96    -0.3  0     0     978.1    NA       0.0000   -SN      BR    5000  0    
2019/07/25  20:28:00  BASE  20.3683  63   23.3554  65   0.3   96    -0.2  0     0     978.0    NA       0.0000   -SN      BR    5000  0    
2019/07/25  20:29:00  BASE  21.2503  63   23.4436  72   0.4   96    -0.2  0     0     977.9    NA       0.0000   -SN      BR    3900  0    
2019/07/25  20:30:00  BASE  20.9387  63   23.4436  72   0.4   96    -0.2  0     0     978.0    NA       0.0000   -SN      BR    3300  0    
2019/07/25  20:31:00  BASE  21.1386  62   23.4436  72   0.4   95    -0.3  0     0     977.9    NA       0.0000   -SN      BR    4900  0    
2019/07/25  20:32:00  BASE  21.0269  60   23.4436  72   0.4   95    -0.3  0     0     978.0    NA       0.0000   -SN      BR    4800  0    
2019/07/25  20:33:00  BASE  20.6564  60   23.4436  72   0.4   95    -0.3  0     0     978.0    NA       0.0000   -SN      BR    3500  0    
2019/07/25  20:34:00  BASE  19.5686  60   23.4436  72   0.4   95    -0.3  0     0     978.3    NA       0.0000   -SN      BR    3200  0    
2019/07/25  20:35:00  BASE  19.4569  60   23.4436  72   0.4   95    -0.3  0     0     977.9    NA       0.0000   -SN      BR    5000  0    
2019/07/25  20:36:00  BASE  21.3091  61   24.3197  62   0.4   95    -0.3  0     0     977.7    NA       0.0000   -SN      BR    5000  0    
2019/07/25  20:37:00  BASE  21.6619  60   24.3197  62   0.4   95    -0.3  0     0     977.6    NA       0.0000   -SN      BR    5000  0    
2019/07/25  20:38:00  BASE  21.6031  59   24.3197  62   0.4   95    -0.3  0     0     977.6    NA       0.0000   -SN      BR    6000  0    
2019/07/25  20:39:00  BASE  20.7152  58   24.3197  62   0.4   95    -0.3  0     0     977.8    NA       0.0000   -SN      BR    7000  0    
2019/07/25  20:40:00  BASE  20.2037  58   24.3197  62   0.4   95    -0.3  0     0     977.7    NA       0.0000   -SN      BR    8000  0    
2019/07/25  20:41:00  BASE  20.3448  57   24.3197  62   0.5   95    -0.2  0     0     977.9    NA       0.0000   -SN      BR    9000  0    
2019/07/25  20:42:00  BASE  19.4334  58   24.3197  62   0.6   95    -0.1  0     0     978.0    NA       0.0000   -SN      BR    9000  7610 
2019/07/25  20:43:00  BASE  19.7098  57   24.3197  62   0.7   95    0.0   0     0     977.9    NA       0.0000   -SN      BR    8000  7550 
2019/07/25  20:44:00  BASE  19.6451  57   24.3197  62   0.7   95    0.1   0     0     978.0    NA       0.0000   -SN      BR    8000  7550 
2019/07/25  20:45:00  BASE  19.3217  61   24.3197  62   0.8   95    0.2   0     0     977.9    NA       0.0000   -SN      BR    8000  7480 
2019/07/25  20:46:00  BASE  20.2154  61   23.4436  54   0.9   95    0.2   0     0     977.8    NA       0.0000   -SN      BR    7000  0    
2019/07/25  20:47:00  BASE  20.3801  60   23.4436  54   0.9   95    0.3   0     0     977.8    NA       0.0000   -SN      BR    6000  0    
2019/07/25  20:48:00  BASE  20.3801  60   23.4436  54   0.9   95    0.3   0     0     977.8    NA       0.0000   -SN      BR    5000  0    
2019/07/25  20:49:00  BASE  20.6212  61   23.4436  54   0.9   95    0.2   0     0     977.8    NA       0.0000   -SN      BR    5000  0    
2019/07/25  20:50:00  BASE  19.8568  63   23.1378  59   0.8   95    0.1   0     0     977.8    NA       0.0000   -SN      BR    5000  0    
2019/07/25  20:51:00  BASE  18.569   62   23.1378  59   0.8   94    -0.0  0     0     978.0    NA       0.0000   -SN      BR    5000  0    
2019/07/25  20:52:00  BASE  17.1167  59   23.1378  59   0.7   94    -0.1  0     0     978.1    NA       0.0000   -SN      BR    5000  0    
2019/07/25  20:53:00  BASE  15.7878  56   22.6556  61   0.8   94    -0.0  0     0     978.2    NA       0.0000   -SN      BR    6000  0    
2019/07/25  20:54:00  BASE  14.8529  54   22.6556  61   0.8   95    0.0   0     0     978.2    NA       0.0000   -SN      BR    8000  0    
2019/07/25  20:55:00  BASE  16.6169  54   22.6556  61   0.9   95    0.2   0     0     977.7    NA       0.0000   -SN      BR    7000  0    
2019/07/25  20:56:00  BASE  18.7102  57   22.6556  61   1.0   95    0.3   0     0     977.7    NA       0.0000   -SN      BR    5000  0    
2019/07/25  20:57:00  BASE  17.6753  61   22.6556  61   1.1   96    0.5   0     0     977.8    NA       0.0000   -SN      BR    5000  0    
2019/07/25  20:58:00  BASE  17.9693  63   22.6556  61   1.1   96    0.5   0     0     977.7    NA       0.0000   -SN      BR    4300  0    
2019/07/25  20:59:00  BASE  18.8807  61   22.3264  56   1.1   96    0.5   0     0     977.7    NA       0.0000   -SN      BR    2600  0    
2019/07/25  21:00:01  BASE  18.669   59   22.3264  56   1.1   96    0.6   0     0     977.7    NA       0.0000   -SN      BR    2000  0    
2019/07/25  21:01:01  BASE  18.4338  56   22.3264  56   1.2   96    0.6   0     0     977.6    NA       0.0000   -SN      BR    2800  0    
2019/07/25  21:02:00  BASE  17.8399  54   22.3264  56   1.2   97    0.7   0     0     977.8    NA       0.0000   -SN      BR    6000  0    
2019/07/25  21:03:00  BASE  17.1637  54   22.3264  56   1.3   97    0.8   0     0     977.8    NA       0.0000   -SN      BR    3800  0    
2019/07/25  21:04:00  BASE  17.1637  53   22.3264  56   1.3   98    1.0   0     0     977.8    NA       0.0000   -SN      BR    3300  0    
2019/07/25  21:05:00  BASE  16.9873  50   22.2323  52   1.4   99    1.2   0     0     978.0    NA       0.0000   -SN      BR    7000  0    
2019/07/25  21:06:00  BASE  15.7878  50   22.2323  52   1.4   99    1.3   0     0     978.0    NA       0.0000   -SN      BR    7000  0    
2019/07/25  21:07:00  BASE  16.905   53   22.2323  52   1.4   100   1.3   0     0     977.7    NA       0.0000   -SN      BR    8000  0    
2019/07/25  21:08:00  BASE  18.0928  53   22.2323  52   1.4   100   1.4   0     0     977.8    NA       0.0000   -SN      BR    7000  0    
2019/07/25  21:09:00  BASE  17.493   49   22.2323  52   1.5   100   1.5   0     0     977.8    NA       0.0000   -SN      BR    7000  0    
2019/07/25  21:10:01  BASE  17.446   48   22.2323  52   1.6   100   1.6   0     0     977.8    NA       0.0000   -SN      BR    8000  0    
2019/07/25  21:11:00  BASE  16.6228  51   21.5384  47   1.7   100   1.7   0     0     977.9    NA       0.0000   -SN      BR    8000  0    
2019/07/25  21:12:00  BASE  14.9117  49   21.5384  47   1.8   100   1.8   0     0     978.1    NA       0.0000   -SN      BR    9999  0    
2019/07/25  21:13:00  BASE  14.2708  49   21.5384  47   1.9   100   1.9   0     0     978.0    NA       0.0000   -SN      BR    9999  0    
2019/07/25  21:14:01  BASE  15.2116  49   21.5384  47   1.9   100   1.9   0     0     977.9    NA       0.0000   -SN      BR    9999  0    
2019/07/25  21:15:00  BASE  15.6055  48   21.5384  47   1.9   100   1.9   0     0     977.9    NA       0.0000   -SN      BR    9999  0    
2019/07/25  21:16:00  BASE  15.3468  51   21.5384  47   2.0   100   2.0   0     0     977.9    NA       0.0000   -SN      BR    9999  0    
2019/07/25  21:17:00  BASE  14.6412  51   21.5384  47   2.1   100   2.1   0     0     977.9    NA       0.0000   -SN      BR    9999  0    
2019/07/25  21:18:00  BASE  15.5879  47   21.5384  47   2.2   100   2.2   0     0     977.7    NA       0.0000   -SN      9999  0     0    
2019/07/25  21:19:00  BASE  16.5052  43   21.5384  47   2.3   100   2.3   0     0     977.7    NA       0.0000   -SN      9999  0     0    
2019/07/25  21:20:00  BASE  15.776   45   19.6039  31   2.4   100   2.4   0     0     977.7    NA       0.0000   -SN      9999  0     0    
2019/07/25  21:21:00  BASE  15.0881  47   19.6039  31   2.5   100   2.5   0     0     977.8    NA       0.0000   -SN      9999  0     0    
2019/07/25  21:22:00  BASE  14.306   41   19.6039  31   2.5   100   2.5   0     0     977.8    NA       0.0000   -SN      9999  0     0    
2019/07/25  21:23:00  BASE  15.0234  41   19.6039  31   2.6   100   2.6   0     0     977.6    NA       0.2540   -SN      9999  0     0    
2019/07/25  21:24:00  BASE  16.9403  43   21.6266  33   2.7   100   2.7   0     0     977.3    NA       0.0000   -SN      9999  0     0    
2019/07/25  21:25:01  BASE  18.2692  35   22.2617  34   2.8   100   2.8   0     0     977.2    NA       0.0000   -SN      9999  0     0    
2019/07/25  21:26:00  BASE  18.9983  32   23.7787  31   2.9   100   2.9   0     0     977.2    NA       0.0000   -SN      9999  0     0    
2019/07/25  21:27:00  BASE  17.6047  39   23.7787  31   3.0   100   3.0   0     0     977.5    NA       0.0000   -SN      9000  0     0    
2019/07/25  21:28:00  BASE  16.2464  49   23.7787  31   3.1   100   3.1   0     0     977.5    NA       0.0000   -SN      9999  0     0    
2019/07/25  21:29:00  BASE  17.8282  46   23.7787  31   3.1   100   3.1   0     0     977.3    NA       0.0000   -SN      9999  0     0    
2019/07/25  21:30:00  BASE  18.0516  41   23.7787  31   3.0   100   3.0   0     0     977.4    NA       0.0000   -SN      9999  0     0    
2019/07/25  21:31:00  BASE  16.3934  42   23.7787  31   3.0   100   3.0   0     0     977.5    NA       0.0000   -SN      9999  0     0    
2019/07/25  21:32:00  BASE  16.2053  41   23.7787  31   2.9   100   2.9   0     0     977.4    NA       0.0000   -SN      9999  0     0    
2019/07/25  21:33:00  BASE  17.152   43   23.7787  31   2.9   100   2.9   0     0     977.4    NA       0.0000   -SN      9999  0     0    
2019/07/25  21:34:00  BASE  17.6518  42   23.7787  31   2.9   100   2.9   0     0     977.4    NA       0.0000   -SN      9999  0     0    
2019/07/25  21:35:00  BASE  16.6404  38   23.7787  31   2.9   100   2.9   0     0     977.4    NA       0.0000   -SN      9999  9060  0    
2019/07/25  21:36:00  BASE  14.8352  37   23.5964  34   2.8   100   2.8   0     0     977.6    NA       0.0000   -SN      9999  9060  0    
2019/07/25  21:37:00  BASE  14.5118  36   23.5964  34   2.9   100   2.8   0     0     977.4    NA       0.0000   -SN      9999  0     0    
2019/07/25  21:38:00  BASE  16.3876  34   23.5964  34   2.9   100   2.9   0     0     977.1    NA       0.0000   -SN      9999  9250  0    
2019/07/25  21:39:00  BASE  18.6102  35   21.3268  30   2.9   100   2.9   0     0     977.1    NA       0.0000   -SN      9000  9380  0    
2019/07/25  21:40:00  BASE  18.9748  34   21.3268  30   3.0   100   3.0   0     0     976.9    NA       0.0000   -SN      7000  0     0    
2019/07/25  21:41:00  BASE  19.0865  33   24.3491  37   3.1   100   3.1   0     0     976.8    NA       0.0000   -SN      BR    5000  0    
2019/07/25  21:42:00  BASE  19.9626  33   24.3491  37   3.2   100   3.1   0     0     976.8    NA       0.0000   -SN      BR    6000  0    
2019/07/25  21:43:00  BASE  19.0982  33   24.3491  37   3.3   100   3.2   0     0     977.0    NA       0.0000   -SN      BR    7000  0    
2019/07/25  21:44:00  BASE  18.2633  32   24.3491  37   3.3   99    3.2   0     0     976.9    NA       0.0000   -SN      BR    7000  0    
2019/07/25  21:45:00  BASE  19.2276  33   24.3491  37   3.4   99    3.3   0     0     976.8    NA       0.0000   -SN      BR    7000  0    
2019/07/25  21:46:00  BASE  21.2738  36   24.6254  42   3.5   99    3.3   0     0     976.5    NA       0.0000   -SN      BR    7000  0    
2019/07/25  21:47:00  BASE  21.1268  36   24.7136  37   3.5   99    3.3   0     0     976.8    NA       0.0000   -SN      BR    9999  0    
2019/07/25  21:48:00  BASE  19.2217  36   24.7136  37   3.5   99    3.3   0     0     976.9    NA       0.0000   -SN      BR    9999  0    
2019/07/25  21:49:00  BASE  20.2037  38   25.1664  45   3.6   98    3.3   0     0     976.7    NA       0.0000   -SN      BR    9999  0    
2019/07/25  21:50:00  BASE  20.4154  38   25.1664  45   3.6   98    3.3   0     0     976.8    NA       0.0000   -SN      BR    9999  0    
2019/07/25  21:51:00  BASE  19.9038  40   25.1664  45   3.5   98    3.2   0     0     976.8    NA       0.0000   -SN      BR    9999  0    
2019/07/25  21:52:00  BASE  19.6921  41   25.1664  45   3.4   97    3.1   0     0     976.9    NA       0.0000   -SN      BR    9999  0    
2019/07/25  21:53:00  BASE  18.5514  40   25.1664  45   3.4   97    3.0   0     0     977.0    NA       0.0000   9999     0     0     0    
2019/07/25  21:54:00  BASE  17.9399  39   25.1664  45   3.3   97    2.9   0     0     977.0    NA       0.0000   9999     0     0     0    
2019/07/25  21:55:00  BASE  17.6106  39   25.1664  45   3.3   97    2.9   0     0     977.1    NA       0.0000   9999     0     0     0    
2019/07/25  21:56:00  BASE  17.3872  38   25.1664  45   3.3   97    2.9   0     0     977.1    NA       0.0000   -SN      9999  0     0    
2019/07/25  21:57:00  BASE  17.7694  36   25.1664  45   3.3   97    2.9   0     0     976.9    NA       0.0000   -SN      9999  0     0    
2019/07/25  21:58:00  BASE  18.8513  34   25.1664  45   3.3   97    2.9   0     0     976.9    NA       0.0000   -SN      9999  0     0    
2019/07/25  21:59:00  BASE  19.6568  33   25.1958  33   3.4   97    2.9   0     0     976.7    NA       0.0000   -SN      9000  0     0    
2019/07/25  22:00:00  BASE  21.2444  31   25.1958  33   3.4   97    3.0   0     0     976.4    NA       0.0000   -SN      6000  360   0    
2019/07/25  22:01:00  BASE  21.5384  30   25.1958  33   3.5   97    3.1   0     0     976.5    NA       0.0000   -SN      BR    6000  0    
2019/07/25  22:02:00  BASE  22.4028  31   27.2244  31   3.6   97    3.2   0     0     976.1    NA       0.0000   -SN      BR    7000  0    
2019/07/25  22:03:00  BASE  23.3906  31   27.2244  31   3.7   97    3.2   0     0     976.2    NA       0.0000   -SN      BR    5000  0    
2019/07/25  22:04:00  BASE  21.5384  31   27.2244  31   3.7   97    3.2   0     0     976.3    NA       0.0000   -SN      BR    6000  0    
2019/07/25  22:05:00  BASE  22.3616  32   27.9182  33   3.7   97    3.2   0     0     976.2    NA       0.0000   -SN      BR    6000  0    
2019/07/25  22:06:00  BASE  22.2088  30   27.9182  33   3.6   97    3.2   0     0     976.3    NA       0.0000   BR       5000  0     0    
2019/07/25  22:07:00  BASE  20.7858  32   27.9182  33   3.6   97    3.1   0     0     976.4    NA       0.0000   BR       6000  0     0    
2019/07/25  22:08:00  BASE  21.5267  34   27.9182  33   3.6   97    3.1   0     0     976.2    NA       0.0000   BR       9999  390   0    
2019/07/25  22:09:00  BASE  22.832   36   27.9182  33   3.5   97    3.1   0     0     976.1    NA       0.2540   BR       8000  0     0    
2019/07/25  22:10:00  BASE  22.8908  38   27.9182  33   3.5   97    3.1   0     0     976.3    NA       0.0000   BR       7000  0     0    
2019/07/25  22:11:00  BASE  21.7736  36   27.9182  33   3.5   97    3.1   0     0     976.2    NA       0.0000   BR       9999  0     0    
2019/07/25  22:12:00  BASE  20.7976  32   27.9182  33   3.5   97    3.0   0     0     976.4    NA       0.0000   BR       9999  390   0    
2019/07/25  22:13:00  BASE  20.4389  33   27.9182  33   3.5   97    3.0   0     0     976.4    NA       0.0000   BR       9999  0     0    
2019/07/25  22:14:00  BASE  20.7564  34   27.9182  33   3.5   97    3.0   0     0     976.4    NA       0.0000   BR       9999  0     0    
2019/07/25  22:15:00  BASE  21.656   35   27.0421  44   3.5   97    3.0   0     0     976.2    NA       0.0000   BR       9999  0     0    
2019/07/25  22:16:00  BASE  22.9261  35   27.0421  44   3.5   97    3.1   0     0     976.2    NA       0.0000   BR       9999  0     0    
2019/07/25  22:17:00  BASE  23.667   36   27.736   38   3.5   97    3.1   0     0     976.1    NA       0.0000   BR       9000  0     0    
2019/07/25  22:18:00  BASE  22.7674  36   27.736   38   3.5   97    3.1   0     0     976.3    NA       0.0000   BR       8000  0     0    
2019/07/25  22:19:00  BASE  21.7442  32   27.736   38   3.5   97    3.0   0     0     976.2    NA       0.0000   BR       9000  0     0    
2019/07/25  22:20:00  BASE  21.609   28   27.736   38   3.4   97    3.0   0     0     976.2    NA       0.0000   BR       6000  0     0    
2019/07/25  22:21:00  BASE  21.3091  28   27.736   38   3.4   97    3.0   0     0     976.3    NA       0.0000   BR       5000  0     0    
2019/07/25  22:22:00  BASE  21.3268  32   27.736   38   3.4   98    3.0   0     0     976.3    NA       0.0000   BR       6000  0     0    
2019/07/25  22:23:00  BASE  21.6796  36   27.736   38   3.3   98    3.0   0     0     976.3    NA       0.0000   BR       8000  0     0    
2019/07/25  22:24:00  BASE  21.95    36   27.736   38   3.3   98    3.0   0     0     976.3    NA       0.0000   -SN      BR    7000  0    
2019/07/25  22:25:00  BASE  21.4444  37   27.736   38   3.3   98    3.0   0     0     976.3    NA       0.0000   -SN      BR    7000  0    
2019/07/25  22:26:00  BASE  21.6972  36   27.736   38   3.3   98    3.0   0     0     976.1    NA       0.0000   -SN      BR    6000  0    
2019/07/25  22:27:00  BASE  22.8085  35   26.1072  32   3.3   98    3.0   0     0     976.0    NA       0.0000   -SN      BR    5000  0    
2019/07/25  22:28:00  BASE  22.8614  38   26.0778  39   3.3   98    3.0   0     0     976.0    NA       0.0000   -SN      BR    7000  0    
2019/07/25  22:29:00  BASE  22.6615  38   26.0778  39   3.3   98    3.0   0     0     976.0    NA       0.0000   -SN      BR    7000  0    
2019/07/25  22:30:00  BASE  22.885   38   26.0778  39   3.2   98    3.0   0     0     976.0    NA       0.0000   -SN      BR    6000  0    
2019/07/25  22:31:00  BASE  20.827   37   26.0778  39   3.2   99    3.0   0     0     976.3    NA       0.0000   -SN      BR    7000  0    
2019/07/25  22:32:00  BASE  19.8626  35   26.0778  39   3.1   99    3.0   0     0     976.0    NA       0.0000   -SN      BR    8000  0    
2019/07/25  22:33:00  BASE  20.2037  35   26.0778  39   3.1   99    2.9   0     0     976.2    NA       0.0000   -SN      BR    9000  0    
2019/07/25  22:34:00  BASE  20.7152  36   26.0778  39   3.0   99    2.9   0     0     975.9    NA       0.0000   -SN      BR    9000  0    
2019/07/25  22:35:00  BASE  21.6796  34   26.0778  39   2.9   99    2.8   0     0     975.9    NA       0.0000   -SN      BR    8000  0    
2019/07/25  22:36:00  BASE  20.5976  30   26.0778  39   2.9   99    2.8   0     0     976.1    NA       0.2540   -SN      BR    8000  0    
2019/07/25  22:37:00  BASE  18.5161  29   25.9837  33   2.9   99    2.8   0     0     976.3    NA       0.0000   -SN      BR    9999  0    
2019/07/25  22:38:00  BASE  17.7811  28   25.5604  41   2.9   100   2.8   0     0     976.2    NA       0.0000   -SN      BR    9999  0    
2019/07/25  22:39:00  BASE  18.8278  28   25.5604  41   2.9   100   2.8   0     0     976.2    NA       0.0000   -SN      BR    9999  0    
2019/07/25  22:40:00  BASE  18.963   29   25.3781  24   2.9   100   2.9   0     0     976.2    NA       0.0000   -SN      BR    9999  0    
2019/07/25  22:41:00  BASE  20.0038  28   25.6838  26   2.9   100   2.9   0     0     975.8    NA       0.0000   -SN      BR    9999  0    
2019/07/25  22:42:00  BASE  22.2264  29   25.6838  26   3.0   100   3.0   0     0     975.6    NA       0.0000   -SN      BR    5000  0    
2019/07/25  22:43:00  BASE  23.8316  31   28.6768  27   3.0   100   3.0   0     0     975.6    NA       0.0000   -SN      BR    4300  0    
2019/07/25  22:44:00  BASE  24.8548  34   28.6768  27   3.1   100   3.1   0     0     975.6    NA       0.0000   -SN      BR    5000  0    
2019/07/25  22:45:00  BASE  23.8787  35   28.6768  27   3.2   100   3.2   0     0     975.9    NA       0.0000   -SN      BR    6000  0    
2019/07/25  22:46:00  BASE  22.7262  33   28.6768  27   3.2   100   3.2   0     0     976.0    NA       0.0000   -SN      BR    5000  0    
2019/07/25  22:47:00  BASE  22.0324  31   28.6768  27   3.2   100   3.2   0     0     976.1    NA       0.0000   -SN      BR    5000  330  
2019/07/25  22:48:00  BASE  19.9156  28   28.6768  27   3.1   100   3.1   0     0     976.4    NA       0.0000   -SN      BR    5000  0    
2019/07/25  22:49:00  BASE  19.5745  28   28.6768  27   3.1   100   3.1   0     0     976.3    NA       0.0000   -SN      BR    5000  0    
2019/07/25  22:50:00  BASE  21.3209  31   28.6768  27   3.0   100   3.0   0     0     976.0    NA       0.0000   -SN      BR    4600  330  
2019/07/25  22:51:00  BASE  22.3205  32   28.6768  27   3.0   100   3.0   0     0     976.0    NA       0.2540   -SN      BR    4200  330  
2019/07/25  22:52:00  BASE  23.3848  35   28.6768  27   3.0   100   3.0   0     0     975.7    NA       0.0000   -SN      BR    2700  330  
2019/07/25  22:53:00  BASE  23.567   38   28.4945  42   3.0   100   3.0   0     0     975.9    NA       0.0000   -SN      BR    2000  0    
2019/07/25  22:54:00  BASE  22.8438  35   28.4945  42   3.1   100   3.1   0     0     975.9    NA       0.0000   -SN      BR    2500  300  
2019/07/25  22:55:00  BASE  22.15    32   28.4945  42   3.1   100   3.1   0     0     976.0    NA       0.0000   -SN      BR    2600  0    
2019/07/25  22:56:00  BASE  20.2919  32   28.4945  42   3.1   100   3.1   0     0     976.3    NA       0.0000   -SN      BR    2300  0    
2019/07/25  22:57:00  BASE  18.9924  31   28.4945  42   3.0   100   3.0   0     0     976.3    NA       0.2540   -SN      BR    2700  330  
2019/07/25  22:58:00  BASE  19.9332  27   28.4945  42   3.0   100   3.0   0     0     976.1    NA       0.0000   -SN      BR    2600  300  
2019/07/25  22:59:00  BASE  20.5741  31   28.4945  42   3.0   100   3.0   0     0     976.1    NA       0.0000   -SN      BR    4200  0    
2019/07/25  23:00:00  BASE  20.7211  36   28.4945  42   2.9   100   2.9   0     0     976.0    NA       0.0000   -SN      BR    4700  0    
2019/07/25  23:01:00  BASE  21.4502  35   28.4945  42   2.9   100   2.9   0     0     976.0    NA       0.2540   -SN      BR    4200  300  
2019/07/25  23:02:00  BASE  20.7858  33   26.1072  40   2.9   100   2.9   0     0     976.0    NA       0.0000   -SN      BR    4000  0    
2019/07/25  23:03:00  BASE  20.8858  35   26.166   29   2.9   100   2.9   0     0     975.9    NA       0.0000   -SN      BR    4600  0    
2019/07/25  23:04:00  BASE  21.5502  35   26.166   29   2.9   100   2.9   0     0     975.9    NA       0.0000   -SN      BR    4200  330  
2019/07/25  23:05:00  BASE  20.3742  34   26.166   29   2.8   100   2.8   0     0     976.0    NA       0.0000   -SN      BR    4400  300  
2019/07/25  23:06:00  BASE  20.0332  33   26.166   29   2.8   100   2.8   0     0     976.0    NA       0.0000   -SN      BR    5000  360  
2019/07/25  23:07:00  BASE  20.6329  31   26.166   29   2.9   100   2.9   0     0     975.9    NA       0.0000   -SN      BR    4900  300  
2019/07/25  23:08:00  BASE  21.1092  30   26.166   29   2.9   100   2.9   0     0     975.8    NA       0.2540   -SN      BR    4700  330  
2019/07/25  23:09:00  BASE  21.5326  28   26.166   29   2.9   100   2.9   0     0     975.7    NA       0.0000   -SN      BR    4400  330  
2019/07/25  23:10:00  BASE  22.344   30   26.3777  34   3.0   100   3.0   0     0     975.6    NA       0.0000   -SN      BR    4500  330  
2019/07/25  23:11:00  BASE  22.4498  31   26.3777  34   3.1   100   3.1   0     0     975.6    NA       0.0000   -SN      BR    4700  330  
2019/07/25  23:12:00  BASE  22.9614  32   26.3777  34   3.1   100   3.1   0     0     975.4    NA       0.0000   -SN      BR    4900  360  
2019/07/25  23:13:00  BASE  23.7023  34   26.3777  34   3.2   100   3.2   0     0     975.6    NA       0.0000   -SN      BR    4800  330  
2019/07/25  23:14:00  BASE  22.2793  32   26.3777  34   3.2   100   3.2   0     0     975.8    NA       0.0000   -SN      BR    3900  0    
2019/07/25  23:15:00  BASE  21.5796  29   26.3777  34   3.3   100   3.2   0     0     975.6    NA       0.2540   -SN      BR    3900  330  
2019/07/25  23:16:00  BASE  21.2562  29   26.3777  34   3.2   100   3.2   0     0     975.8    NA       0.0000   -SN      BR    3600  330  
2019/07/25  23:17:00  BASE  21.5678  32   26.3777  34   3.2   100   3.2   0     0     975.5    NA       0.0000   -SN      BR    2600  300  
2019/07/25  23:18:00  BASE  22.244   32   26.3777  34   3.1   100   3.1   0     0     975.5    NA       0.0000   -SN      BR    2000  300  
2019/07/25  23:19:00  BASE  22.9202  30   26.4365  32   3.1   100   3.1   0     0     975.4    NA       0.0000   -SN      BR    2000  330  
2019/07/25  23:20:01  BASE  22.5674  29   26.4365  32   3.0   100   3.0   0     0     975.6    NA       0.2540   -SN      BR    2400  300  
2019/07/25  23:21:00  BASE  21.0622  31   26.4365  32   2.9   100   2.9   0     0     975.6    NA       0.0000   -SN      BR    3600  0    
2019/07/25  23:22:00  BASE  20.6094  33   26.4365  32   2.9   100   2.9   0     0     975.8    NA       0.0000   -SN      BR    4000  330  
2019/07/25  23:23:00  BASE  20.3448  32   26.4365  32   2.8   100   2.8   0     0     975.7    NA       0.0000   -SN      BR    5000  330  
2019/07/25  23:24:00  BASE  20.3683  32   26.4365  32   2.8   100   2.8   0     0     975.7    NA       0.0000   -SN      BR    4700  330  
2019/07/25  23:25:01  BASE  20.7564  32   26.4365  32   2.8   100   2.8   0     0     975.6    NA       0.0000   -SN      BR    4200  330  
2019/07/25  23:26:01  BASE  20.9387  31   26.4365  32   2.7   100   2.7   0     0     975.6    NA       0.0000   -SN      BR    4000  300  
2019/07/25  23:27:00  BASE  21.4385  33   26.4365  32   2.8   100   2.8   0     0     975.5    NA       0.2540   -SN      BR    4200  300  
2019/07/25  23:28:00  BASE  21.3973  34   26.4365  32   2.8   100   2.8   0     0     975.6    NA       0.0000   -SN      BR    2600  300  
2019/07/25  23:29:00  BASE  21.0563  32   25.5604  34   2.8   100   2.8   0     0     975.6    NA       0.0000   -SN      BR    1900  0    
2019/07/25  23:30:00  BASE  20.974   32   25.5604  34   2.8   100   2.8   0     0     975.7    NA       0.0000   -SN      BR    2000  0    
2019/07/25  23:31:00  BASE  20.092   32   25.137   32   2.8   100   2.8   0     0     975.8    NA       0.0000   -SN      BR    2400  300  
2019/07/25  23:32:00  BASE  19.1394  30   24.5608  31   2.8   100   2.8   0     0     975.8    NA       0.2540   -SN      BR    2600  330  
2019/07/25  23:33:00  BASE  19.992   30   25.137   15   2.8   100   2.8   0     0     975.6    NA       0.0000   -SN      BR    2400  300  
2019/07/25  23:34:00  BASE  21.4561  32   25.137   15   2.8   100   2.8   0     0     975.5    NA       0.0000   -SN      BR    2700  300  
2019/07/25  23:35:00  BASE  22.1852  33   26.3483  41   2.8   100   2.8   0     0     975.4    NA       0.0000   -SN      BR    2400  300  
2019/07/25  23:36:00  BASE  21.2621  32   26.3483  41   2.8   100   2.8   0     0     975.7    NA       0.2540   -SN      BR    3500  300  
2019/07/25  23:37:00  BASE  20.7035  30   26.5012  33   2.8   100   2.8   0     0     975.5    NA       0.0000   -SN      BR    3500  300  
2019/07/25  23:38:01  BASE  22.591   30   27.195   24   2.8   100   2.8   0     0     975.2    NA       0.0000   -SN      BR    3400  330  
2019/07/25  23:39:00  BASE  23.6846  31   28.9472  33   2.8   100   2.8   0     0     975.2    NA       0.2540   -SN      BR    3300  330  
2019/07/25  23:40:00  BASE  23.3671  31   28.9472  33   2.8   100   2.8   0     0     975.2    NA       0.0000   -SN      BR    3500  300  
2019/07/25  23:41:00  BASE  23.273   31   28.9472  33   2.9   100   2.9   0     0     975.2    NA       0.0000   -SN      BR    2500  330  
2019/07/25  23:42:00  BASE  22.3616  30   28.9472  33   2.9   100   2.9   0     0     975.3    NA       0.0000   -SN      BR    2100  0    
2019/07/25  23:43:00  BASE  22.2852  26   28.9472  33   2.9   100   2.9   0     0     975.1    NA       0.2540   -SN      BR    3400  330  
2019/07/25  23:44:00  BASE  22.5439  26   28.9472  33   2.9   100   2.9   0     0     975.3    NA       0.0000   -SN      BR    3400  0    
2019/07/25  23:45:00  BASE  22.7556  29   29.2236  28   2.9   100   2.9   0     0     974.9    NA       0.0000   -SN      BR    3400  0    
2019/07/25  23:46:00  BASE  23.6023  31   29.2236  28   2.9   100   2.9   0     0     975.0    NA       0.0000   -SN      BR    3500  330  
2019/07/25  23:47:00  BASE  23.1143  30   29.2236  28   2.9   100   2.9   0     0     975.1    NA       0.2540   -SN      BR    3400  300  
2019/07/25  23:48:00  BASE  22.2617  27   29.2236  28   2.9   100   2.9   0     0     975.3    NA       0.0000   -SN      BR    3500  720  
2019/07/25  23:49:01  BASE  21.1739  28   29.2236  28   2.9   100   2.9   0     0     975.4    NA       0.0000   -SN      BR    2600  0    
2019/07/25  23:50:00  BASE  21.2974  28   29.2236  28   2.9   100   2.9   0     0     975.2    NA       0.0000   -SN      BR    2300  0    
2019/07/25  23:51:00  BASE  21.8971  27   29.2236  28   2.8   100   2.8   0     0     975.1    NA       0.2540   -SN      BR    3600  0    
2019/07/25  23:52:00  BASE  21.4326  27   29.2236  28   2.8   100   2.8   0     0     975.3    NA       0.0000   -SN      BR    3800  0    
2019/07/25  23:53:00  BASE  21.3385  28   29.2236  28   2.8   100   2.8   0     0     975.2    NA       0.0000   -SN      BR    3800  330  
2019/07/25  23:54:00  BASE  20.6682  30   29.2236  28   2.9   100   2.9   0     0     975.5    NA       0.0000   -SN      BR    4000  330  
2019/07/25  23:55:00  BASE  20.4859  30   27.0127  33   2.9   100   2.9   0     0     975.3    NA       0.2540   -SN      BR    2800  330  
2019/07/25  23:56:00  BASE  20.3095  28   27.0127  33   2.9   100   2.9   0     0     975.4    NA       0.0000   -SN      BR    1900  330  
2019/07/25  23:57:00  BASE  20.774   27   27.0127  33   2.8   100   2.8   0     0     975.2    NA       0.0000   -SN      BR    2500  0    
2019/07/25  23:58:00  BASE  22.6321  28   27.0127  33   2.8   100   2.8   0     0     975.0    NA       0.0000   -SN      BR    3900  360  
2019/07/25  23:59:00  BASE  22.1617  26   27.0127  33   2.8   100   2.8   0     0     975.2    NA       0.0000   -SN      BR    3600  0